[[{"header":{"parameterUnit":"m.s-1","parameterCategory":1,"la1":30.6,"la2":29.2853,"lo1":-89.7004,"lo2":-87.6739,"dy":0.0162,"dx":0.0183,"nx":112,"ny":82,"refTime":"2023-09-07T06:00:00:Z","depth":0,"parameterNumber":2,"parameterNumberName":"U-component_of_WINDS"},"data":[0.0,0.0,0.0,0.0,0.0,0.0,0.0,0.0,0.0,0.0,0.0,0.0,0.0,0.0,0.0,0.0,0.0,0.0,0.0,0.0,0.0,0.0,0.0,0.0,0.0,0.0,0.0,0.0,0.0,0.0,0.0,0.0,0.0,0.0,0.0,0.0,0.0,0.0,0.0,0.0,0.0,0.0,0.0,0.0,0.0,0.0,0.0,0.0,0.0,0.0,0.0,0.0,0.0,0.0,0.0,0.0,0.0,0.0,0.0,0.0,0.0,0.0,0.0,0.0,0.0,0.0,0.0,0.0,0.0,0.0,0.0,0.0,0.0,0.0,0.0,0.0,0.0,0.0,0.0,0.0,0.0,0.0,0.0,0.0,0.0,0.0,0.0,0.0,0.0,0.0,2.6367,3.2539,4.1055,4.5996,4.5254,4.3926,3.9296,3.0367,0.0,0.0,0.0,0.0,0.0,0.0,0.0,0.0,0.0,0.0,0.0,0.0,0.0,0.0,0.0,0.0,0.0,0.0,0.0,0.0,0.0,0.0,0.0,0.0,0.0,0.0,0.0,0.0,0.0,0.0,0.0,0.0,0.0,0.0,0.0,0.0,0.0,0.0,0.0,0.0,0.0,0.0,0.0,0.0,0.0,0.0,0.0,0.0,0.0,0.0,0.0,0.0,0.0,0.0,0.0,0.0,0.0,0.0,0.0,0.0,0.0,0.0,0.0,0.0,0.0,0.0,0.0,0.0,0.0,0.0,0.0,0.0,0.0,0.0,0.0,0.0,0.0,0.0,0.0,0.0,0.0,0.0,0.0,0.0,0.0,0.0,0.0,0.0,0.0,0.0,0.0,0.0,0.0,0.0,0.0,0.0,0.0,0.0,0.0,0.0,0.0,0.0,0.0,0.0,2.6211,3.6523,4.2832,4.625,4.6113,4.2656,3.7675,3.1129,0.0,0.0,0.0,0.0,0.0,0.0,0.0,0.0,0.0,0.0,0.0,0.0,0.0,0.0,0.0,0.0,0.0,0.0,0.0,0.0,0.0,0.0,0.0,0.0,0.0,0.0,0.0,0.0,0.0,0.0,0.0,0.0,0.0,0.0,0.0,0.0,0.0,0.0,0.0,0.0,0.0,0.0,0.0,0.0,0.0,0.0,0.0,0.0,0.0,0.0,0.0,0.0,0.0,0.0,0.0,0.0,0.0,0.0,0.0,0.0,0.0,0.0,0.0,0.0,0.0,0.0,0.0,0.0,0.0,0.0,0.0,0.0,0.0,0.0,0.0,0.0,0.0,0.0,0.0,0.0,0.0,0.0,0.0,0.0,0.0,0.0,0.0,0.0,0.0,0.0,0.0,0.0,0.0,0.0,0.0,0.0,0.0,0.0,0.0,0.0,0.0,0.0,0.0,2.5176,3.0996,3.8496,4.3086,4.5391,4.4922,4.1816,3.7129,3.0603,2.8122,0.0,0.0,0.0,0.0,0.0,0.0,0.0,0.0,0.0,0.0,0.0,0.0,0.0,0.0,0.0,0.0,0.0,0.0,0.0,0.0,0.0,0.0,0.0,0.0,0.0,0.0,0.0,0.0,0.0,0.0,0.0,0.0,0.0,0.0,0.0,0.0,0.0,0.0,0.0,0.0,0.0,0.0,0.0,0.0,0.0,0.0,0.0,0.0,0.0,0.0,0.0,0.0,0.0,0.0,0.0,0.0,0.0,0.0,0.0,0.0,0.0,0.0,0.0,0.0,0.0,0.0,0.0,0.0,0.0,0.0,0.0,0.0,0.0,0.0,0.0,0.0,0.0,0.0,0.0,0.0,0.0,0.0,0.0,0.0,0.0,0.0,0.0,0.0,0.0,0.0,0.0,0.0,0.0,0.0,0.0,0.0,0.0,0.0,0.0,0.0,0.0,0.0,3.0391,3.5293,3.9453,4.2773,4.4336,4.3476,4.0488,3.5976,2.9663,2.6264,0.0,0.0,0.0,0.0,0.0,0.0,0.0,0.0,0.0,0.0,0.0,0.0,0.0,0.0,0.0,0.0,0.0,0.0,0.0,0.0,0.0,0.0,0.0,0.0,0.0,0.0,0.0,0.0,0.0,0.0,0.0,0.0,0.0,0.0,0.0,0.0,0.0,0.0,0.0,0.0,0.0,0.0,0.0,0.0,0.0,0.0,0.0,0.0,0.0,0.0,0.0,0.0,0.0,0.0,0.0,0.0,0.0,0.0,0.0,0.0,0.0,0.0,0.0,0.0,0.0,0.0,0.0,0.0,0.0,0.0,0.0,0.0,0.0,0.0,0.0,0.0,0.0,0.0,0.0,0.0,0.0,0.0,0.0,0.0,0.0,0.0,0.0,0.0,0.0,0.0,0.0,0.0,0.0,0.0,0.0,0.0,0.0,0.0,0.0,0.0,0.0,0.0,3.0918,3.5976,3.9512,4.2226,4.3437,4.2578,3.793,3.3123,2.8589,2.3679,0.0,0.0,0.0,0.0,0.0,0.0,0.0,0.0,0.0,0.0,0.0,0.0,0.0,0.0,0.0,0.0,0.0,0.0,0.0,0.0,0.0,0.0,0.0,0.0,0.0,0.0,0.0,0.0,0.0,0.0,0.0,0.0,0.0,0.0,0.0,0.0,0.0,0.0,0.0,0.0,0.0,0.0,0.0,0.0,0.0,0.0,0.0,0.0,0.0,0.0,0.0,0.0,0.0,0.0,0.0,0.0,0.0,0.0,0.0,0.0,0.0,0.0,0.0,0.0,0.0,0.0,0.0,0.0,0.0,0.0,0.0,0.0,0.0,0.0,0.0,0.0,0.0,0.0,0.0,0.0,0.0,0.0,0.0,0.0,0.0,0.0,0.0,0.0,0.0,0.0,0.0,0.0,0.0,0.0,0.0,0.0,0.0,0.0,0.0,0.0,0.0,0.0,2.957,3.3867,3.7851,4.0117,4.0976,4.0098,3.6758,3.2615,2.7705,0.0,0.0,0.0,0.0,0.0,0.0,0.0,0.0,0.0,0.0,0.0,0.0,0.0,0.0,0.0,0.0,0.0,0.0,0.0,0.0,0.0,0.0,0.0,0.0,0.0,0.0,0.0,0.0,0.0,0.0,0.0,0.0,0.0,0.0,0.0,0.0,0.0,0.0,0.0,0.0,0.0,0.0,0.0,0.0,0.0,0.0,0.0,0.0,0.0,0.0,0.0,0.0,0.0,0.0,0.0,0.0,0.0,0.0,0.0,0.0,0.0,0.0,0.0,0.0,0.0,0.0,0.0,0.0,0.0,0.0,0.0,0.0,0.0,0.0,0.0,0.0,0.0,0.0,0.0,0.0,0.0,0.0,0.0,0.0,0.0,0.0,0.0,0.0,0.0,0.0,0.0,0.0,0.0,0.0,0.0,0.0,0.0,0.0,0.0,0.0,0.0,0.0,2.5098,2.8984,3.2851,3.6875,3.8613,3.9023,3.7871,3.4883,3.1092,2.641,0.0,0.0,0.0,0.0,0.0,0.0,0.0,0.0,0.0,0.0,0.0,0.0,0.0,0.0,0.0,0.0,0.0,0.0,0.0,0.0,0.0,0.0,0.0,0.0,0.0,0.0,0.0,0.0,0.0,0.0,0.0,0.0,0.0,0.0,0.0,0.0,0.0,0.0,0.0,0.0,0.0,0.0,0.0,0.0,0.0,0.0,0.0,0.0,0.0,0.0,0.0,0.0,0.0,0.0,0.0,0.0,0.0,0.0,0.0,0.0,0.0,0.0,0.0,0.0,0.0,0.0,0.0,0.0,0.0,0.0,0.0,0.0,0.0,0.0,0.0,0.0,0.0,0.0,0.0,0.0,0.0,0.0,0.0,0.0,0.0,0.0,0.0,0.0,0.0,0.0,0.0,0.0,0.0,0.0,0.0,0.0,0.0,0.0,0.0,0.0,0.0,0.0,2.5254,2.9492,3.3496,3.6914,3.8047,3.7851,3.6133,3.2051,2.8105,0.0,0.0,0.0,0.0,0.0,0.0,0.0,0.0,0.0,0.0,0.0,0.0,0.0,0.0,0.0,0.0,0.0,0.0,0.0,0.0,0.0,0.0,0.0,0.0,0.0,0.0,0.0,0.0,0.0,0.0,0.0,0.0,0.0,0.0,0.0,0.0,0.0,0.0,0.0,0.0,0.0,0.0,0.0,0.0,0.0,0.0,0.0,0.0,0.0,0.0,0.0,0.0,0.0,0.0,0.0,0.0,0.0,0.0,0.0,0.0,0.0,0.0,0.0,0.0,0.0,0.0,0.0,0.0,0.0,0.0,0.0,0.0,0.0,0.0,0.0,0.0,0.0,0.0,0.0,0.0,0.0,0.0,0.0,0.0,0.0,0.0,0.0,0.0,0.0,0.0,0.0,0.0,0.0,0.0,0.0,0.0,0.0,0.0,0.0,0.0,0.0,0.0,0.0,2.5254,2.8965,3.2598,3.6016,3.6055,3.5644,3.5128,3.1711,2.8115,2.4625,0.0,0.0,0.0,0.0,0.0,0.0,0.0,0.0,0.0,0.0,0.0,0.0,0.0,0.0,0.0,0.0,0.0,0.0,0.0,0.0,0.0,0.0,0.0,0.0,0.0,0.0,0.0,0.0,0.0,0.0,0.0,0.0,0.0,0.0,0.0,0.0,0.0,0.0,0.0,0.0,0.0,0.0,0.0,0.0,0.0,0.0,0.0,0.0,0.0,0.0,0.0,0.0,0.0,0.0,0.0,0.0,0.0,0.0,0.0,0.0,0.0,0.0,0.0,0.0,0.0,0.0,0.0,0.0,0.0,0.0,0.0,0.0,0.0,0.0,0.0,0.0,0.0,0.0,0.0,0.0,0.0,0.0,0.0,0.0,0.0,0.0,0.0,0.0,0.0,0.0,0.0,0.0,0.0,0.0,0.0,0.0,0.0,0.0,0.0,0.0,0.0,0.0,2.4786,2.822,3.1699,3.5117,3.5018,3.4564,3.4203,3.1684,2.8635,2.5149,0.0,0.0,0.0,0.0,0.0,0.0,0.0,0.0,0.0,0.0,0.0,0.0,0.0,0.0,0.0,0.0,0.0,0.0,0.0,0.0,0.0,0.0,0.0,0.0,0.0,0.0,0.0,0.0,0.0,0.0,0.0,0.0,0.0,0.0,0.0,0.0,0.0,0.0,0.0,0.0,0.0,0.0,0.0,0.0,0.0,0.0,0.0,0.0,0.0,0.0,0.0,0.0,0.0,0.0,0.0,0.0,0.0,0.0,0.0,0.0,0.0,0.0,0.0,0.0,0.0,0.0,0.0,0.0,0.0,0.0,0.0,0.0,0.0,0.0,0.0,0.0,0.0,0.0,0.0,0.0,0.0,0.0,0.0,0.0,0.0,0.0,0.0,0.0,0.0,0.0,0.0,0.0,0.0,0.0,0.0,0.0,0.0,0.0,0.0,0.0,0.0,0.0,2.4066,2.7448,3.0918,3.4336,3.4562,3.4178,3.3459,3.1721,2.9242,2.5906,0.0,0.0,0.0,0.0,0.0,0.0,0.0,0.0,0.0,0.0,0.0,0.0,0.0,0.0,0.0,0.0,0.0,0.0,0.0,0.0,0.0,0.0,0.0,0.0,0.0,0.0,0.0,0.0,0.0,0.0,0.0,0.0,0.0,0.0,0.0,0.0,0.0,0.0,0.0,0.0,0.0,0.0,0.0,0.0,0.0,0.0,0.0,0.0,0.0,0.0,0.0,0.0,0.0,0.0,0.0,0.0,0.0,0.0,0.0,0.0,2.0696,1.7689,0.0,0.0,0.0,0.0,0.0,0.0,0.0,0.0,0.0,0.0,0.0,0.0,0.0,0.0,0.0,0.0,0.0,0.0,0.0,0.0,0.0,0.0,0.0,0.0,0.0,0.0,0.0,0.0,0.0,0.0,0.0,0.0,0.0,0.0,0.0,0.0,0.0,0.0,0.0,0.0,2.4057,2.7432,3.0905,3.4322,3.3467,3.2862,3.3361,3.0606,2.7952,2.5824,2.3712,0.0,0.0,0.0,0.0,0.0,0.0,0.0,0.0,0.0,0.0,0.0,0.0,0.0,0.0,0.0,0.0,0.0,0.0,0.0,0.0,0.0,0.0,0.0,0.0,0.0,0.0,0.0,0.0,0.0,0.0,0.0,0.0,0.0,0.0,0.0,0.0,0.0,0.0,0.0,0.0,0.0,0.0,0.0,0.0,0.0,0.0,0.0,0.0,0.0,0.0,0.0,0.0,0.0,0.0,0.0,0.0,0.0,0.0,0.0,2.3985,2.1564,0.0,0.0,0.0,0.0,0.0,0.0,0.0,0.0,0.0,0.0,0.0,0.0,0.0,0.0,0.0,0.0,0.0,0.0,0.0,0.0,0.0,0.0,0.0,0.0,0.0,0.0,0.0,0.0,0.0,0.0,0.0,0.0,0.0,0.0,0.0,0.0,0.0,0.0,0.0,0.0,2.4589,2.7316,3.0116,3.3122,3.2643,3.2274,3.2736,3.0411,2.8362,2.7034,2.4536,0.0,0.0,0.0,0.0,0.0,0.0,0.0,0.0,0.0,0.0,0.0,0.0,0.0,0.0,0.0,0.0,0.0,0.0,0.0,0.0,0.0,0.0,0.0,0.0,0.0,0.0,0.0,0.0,0.0,0.0,0.0,0.0,0.0,0.0,0.0,0.0,0.0,0.0,0.0,0.0,0.0,0.0,0.0,0.0,0.0,0.0,0.0,0.0,0.0,0.0,0.0,0.0,0.0,3.0291,3.1174,3.1596,3.1889,3.2177,3.2272,2.9002,2.7424,2.6918,2.376,0.0,0.0,0.0,0.0,0.0,0.0,0.0,0.0,0.0,0.0,0.0,0.0,0.0,0.0,0.0,0.0,0.0,0.0,0.0,0.0,0.0,0.0,2.5305,2.8393,2.9627,2.8985,2.481,0.0,0.0,0.0,0.0,0.0,0.0,0.0,0.0,0.0,0.0,0.0,2.523,2.7313,2.9433,3.1836,3.1953,3.1875,3.1875,3.0333,2.9006,2.8127,2.5238,2.354,0.0,0.0,0.0,0.0,0.0,0.0,0.0,0.0,0.0,0.0,0.0,0.0,0.0,0.0,0.0,0.0,0.0,0.0,0.0,0.0,0.0,0.0,0.0,0.0,0.0,0.0,0.0,0.0,0.0,0.0,0.0,0.0,1.9861,2.1495,0.0,0.0,0.0,0.0,0.0,0.0,0.0,0.0,0.0,0.0,0.0,0.0,0.0,2.8052,3.0528,3.2422,3.3443,3.3644,3.6814,3.7597,3.6346,3.7823,3.9261,4.0495,3.7821,0.0,2.9733,2.7811,0.0,0.0,0.0,0.0,0.0,0.0,0.0,0.0,0.0,0.0,0.0,0.0,0.0,0.0,0.0,0.0,0.0,0.0,0.0,0.0,0.0,0.0,3.113,3.3093,3.3073,3.2628,3.2706,2.8791,2.4946,2.3897,2.3182,2.1939,0.0,0.0,0.0,0.0,0.0,0.0,2.5522,2.7884,3.0116,3.1914,3.1426,3.0977,3.0977,2.9435,2.8108,2.7231,2.6039,2.5356,2.5356,2.3892,0.0,0.0,0.0,0.0,0.0,0.0,0.0,0.0,0.0,0.0,0.0,0.0,0.0,0.0,0.0,0.0,0.0,0.0,0.0,0.0,0.0,0.0,0.0,0.0,0.0,0.0,0.0,0.0,0.0,2.0674,2.3108,2.3368,2.3795,2.294,0.0,0.0,0.0,0.0,0.0,0.0,0.0,0.0,0.0,2.9054,3.0796,3.2895,3.5381,3.7709,3.9326,4.0268,4.2276,4.3118,4.291,4.3623,4.4386,4.4991,4.3869,4.126,3.7433,3.3294,3.0579,2.8688,0.0,0.0,0.0,0.0,2.4006,2.47,2.7037,2.8398,2.9165,2.955,0.0,0.0,0.0,0.0,0.0,0.0,0.0,2.6036,2.7881,3.0443,3.3209,3.5897,3.7019,3.7444,3.7336,3.5308,3.2405,2.8618,2.7581,2.6328,2.3216,2.2506,0.0,0.0,0.0,2.5582,2.7426,2.8701,2.9899,3.1137,3.092,3.0492,3.0049,2.8938,2.7894,2.7054,2.6175,2.5707,2.5707,2.4965,2.4106,0.0,0.0,0.0,0.0,0.0,0.0,0.0,0.0,0.0,0.0,0.0,0.0,0.0,0.0,0.0,0.0,0.0,0.0,0.0,0.0,0.0,0.0,0.0,0.0,0.0,0.0,0.0,0.0,2.3609,2.6024,2.5206,2.6953,2.6748,0.0,0.0,0.0,0.0,0.0,0.0,2.8643,3.0129,3.2042,3.4531,3.6541,3.8471,4.0304,4.2506,4.4135,4.5178,4.5827,4.6468,4.709,4.7297,4.7391,4.7391,4.7391,4.6336,4.4143,3.8503,3.4877,3.2694,3.0561,2.959,2.9387,2.9284,2.9404,3.0043,3.2831,3.3878,3.4077,3.4719,3.3788,3.1854,2.9085,0.0,0.0,0.0,0.0,2.885,3.1255,3.313,3.5198,3.84,4.0024,4.0707,4.0301,4.0056,3.8421,3.3263,3.1901,3.0491,2.6996,2.5715,0.0,2.5678,2.6478,2.7729,2.9644,3.0128,3.0466,3.0881,3.0921,3.0516,2.9449,2.8647,2.785,2.7022,2.6171,2.5707,2.5707,2.5707,2.5082,2.3794,0.0,0.0,0.0,0.0,0.0,0.0,0.0,0.0,0.0,0.0,0.0,0.0,0.0,0.0,0.0,0.0,0.0,0.0,0.0,0.0,0.0,0.0,0.0,0.0,0.0,0.0,0.0,0.0,0.0,2.6879,3.1634,0.0,0.0,0.0,0.0,2.7789,2.9962,3.208,3.3733,3.6835,3.9677,4.2166,4.4599,4.5969,4.6099,4.6973,4.7066,4.6397,4.6434,4.6522,4.6578,4.7307,4.7661,4.7661,4.7661,4.7605,4.7117,4.2566,3.9552,3.753,3.4508,3.3715,3.4204,3.3821,3.4208,3.5066,3.6133,3.6559,3.7011,3.9432,3.9066,3.7076,3.3692,3.203,0.0,0.0,3.0744,3.3099,3.4882,3.6588,3.8518,4.1184,4.1202,4.0853,4.1691,4.1186,3.9798,3.728,3.5438,3.3207,2.9688,0.0,3.0283,2.711,2.939,3.1545,3.1739,3.249,3.2707,3.1926,3.1829,3.1149,2.944,2.8621,2.7833,2.6961,2.6158,2.5707,2.5707,2.5707,2.5668,2.557,2.3931,0.0,0.0,0.0,0.0,0.0,0.0,0.0,0.0,0.0,0.0,0.0,0.0,0.0,0.0,0.0,0.0,0.0,0.0,0.0,0.0,0.0,0.0,0.0,0.0,0.0,0.0,0.0,0.0,3.3045,3.6426,0.0,3.3231,3.3398,3.3491,3.2897,3.5627,3.8507,4.12,4.2927,4.4506,4.5918,4.7311,4.7794,4.7274,4.8073,4.8333,4.8036,4.8036,4.8036,4.8054,4.8333,4.8481,4.8481,4.8481,4.8184,4.7571,4.596,4.4092,4.1935,3.9212,3.8746,3.9463,3.876,3.9166,4.0175,4.1034,4.1121,4.0735,3.9985,3.8979,3.7613,3.5316,3.4777,3.4854,3.4263,3.5547,3.7257,3.7887,3.8871,4.0086,4.1581,4.1682,4.1514,4.1856,4.1668,4.1017,3.9615,3.7943,3.6036,3.3759,3.3357,3.2762,3.101,3.1746,3.2509,3.2528,3.2351,3.2132,3.1804,3.1263,3.0472,2.9337,2.8993,2.8528,2.777,2.748,2.7326,2.7366,2.7366,2.7366,2.7366,2.6761,2.5492,0.0,0.0,0.0,0.0,0.0,0.0,0.0,0.0,0.0,0.0,0.0,0.0,0.0,0.0,0.0,0.0,0.0,0.0,0.0,0.0,0.0,0.0,0.0,0.0,0.0,3.1898,3.5887,3.6965,4.0494,4.1664,3.8655,3.912,3.9621,3.9621,4.1869,4.4209,4.6401,4.7274,4.7961,4.85,4.9577,4.9633,4.8556,4.9615,4.9726,4.8909,4.9187,4.9169,4.8909,4.9187,4.9169,4.8927,4.9206,4.8872,4.8091,4.7813,4.6848,4.5316,4.3175,4.2622,4.295,4.2456,4.2765,4.349,4.4024,4.4037,4.3481,4.1505,4.0345,3.945,3.8055,3.8036,3.8479,3.8488,3.9543,4.066,4.0656,4.0829,4.1234,4.2116,4.2097,4.1947,4.2236,4.2082,4.1701,4.1123,3.9605,3.7833,3.5907,3.504,3.4167,3.2774,3.2519,3.2506,3.2506,3.2025,3.1583,3.1295,3.1006,3.0491,2.9679,2.8849,2.8415,2.8528,2.778,2.762,2.8249,2.7705,2.7398,2.7425,2.713,2.6,2.3971,0.0,0.0,0.0,0.0,0.0,0.0,0.0,0.0,0.0,0.0,0.0,0.0,0.0,0.0,0.0,0.0,0.0,0.0,0.0,0.0,0.0,0.0,0.0,2.9484,3.5936,3.9946,3.8488,4.3918,4.6851,4.4438,4.6401,4.7794,4.7742,4.8484,4.8983,4.902,4.9763,5.019,5.019,5.1751,5.1844,5.0246,5.1788,5.1361,4.8983,4.9782,4.9745,4.9002,4.98,4.9707,4.8983,4.9837,4.9707,4.8834,4.8054,4.772,4.7568,4.6169,4.5125,4.4467,4.4714,4.4795,4.4776,4.48,4.4985,4.5067,4.4188,4.356,4.2989,4.2104,4.1854,4.1854,4.1854,4.245,4.3102,4.3096,4.2464,4.2063,4.2984,4.2495,4.2066,4.2922,4.2425,4.1797,4.1797,4.0481,3.8546,3.6042,3.563,3.4776,3.2275,3.1872,0.0,3.1852,3.1814,3.1429,3.0533,3.1218,3.1371,3.0436,2.8203,2.7553,2.9138,2.7043,2.6502,2.8203,2.6661,2.5785,2.5863,2.4981,2.4944,2.5789,0.0,0.0,0.0,0.0,0.0,0.0,0.0,0.0,0.0,0.0,0.0,0.0,0.0,0.0,0.0,0.0,0.0,0.0,0.0,0.0,0.0,3.2311,3.6167,3.6723,4.0177,4.3889,4.7143,4.9249,4.9955,4.8611,4.9565,4.9769,4.8724,4.9785,5.0768,5.1417,5.1658,5.1825,5.1918,5.227,5.1973,5.0954,5.138,5.125,5.0583,5.0897,5.0933,5.0729,5.0933,5.058,4.98,5.0079,4.9707,4.889,4.8667,4.824,4.759,4.6629,4.5749,4.5072,4.5144,4.4908,4.4572,4.4962,4.5159,4.5088,4.4403,4.409,4.3816,4.2989,4.2739,4.2739,4.2739,4.2912,4.3104,4.3102,4.2929,4.2797,4.3079,4.2929,4.2816,4.3044,4.2412,4.1797,4.1797,4.0927,3.9769,3.8488,3.8267,3.781,3.6458,3.5732,3.5334,3.5334,3.4257,3.2949,3.1506,3.2083,3.1737,2.9621,2.999,3.0276,3.0144,2.9581,2.9458,2.9985,2.9608,2.9372,2.9396,2.7969,2.7347,0.0,0.0,0.0,0.0,0.0,0.0,0.0,0.0,0.0,0.0,0.0,0.0,0.0,0.0,0.0,0.0,0.0,0.0,0.0,0.0,0.0,0.0,3.7171,4.1919,4.4032,4.5825,4.8055,5.1104,5.1861,5.1801,5.1004,5.1274,5.1134,5.0279,5.0641,5.1412,5.2486,5.221,5.2312,5.2954,5.2915,5.2469,5.1674,5.2007,5.1822,5.1156,5.1621,5.164,5.1324,5.1714,5.1249,5.0135,5.0525,5.0023,4.8909,4.8909,4.863,4.8129,0.0,0.0,0.0,0.0,4.4538,4.4279,4.4599,4.4776,4.482,4.4462,4.4248,4.4057,4.3578,4.3497,4.3605,4.3605,4.3874,4.4143,4.4143,4.3874,4.3605,4.3605,4.3605,4.3508,4.3162,4.2701,4.2239,4.1873,4.1104,0.0,3.9884,3.9215,3.8349,3.7132,3.6213,3.5526,3.5161,3.4257,3.3141,3.1833,3.2429,3.216,3.0333,3.0448,0.0,0.0,0.0,2.9544,2.961,2.9705,0.0,0.0,0.0,2.7579,2.8301,2.727,0.0,0.0,2.585,2.5056,0.0,0.0,0.0,0.0,0.0,0.0,0.0,0.0,0.0,0.0,0.0,0.0,0.0,0.0,0.0,0.0,4.1325,4.611,5.0681,5.1721,5.204,5.2028,5.2691,5.2852,5.2082,5.2107,5.2107,5.201,5.1341,5.1506,5.2799,5.1981,0.0,0.0,0.0,5.2991,5.2349,5.3031,5.2681,5.1337,5.2155,5.2194,5.162,5.2363,5.19,5.0526,5.1213,5.0563,4.9004,4.9004,4.9002,4.8816,4.7906,4.6643,4.5194,4.4321,4.4005,4.3986,4.4017,0.0,0.0,4.4457,4.4297,4.4126,4.4126,4.4307,4.4532,4.4532,4.5049,4.5586,4.5586,4.4951,4.4278,4.4182,4.422,4.4085,4.3278,4.3104,4.2874,4.2104,4.1162,4.0489,4.0489,3.9258,3.7777,3.6295,3.5334,3.4487,3.3718,3.3449,3.2987,3.2083,3.2718,0.0,3.1795,3.0448,2.9967,3.0641,2.9361,2.8621,2.8676,2.8801,2.8115,2.6502,2.6532,2.7284,2.8728,2.8834,2.962,3.0951,2.7767,2.7126,0.0,0.0,0.0,0.0,0.0,0.0,0.0,0.0,0.0,0.0,0.0,0.0,0.0,0.0,0.0,4.213,4.6633,5.0627,5.3385,5.3888,5.3842,5.3616,5.3887,5.3737,5.2886,5.3264,5.3369,5.2798,5.2518,5.272,5.3692,5.2413,5.2078,5.3062,5.2419,5.218,5.2477,5.2623,5.2743,5.2898,5.3145,0.0,5.3998,5.3539,5.3133,5.2819,5.232,5.125,4.9787,4.9787,4.9451,4.876,4.7293,4.6141,4.5194,4.4321,4.4005,4.4017,4.425,4.4374,4.4457,4.465,4.5117,4.5588,4.5588,4.5773,0.0,4.5988,4.5803,4.5586,4.5586,4.4951,4.4143,4.3489,4.3835,4.4085,4.3278,4.3104,4.3047,4.2874,4.1585,4.0489,4.0489,4.0219,3.9912,3.9585,3.8834,3.8238,3.8084,3.6834,3.5391,3.3872,3.4487,3.4103,3.1891,3.2622,3.2987,3.2449,3.228,3.222,3.2283,3.2361,3.2243,3.1906,3.1889,3.1738,3.1368,3.2077,3.2222,3.1836,3.0507,3.0078,0.0,0.0,0.0,0.0,0.0,0.0,0.0,0.0,0.0,0.0,0.0,3.3731,3.4507,0.0,4.3561,4.6648,5.0028,5.2925,5.4805,5.4736,5.4295,5.3787,5.3766,5.3537,5.2653,5.2879,5.2936,5.2625,5.2507,5.2758,5.3494,5.2466,5.2161,5.2892,5.2108,5.191,5.2445,5.2463,5.2707,5.3254,5.3359,5.3621,5.4008,5.3625,5.3056,5.2299,5.1874,5.0804,4.9398,4.9434,4.9022,4.8221,4.7404,4.6605,4.5751,4.4469,4.4005,4.4036,4.4151,4.4192,4.4221,4.4346,4.503,4.5704,4.5334,4.5685,4.6149,4.5884,4.5609,4.5419,4.5568,4.5278,4.4855,4.4451,4.4662,4.472,4.3874,4.3374,4.3104,4.3104,4.1681,4.0642,4.1085,4.0777,4.0489,4.0489,4.0162,3.9758,3.9354,3.8161,3.6853,3.5584,3.5488,3.4814,3.3103,3.3314,3.3353,3.2929,3.3024,3.3145,3.3245,3.3307,3.3379,3.3395,3.3398,3.3183,3.2753,3.3188,3.3172,3.2748,3.2343,3.2148,0.0,0.0,0.0,0.0,0.0,0.0,0.0,3.1076,3.2455,3.43,3.6956,3.9336,4.0578,4.4302,4.8096,5.0873,5.2735,5.4305,5.565,5.5063,5.4236,5.3494,5.3529,5.3373,5.2718,5.2666,5.2666,5.2666,5.2528,5.2718,5.3352,5.2354,5.2052,5.2662,5.1792,5.1569,5.206,5.2108,5.2361,5.2912,5.3048,5.3206,5.3353,5.3267,5.261,5.1464,5.1023,5.0101,4.8973,4.8913,4.8484,4.789,4.7757,4.7218,4.6308,4.4804,4.4246,4.4228,4.4061,4.4005,4.4005,4.4005,4.471,4.5423,4.4767,4.5208,4.583,4.5403,4.5366,4.5453,4.5515,4.5568,4.5547,4.5374,4.5336,4.5163,4.4451,4.3797,4.3335,4.3335,4.2066,4.1162,4.172,4.1219,4.07,4.0527,4.0489,4.0258,3.9623,3.8777,3.7911,3.7046,3.6219,3.5391,3.4526,3.3814,3.341,3.341,3.3473,3.3558,3.3674,3.377,3.3843,3.3902,3.3905,3.3827,3.3651,3.3827,3.3827,3.3668,3.3824,3.3711,2.4269,2.4797,2.654,2.7816,3.011,3.3473,0.0,4.0474,4.1423,4.4354,4.682,4.8528,4.87,5.1338,5.4046,5.5753,5.565,5.5667,5.6546,5.5426,5.4236,5.3494,5.3994,5.4356,5.4253,5.4253,5.4253,5.4253,5.3649,5.3546,5.4326,5.2373,5.1509,5.2226,5.0893,5.0471,5.0946,5.0964,5.1262,5.1799,5.225,5.2862,5.3544,5.2621,5.2459,5.2863,5.0756,4.9766,4.9545,4.9011,4.8767,4.8618,4.7964,4.7218,4.6382,4.5491,4.5138,4.5026,4.4265,4.4005,4.4005,4.4005,4.4612,4.5332,4.5239,4.5398,4.5641,4.5575,4.5949,4.6178,4.5453,4.5419,4.5393,4.4624,4.4451,4.4412,4.4316,4.422,4.4162,4.4162,4.3431,4.2585,4.1931,4.172,4.1393,4.0623,4.0489,4.0469,4.0373,3.9662,3.8815,3.795,3.7084,3.6238,3.543,3.5276,3.5218,3.5218,3.5268,3.535,3.5422,3.5541,3.5641,3.5718,3.5718,3.533,3.4569,3.533,3.531,3.4569,3.5343,3.4881,2.9573,2.985,3.0851,3.4145,3.6594,3.9319,4.3682,4.5337,4.67,4.9338,5.1338,5.2632,5.2632,5.4011,5.5357,5.6012,5.5477,5.5236,5.5995,5.4822,5.358,5.2804,5.2977,5.3356,5.3822,5.3873,5.4046,5.4477,5.3822,5.3339,5.3184,5.227,5.1701,5.158,5.139,5.1338,5.1415,5.147,5.1494,5.1619,5.2155,5.2589,5.2878,5.2754,5.238,5.1701,4.9837,4.901,4.8973,4.8753,4.8732,4.875,4.8451,4.8447,4.8333,4.6104,4.4971,4.4488,4.4135,4.4005,4.4005,4.4005,4.4581,4.5212,4.4692,4.5021,4.5538,4.5213,4.5428,4.5701,4.5496,4.5513,4.5509,4.5143,4.5047,4.5047,4.5047,4.4662,4.4451,4.4951,4.3989,4.3124,4.3239,4.2874,4.2258,4.1393,4.0816,4.0489,4.0489,3.9796,3.8757,3.7392,3.6507,3.5872,3.5532,3.5493,3.5493,3.5493,3.5541,3.557,3.5631,3.5729,3.582,3.5938,3.5981,3.5818,3.5467,3.5818,3.5818,3.5467,3.5823,3.5619,3.2025,3.3068,3.4639,3.9474,4.244,4.4958,4.782,4.9631,5.1235,5.3097,5.4374,5.5132,5.5132,5.5581,5.5943,5.5943,5.5305,5.4925,5.527,5.4011,5.2632,5.1425,5.1097,5.1287,5.2063,5.2701,5.3304,5.3839,5.358,5.3149,5.258,5.2546,5.2304,5.1752,5.2063,5.2018,5.1682,5.1874,5.1818,5.1476,5.2022,5.2269,5.2251,5.2308,5.1632,5.038,4.9044,4.8457,4.8457,4.855,4.8624,4.8715,4.8787,4.9045,4.9134,4.681,4.5565,4.4915,4.4246,4.4005,4.4005,4.4005,4.4432,4.4822,4.4191,4.4531,4.5096,4.4768,4.5043,4.5445,4.5477,4.5723,4.5893,4.5663,4.5586,4.5586,4.5586,4.5086,4.4855,4.547,4.4624,4.3893,4.4239,4.3816,4.3066,4.197,4.1258,4.0758,4.0527,3.9796,3.8815,3.7546,3.668,3.6103,3.5853,3.5834,3.5738,3.5512,3.5493,3.5522,3.5607,3.5669,3.576,3.5908,3.5974,3.5991,3.5991,3.5991,3.5994,3.5999,3.5994,3.6003,2.9007,3.2183,3.6319,4.1733,4.6441,5.0373,5.2666,5.4339,5.565,5.6495,5.6702,5.6736,5.6736,5.6753,5.6753,5.6753,5.6098,5.5339,5.4632,5.3218,5.1425,4.92,4.8286,4.8148,4.889,5.0959,5.227,5.2287,5.2977,5.3391,5.3356,5.3356,5.3356,5.3339,5.2615,5.1856,5.1114,5.1821,5.1804,5.1122,5.1647,5.1891,5.1876,5.0659,4.995,4.9572,4.8691,4.8306,4.8306,4.8457,4.8513,4.855,4.8715,4.8324,4.7692,4.763,4.7608,4.7237,4.4822,4.4005,4.4005,4.4005,4.4023,4.4023,4.4005,4.4005,4.4116,4.4346,4.521,4.5941,4.5369,4.6033,4.6644,4.5797,4.5586,4.5586,4.5586,4.5566,4.5566,4.5586,4.5547,4.5259,4.4432,4.4278,4.3701,4.2047,4.1777,4.147,4.0604,3.9796,3.9277,3.9219,3.843,3.7584,3.6738,3.6661,3.6334,3.5565,3.5493,3.5522,3.5607,3.5669,3.576,3.5908,3.5974,3.5991,3.5991,3.5991,3.5999,3.5991,3.5999,3.5994,3.3913,3.7911,4.2056,4.6918,5.1131,5.4501,5.5884,5.7362,5.8101,5.7064,5.5184,5.3304,5.1787,5.0269,4.9752,5.1269,5.1718,5.2511,5.4253,5.3184,5.1373,4.9097,4.8596,4.7958,4.67,4.8631,5.0597,5.2114,5.2459,5.2615,5.2615,5.3115,5.3408,5.3408,5.3615,5.3373,5.2632,5.2356,5.1839,5.1097,5.1176,5.1529,5.2189,5.0687,5.0125,5.0306,4.8912,4.8306,4.8306,4.8363,4.8419,4.8513,4.8624,4.8899,4.9046,4.8076,4.7701,4.7423,4.5509,4.4488,4.4005,4.4005,4.4005,4.4005,4.4005,4.4121,4.4318,4.4599,4.5057,4.55,4.5477,4.5762,4.5951,4.5663,4.5586,4.5586,4.5586,4.5586,4.5586,4.5586,4.5586,4.5509,4.5201,4.5163,4.4586,4.2912,4.1681,4.0835,4.0527,3.9796,3.9296,3.9296,3.8527,3.7873,3.7584,3.7026,3.6584,3.6315,3.5815,3.5501,3.5534,3.5631,3.571,3.5779,3.5919,3.5991,3.5991,3.6001,3.6007,3.5991,3.5993,3.6007,3.7674,4.1798,4.5679,5.0553,5.3703,5.5804,5.6491,5.7603,5.7681,5.48,5.2409,5.0015,4.7265,4.4871,4.4182,4.6749,4.7389,4.8786,5.239,5.158,5.0166,4.8959,4.8596,4.7958,4.6751,4.7958,4.9424,5.089,5.1752,5.2218,5.2218,5.3218,5.3787,5.3787,5.4253,5.4149,5.3408,5.2891,5.227,5.1494,5.1384,5.1723,5.2468,5.0883,5.0395,5.0729,4.9352,4.86,4.8306,4.8306,4.8363,4.8457,4.855,4.8938,4.938,4.8449,4.7723,4.707,4.5751,4.4729,4.4005,4.4005,4.4005,4.4005,4.4005,4.4121,4.4318,4.4701,4.4919,4.514,4.5513,4.5586,4.5586,4.5586,4.5586,4.5586,4.5586,4.5586,4.5586,4.5586,4.5586,4.5586,4.5586,4.5336,4.4759,4.3682,4.2066,4.0854,4.0527,4.0046,3.9719,3.9719,3.9219,3.8777,3.8488,3.795,3.7353,3.6738,3.6219,3.5815,3.5512,3.563,3.5693,3.5693,3.5895,3.5991,3.5991,3.6005,3.5992,3.5994,3.5996,3.5993,4.0137,4.3903,4.7353,5.2544,5.4311,5.4796,5.4869,5.5397,5.4594,5.027,4.848,4.6606,4.2997,4.0659,4.0264,4.3425,4.3545,4.4889,4.9528,4.8924,4.8234,4.8855,4.8321,4.8131,4.8769,4.889,4.8941,4.8941,5.0976,5.2235,5.227,5.3684,5.4512,5.4512,5.4512,5.4167,5.346,5.3391,5.2942,5.2166,5.2132,5.231,5.2585,5.1069,5.0533,5.0765,4.9939,4.9095,4.8306,4.8306,4.8306,4.8306,4.8457,4.855,4.8642,4.8732,4.7856,4.6438,4.5677,4.4804,4.4005,4.4005,4.4005,4.4005,4.4005,4.4005,4.4109,4.4624,4.4776,4.4919,4.5438,4.5586,4.5586,4.5586,4.5586,4.5586,4.5586,4.5586,4.5586,4.5586,4.5586,4.5586,4.5586,4.4913,4.4355,4.4316,4.2951,4.1604,4.0681,4.0527,4.0489,4.0489,4.0489,4.0181,3.9431,3.9315,3.8584,3.6949,3.6757,3.6372,3.5589,3.5649,3.5693,3.5693,3.5895,3.5991,3.5991,3.6005,3.5994,3.5996,3.5996,3.5993,4.5668,4.9492,5.2511,5.3798,5.5066,5.5765,5.4982,5.3344,5.0902,4.7056,4.2224,3.7661,3.4316,3.414,3.571,3.9365,4.3183,4.732,5.189,5.2201,5.1597,5.0649,5.0355,4.9873,4.8907,4.9855,5.0528,5.0528,5.158,5.2477,5.3063,5.3994,5.4512,5.4512,5.4512,5.4425,5.4236,5.3097,5.2149,5.139,5.0838,5.1018,5.1869,5.0869,5.0533,5.0765,4.9939,4.9095,4.8306,4.8306,4.8306,4.8306,4.8457,4.855,4.8642,4.8732,4.8208,4.7367,4.7163,4.5732,4.4005,4.4005,4.4005,4.4005,4.4005,4.4005,4.4079,4.4402,4.465,4.4891,4.5222,4.5438,4.5586,4.5586,4.5586,4.5586,4.5586,4.5586,4.5586,4.5586,4.5586,4.5586,4.5586,4.5413,4.5047,4.4393,4.3932,4.3124,4.1662,4.0893,4.0489,4.0489,4.0489,4.0412,4.02,3.9642,3.9104,3.8661,3.743,3.6622,3.6411,3.5959,3.5693,3.5693,3.5895,3.5991,3.5991,3.5996,3.6009,3.5996,3.5996,3.5996,4.9406,5.2587,5.4857,5.4792,5.5084,5.4614,5.1352,4.9444,4.6515,3.99,3.5616,3.2138,2.9022,2.9161,3.1239,3.5702,3.9881,4.444,4.9683,5.0976,5.1442,5.158,5.1908,5.1787,5.0907,5.1614,5.2252,5.258,5.2684,5.2925,5.3391,5.4098,5.4512,5.4512,5.4512,5.4184,5.3511,5.2994,5.2183,5.1114,5.0683,5.0902,5.1722,5.0571,5.0187,5.0422,4.9601,4.8901,4.8306,4.8306,4.8306,4.8306,4.8363,4.8476,4.8587,4.866,4.825,4.7652,4.7701,4.6327,4.4562,4.4562,4.4302,4.4005,4.4005,4.4005,4.4048,4.4318,4.4519,4.4676,4.4943,4.5222,4.5419,4.5419,4.5513,4.5586,4.5586,4.5586,4.5586,4.5586,4.5586,4.5586,4.5586,4.5586,4.5432,4.4932,4.4528,4.3951,4.3028,4.1835,4.0912,4.0527,4.0489,4.0489,4.0489,4.0085,3.9681,3.9315,3.8373,3.7507,3.6738,3.6424,3.6093,3.5717,3.5904,3.5991,3.5991,3.5991,3.6005,3.5996,3.5996,3.5996,5.1999,5.4171,5.562,5.5385,5.4522,5.2304,4.6555,4.4658,4.1371,3.1764,2.9365,2.8195,2.5669,2.549,2.7519,3.2906,3.595,3.9767,4.5906,4.8131,4.9907,5.1977,5.3011,5.3546,5.3546,5.3546,5.3822,5.446,5.3908,5.3546,5.3546,5.4149,5.4512,5.4512,5.4512,5.3873,5.2546,5.2994,5.258,5.1252,5.1104,5.1315,5.1843,5.0524,5.0036,5.0043,4.9361,4.8753,4.8306,4.8306,4.8306,4.8306,4.8306,4.8401,4.8532,4.8605,4.8253,4.7766,4.7705,4.6717,4.5435,4.5324,4.4711,4.4005,4.4005,4.4005,4.4048,4.426,4.4374,4.4438,4.4676,4.4962,4.5159,4.5201,4.5381,4.5568,4.5586,4.5586,4.5586,4.5586,4.5586,4.5586,4.5586,4.5586,4.5586,4.5586,4.4951,4.4432,4.4316,4.2951,4.1681,4.0931,4.0739,4.0662,4.0662,4.0566,4.02,3.9488,3.9354,3.8565,3.6949,3.6947,3.6599,3.5718,3.5899,3.5994,3.5991,3.5996,3.6007,3.5996,3.5996,3.5996,5.4678,5.5646,5.6112,5.4724,5.2932,5.0293,4.5636,4.0414,3.4961,2.9371,2.5463,2.2837,2.213,2.3607,2.6871,3.2826,3.6363,4.0496,4.6665,4.9355,5.108,5.2097,5.346,5.4322,5.4322,5.4322,5.4374,5.4494,5.4391,5.4322,5.4322,5.4443,5.4512,5.4512,5.4512,5.4374,5.4115,5.2994,5.2287,5.2011,5.1237,5.1158,5.1645,5.1825,5.1457,5.0643,5.0497,4.9621,4.8306,4.8306,4.8306,4.8306,4.8419,4.8513,4.8605,4.8732,4.873,4.8558,4.7943,4.707,4.6178,4.5509,4.4711,4.4005,4.4005,4.4005,4.4005,4.4048,4.4221,4.4411,4.4438,4.4676,4.4938,4.5159,4.5243,4.5322,4.555,4.5586,4.5586,4.5586,4.5586,4.5586,4.5586,4.5586,4.5586,4.5586,4.547,4.5105,4.4393,4.347,4.2816,4.2662,4.2008,4.1566,4.1566,4.0912,4.0431,4.0296,3.9662,3.8834,3.7815,3.7276,3.6599,3.5718,3.5899,3.6003,3.5991,3.5992,3.5992,3.6001,3.5995,3.5996,5.4448,5.5548,5.6529,5.5788,5.3583,4.9856,4.3098,3.7667,3.2073,2.5176,2.1854,2.0281,2.0542,2.2201,2.4876,2.899,3.2973,3.7266,4.2236,4.5905,4.9028,5.1373,5.2994,5.408,5.4477,5.4512,5.4512,5.4512,5.4512,5.4512,5.4512,5.4512,5.4512,5.4512,5.4512,5.4322,5.3942,5.3055,5.2434,5.2051,5.1492,5.1365,5.1583,5.1418,5.0985,5.0356,4.9961,4.9208,4.8306,4.8306,4.8363,4.8401,4.8457,4.855,4.8642,4.8732,4.8822,4.8728,4.798,4.7163,4.6364,4.5565,4.4711,4.4005,4.4005,4.4005,4.4005,4.4005,4.4091,4.4192,4.4192,4.4493,4.4825,4.4943,4.5201,4.5438,4.5568,4.5586,4.5586,4.5586,4.5586,4.5586,4.5586,4.5586,4.5586,4.5586,4.5586,4.5451,4.5028,4.4643,4.4066,4.3181,4.2739,4.2297,4.1854,4.1412,4.0969,4.0527,4.0142,3.9354,3.8046,3.7788,3.7055,3.5736,3.5908,3.6005,3.5991,3.6005,3.601,3.5991,3.601,3.5993,5.4194,5.548,5.6731,5.641,5.3704,4.89,4.0443,3.525,2.9888,2.1691,1.9299,1.8944,1.9833,2.0815,2.2426,2.5337,2.8768,3.272,3.7386,4.1857,4.606,4.9942,5.2166,5.3632,5.4218,5.4425,5.4512,5.4512,5.4512,5.4512,5.4512,5.4512,5.4443,5.427,5.427,5.397,5.3316,5.2956,5.2506,5.2073,5.1874,5.175,5.1732,5.1233,5.0677,5.0148,4.9676,4.9013,4.8324,4.8508,4.8566,4.8513,4.855,4.8606,4.8642,4.8768,4.8822,4.8674,4.7742,4.7033,4.6364,4.5565,4.4711,4.4005,4.4005,4.4005,4.4005,4.4005,4.4048,4.4079,4.4079,4.443,4.48,4.4872,4.5243,4.5586,4.5586,4.5586,4.5586,4.5586,4.5586,4.5586,4.5586,4.5586,4.5586,4.5586,4.5586,4.5586,4.5586,4.5586,4.5086,4.3778,4.347,4.3008,4.2162,4.1912,4.1431,4.0546,4.0489,3.9831,3.8349,3.8473,3.7782,3.6029,3.6185,3.6196,3.5991,3.5991,3.6003,3.5995,3.6007,3.601,5.5767,5.6647,5.6478,5.5141,5.1014,4.5483,3.8565,3.2493,2.6725,2.115,1.887,1.8312,1.9731,1.9029,1.9891,2.4982,2.5593,2.8015,3.5476,3.9795,4.3683,4.7562,5.12,5.3425,5.3494,5.4115,5.4512,5.4512,5.4512,5.4512,5.4512,5.4512,5.4201,5.3529,5.3511,5.3342,5.3019,5.2362,5.2198,5.264,5.242,5.2315,5.2361,5.2733,5.2108,5.0739,5.144,5.0395,4.8361,4.9229,4.9157,4.8513,4.8679,4.8787,4.8787,4.8874,4.8909,4.8686,4.7144,4.655,4.6364,4.5565,4.4711,4.4005,4.4005,4.4005,4.4005,4.4005,4.4181,4.4374,4.4374,4.4572,4.4849,4.5096,4.54,4.5586,4.5586,4.5586,4.5586,4.5586,4.5586,4.5586,4.5586,4.5586,4.5586,4.5586,4.5586,4.5586,4.5586,4.5586,4.5528,4.5374,4.4662,4.3855,4.3047,4.2258,4.1431,4.0546,4.0489,4.01,3.9206,3.9366,3.8695,3.7008,3.7102,3.6794,3.5991,3.5991,3.5994,3.5996,3.5993,3.5996,5.076,5.3416,5.5226,5.4194,5.0016,4.4367,3.7618,3.1106,2.5135,2.0331,1.8166,1.7456,1.8504,1.8217,1.8488,2.0645,2.1547,2.4035,2.9863,3.3962,3.8637,4.4853,4.8518,5.133,5.3235,5.408,5.4322,5.3873,5.4253,5.4098,5.3184,5.358,5.3869,5.3885,5.3415,5.3269,5.3476,5.3084,5.2946,5.3194,5.299,5.2868,5.2912,5.3103,5.2325,5.082,5.1132,5.0141,4.8324,4.8693,4.8714,4.855,4.8606,4.8715,4.8839,4.8839,4.8874,4.8667,4.7051,4.6494,4.6271,4.4952,4.437,4.4314,4.4662,4.455,4.425,4.425,4.4411,4.465,4.465,4.5228,4.59,4.6167,4.6301,4.6374,4.6374,4.597,4.5586,4.5586,4.5586,4.5586,4.5586,4.5586,4.5586,4.5586,4.5586,4.5586,4.5586,4.5586,4.5586,4.5586,4.5278,4.4528,4.3201,4.2777,4.1989,4.0585,4.0489,4.0138,3.9326,3.946,3.8993,3.7831,3.7476,3.7126,3.6774,3.6267,3.5991,3.5994,3.5994,3.5996,4.5794,4.9757,5.2858,5.257,4.824,4.2455,3.6349,2.96,2.3477,1.9418,1.7388,1.6593,1.7337,1.7473,1.7557,1.7755,1.8924,2.1326,2.5712,2.9639,3.4322,4.0435,4.4285,4.7596,5.0639,5.2805,5.3888,5.3572,5.3862,5.3628,5.2753,5.3014,5.3306,5.3519,5.3127,5.3087,5.3379,5.3255,5.3269,5.3426,5.3273,5.3206,5.3206,5.2968,5.2105,5.0802,5.0802,4.9848,4.8324,4.864,4.8569,4.8255,4.8532,4.8603,4.8574,4.8765,4.8839,4.8704,4.733,4.6745,4.6432,4.5258,4.4701,4.4635,4.5319,4.505,4.4519,4.4519,4.4701,4.4995,4.5335,4.602,4.6722,4.7145,4.7259,4.7259,4.7259,4.6586,4.6047,4.6278,4.5932,4.5682,4.5932,4.5759,4.5586,4.5586,4.5586,4.5586,4.5586,4.5586,4.5586,4.5586,4.5586,4.5009,4.3585,4.3239,4.247,4.0969,4.0642,4.0254,3.9696,3.9811,3.951,3.8695,3.8034,3.7555,3.7301,3.6423,3.5996,3.6005,3.5995,3.5996,4.2329,4.6326,4.9238,4.9949,4.5094,3.8954,3.4455,2.7689,2.1481,1.8454,1.6644,1.5832,1.658,1.6716,1.6953,1.7693,1.8437,2.0264,2.4181,2.8066,3.1408,3.3802,3.8153,4.2077,4.4899,4.9925,5.3236,5.3744,5.3329,5.3236,5.3744,5.3085,5.2466,5.1961,5.2414,5.2605,5.2397,5.2426,5.2672,5.3225,5.3206,5.3206,5.3188,5.238,5.1573,5.0802,5.0802,4.9848,4.8379,4.9361,4.8864,4.7515,4.8524,4.8407,4.7813,4.8612,4.8909,4.8779,4.798,4.7354,4.6888,4.6869,4.5922,4.4946,4.5761,4.5439,4.4819,4.4819,4.4985,4.5453,4.6589,4.6876,4.7105,4.7913,4.8086,4.8086,4.8086,4.7451,4.7124,4.7932,4.6721,4.5874,4.674,4.6163,4.5586,4.5586,4.5586,4.5586,4.5586,4.5586,4.5586,4.5586,4.5586,4.524,4.4355,4.3566,4.272,4.1835,4.0969,4.0523,4.0588,4.0712,4.0409,3.9606,3.892,3.816,3.7301,3.6423,3.6005,3.5996,3.5996,3.5996,3.2934,3.6258,3.8623,3.835,3.5147,3.1148,2.7688,2.3096,1.9004,1.7043,1.5868,1.5521,1.6624,1.6984,1.7478,1.865,1.8978,2.0164,2.3189,2.7326,3.1742,3.6464,4.4082,4.951,5.0921,5.2555,5.3425,5.3049,5.3336,5.3176,5.2335,5.2902,5.3163,5.3014,5.2641,5.2661,5.2955,5.2955,5.3017,5.3206,5.2637,5.238,5.2344,5.1555,5.0729,4.9958,5.0037,4.945,4.8475,4.8846,4.8402,4.7566,4.7789,4.7469,4.6903,4.7058,4.717,4.7159,4.6489,4.6154,4.5951,4.558,4.5285,4.5132,4.5398,4.5284,4.5096,4.5302,4.5419,4.5687,4.6645,4.7317,4.7932,4.8798,4.899,4.899,4.899,4.8317,4.7798,4.8048,4.7663,4.7221,4.6951,4.6682,4.6297,4.5682,4.5586,4.5586,4.5586,4.5586,4.5586,4.5586,4.5586,4.524,4.4374,4.4066,4.3316,4.1893,4.1546,4.1123,4.0558,4.0693,4.068,4.0427,3.9817,3.9351,3.9078,3.759,3.6581,3.5996,3.5996,3.5996,0.0,2.9334,3.1812,3.1932,2.9489,2.6433,2.3991,2.035,1.7127,1.5941,1.5082,1.4875,1.5972,1.6551,1.7218,1.836,1.9017,2.0162,2.2377,2.6159,3.0949,3.6968,4.4724,4.9988,5.1048,5.2404,5.3153,5.2913,5.3131,5.2844,5.1824,5.2518,5.2781,5.249,5.2599,5.2868,5.3206,5.3206,5.3059,5.2747,5.2234,5.183,5.1518,5.071,5.0068,4.9593,4.9027,4.8513,0.0,4.783,4.7326,4.6675,4.7088,4.6778,4.6203,4.6545,4.6738,4.6742,4.6365,4.6089,4.5861,4.5499,4.5385,4.5342,4.5342,4.5342,4.54,4.555,4.5586,4.5797,4.6682,4.7509,4.8317,4.9183,4.9644,4.9894,4.9894,4.9202,4.8682,4.9029,4.8298,4.7586,4.7394,4.6836,4.622,4.5682,4.5586,4.5586,4.5586,4.5586,4.5586,4.5586,4.5586,4.5374,4.4836,4.4201,4.3528,4.2797,4.187,4.1254,4.1066,4.091,4.0842,4.0862,4.0226,3.9893,3.9893,3.8476,3.7344,3.6484,3.6484,3.6309,0.0,2.4788,2.7641,2.9023,2.6761,2.3846,2.2418,1.892,0.0,1.5097,1.4372,1.4109,1.5027,1.571,1.6448,1.7414,1.8863,2.0406,2.1932,2.5376,3.0044,3.6265,4.1651,4.5403,4.6749,5.0166,5.249,5.2999,5.2634,5.2217,5.194,5.1958,5.1628,5.0839,5.2252,5.3041,5.3041,5.3041,5.2656,5.1903,5.1848,5.1444,5.0692,4.9866,4.9462,4.9315,4.7942,4.7316,4.7279,4.6678,4.6001,4.5454,4.6574,4.6496,4.5829,4.6849,4.7212,4.7193,4.7162,4.6787,4.6326,4.6347,4.6013,4.5586,4.5586,4.5586,4.5586,4.5586,4.5586,4.5797,4.674,4.7509,4.8259,4.9183,4.9971,5.051,5.051,4.9933,4.9644,5.0452,4.8702,4.7298,4.799,4.6759,4.5663,4.5605,4.5586,4.5586,4.5586,4.5586,4.5586,4.5586,4.5586,4.5586,4.5586,4.4162,4.3566,4.4259,4.2094,4.1151,4.1986,4.1305,4.092,4.0985,4.0335,3.9961,3.9902,3.9082,3.8242,3.7383,3.7383,3.6934,1.6052,0.0,1.7666,1.8021,1.7452,1.672,0.0,1.5461,1.4661,0.0,0.0,1.4755,1.6635,1.6801,1.7421,1.9822,2.1052,2.2099,2.3295,3.0602,3.7356,4.1369,4.6267,4.92,4.8925,5.0295,5.1229,5.1371,5.1839,5.1778,5.1132,5.1665,5.1628,5.0839,5.1169,5.1371,5.1371,5.1371,5.1279,5.1077,5.0453,5.005,4.9848,4.9003,4.8269,4.7682,4.7408,4.7459,4.7679,4.7634,4.7646,4.7749,4.8077,4.7659,4.6871,4.6525,4.6373,4.6304,4.5849,4.5595,4.5509,4.5707,4.5704,4.5586,4.5586,4.5586,4.5586,4.5586,4.5586,4.5932,4.7432,4.7509,4.7567,4.9048,4.9048,4.8702,4.8702,4.9067,4.9452,4.9663,4.9221,4.8663,4.8182,4.7259,4.6374,4.5701,4.5586,4.5586,4.5586,4.5586,4.5586,4.5586,4.5586,4.5586,4.5586,4.524,4.4833,4.4405,4.3208,4.236,4.2013,4.1296,4.0928,4.1001,4.0925,4.0566,3.9902,3.9687,3.9141,3.8281,3.8281,3.7832,1.4399,1.4641,1.4888,1.4894,1.4894,1.4894,1.4868,0.0,0.0,0.0,0.0,0.0,1.6391,1.6751,1.7557,1.9849,2.218,2.478,2.7999,3.433,3.985,4.3112,4.6819,4.9389,5.0068,5.0545,5.0802,5.0802,5.1206,5.1096,5.0288,5.0655,5.0508,4.9682,4.9664,5.0031,5.0802,5.0802,5.0618,5.0233,4.9793,4.937,4.8967,4.8311,4.7757,4.7296,4.6828,4.6701,4.6847,4.6629,4.6871,4.7371,4.7124,4.7006,4.6839,4.611,4.5867,4.5812,4.5514,4.5381,4.5419,4.555,4.5586,4.5586,4.5586,4.5586,4.5586,4.5586,4.5586,4.5797,4.6721,4.6932,4.7144,4.8048,4.8163,4.8105,4.8105,4.8471,4.8798,4.8798,4.8509,4.8105,4.7625,4.6855,4.6144,4.5663,4.5586,4.5586,4.5586,4.5586,4.5586,4.5586,4.5586,4.5603,4.564,4.564,4.5464,4.5018,4.3489,4.2598,4.2641,4.1548,4.0984,4.1088,4.115,4.0976,4.0508,4.0508,4.0059,3.9199,3.9199,3.873,1.4417,1.5117,1.5757,1.5486,1.5509,1.5587,1.5533,0.0,0.0,0.0,0.0,0.0,0.0,1.7022,0.0,2.0197,2.3948,2.8457,3.378,3.7367,4.0432,4.3167,4.5736,4.8067,5.005,5.0362,5.0417,5.0417,5.0417,5.0123,4.9426,4.9389,4.9003,4.8141,4.8251,4.8857,5.005,5.0178,4.9829,4.9022,4.9022,4.8675,4.7978,4.7585,4.7367,4.7229,4.6223,4.5844,4.584,4.5249,4.5575,4.633,4.5848,4.6086,4.6661,4.6032,4.5797,4.5778,4.5643,4.5586,4.5586,4.5586,4.5586,4.5586,4.5586,4.5586,4.5586,4.5586,4.5586,4.5624,4.5759,4.624,4.674,4.6874,4.7317,4.7721,4.7721,4.7817,4.7932,4.7932,4.7375,4.6913,4.6913,4.6182,4.5586,4.5586,4.5586,4.5586,4.5586,4.5586,4.5603,4.5603,4.5622,4.564,4.5712,4.5709,4.5728,4.5748,4.3631,4.2657,4.3207,4.1807,4.1078,4.1191,4.1191,4.1191,4.1191,4.1191,4.082,4.0098,4.0098,3.9627,1.4471,1.5643,1.6509,1.4965,1.5098,1.5595,1.5595,0.0,0.0,0.0,0.0,0.0,0.0,2.0475,2.2189,2.5945,2.9908,3.3771,3.7363,4.0675,4.2947,4.3424,4.6232,4.8012,4.7719,4.8288,4.8691,4.8691,4.8691,4.8636,4.8508,4.8508,4.8141,4.7333,4.7957,4.7774,4.6654,4.7333,4.7278,4.6471,4.6471,4.6524,4.6709,4.6605,4.6365,4.5979,4.5875,4.5949,4.6235,4.6096,4.6729,4.7701,4.7665,4.7741,4.776,4.6991,4.6701,4.6586,4.5855,4.5586,4.5586,4.5586,4.5586,4.5586,4.5586,4.5586,4.5586,4.5586,4.5586,4.5759,4.6509,4.624,4.599,4.6721,4.6432,4.597,4.597,4.6567,4.7086,4.7086,4.699,4.6913,4.6913,4.6182,4.5586,4.5586,4.5586,4.5586,4.5586,4.5586,4.5622,4.5693,4.5673,4.5712,4.5767,4.5835,4.5889,4.5951,4.4843,4.367,4.2525,4.1632,4.1171,4.1191,4.1191,4.1191,4.1191,4.1191,4.1133,4.0996,4.0996,4.0489,1.4666,1.5529,1.6488,1.6634,1.6927,1.7158,1.7114,0.0,0.0,0.0,0.0,0.0,0.0,0.0,2.5338,3.1626,3.4787,3.7576,4.0804,4.2561,4.3809,4.469,4.6104,4.704,4.7113,4.7443,4.748,4.704,4.7003,4.7003,4.7003,4.7003,4.6838,4.6471,4.6983,4.6718,4.5515,4.6099,4.6308,4.6168,4.6147,4.6331,4.6681,4.6412,4.6172,4.5963,4.5726,4.5731,4.5875,4.5917,4.6513,4.7357,4.6932,4.7048,4.7355,4.6509,4.6201,4.6144,4.574,4.5586,4.5603,4.5684,4.5715,4.5712,4.5761,4.5769,4.5769,4.5769,4.5677,4.5682,4.6086,4.5893,4.5701,4.6105,4.5893,4.5586,4.5586,4.5913,4.6201,4.6201,4.6201,4.6201,4.6201,4.5874,4.5586,4.5586,4.5586,4.562,4.57,4.5715,4.5731,4.5795,4.581,4.5838,4.5912,4.5938,4.5766,4.5382,4.497,4.4026,4.2363,4.2002,4.1641,4.1211,4.1191,4.1191,4.1191,4.1191,4.1191,4.1191,4.1191,4.0944,1.4804,1.5375,1.6252,1.7441,0.0,1.8826,2.0183,0.0,0.0,0.0,0.0,0.0,0.0,2.5712,2.9288,3.5684,3.8691,4.118,4.3915,4.4549,4.5199,4.6432,4.6414,4.6525,4.7058,4.6948,4.6562,4.5957,4.5736,4.57,4.5883,4.5808,4.575,4.575,4.6234,4.6047,4.5051,4.5538,4.5848,4.5985,4.5991,4.6154,4.642,4.6106,4.5982,4.6012,4.5669,4.5513,4.5513,4.5586,4.599,4.6528,4.5855,4.6009,4.6509,4.5836,4.5586,4.5603,4.5637,4.5654,4.5668,4.5794,4.5815,4.5841,4.5878,4.5899,4.5899,4.5899,4.5777,4.568,4.568,4.568,4.568,4.568,4.568,4.568,4.568,4.568,4.568,4.568,4.568,4.568,4.568,4.568,4.568,4.568,4.568,4.5712,4.5814,4.5827,4.5841,4.5925,4.5917,4.5958,4.6051,4.6053,4.5726,4.4906,4.4696,4.4024,4.2685,4.2295,4.1836,4.1211,4.1191,4.1191,4.1191,4.1191,4.1191,4.1191,4.1182,4.1142,1.4804,1.547,1.6024,1.5342,1.6805,0.0,2.5393,2.6042,0.0,2.9519,0.0,0.0,0.0,3.2351,3.5383,3.6516,4.1229,4.5196,4.6473,4.7663,4.8466,4.8595,4.7927,4.7363,4.7132,4.6434,4.5957,4.5902,4.5223,4.5112,4.5865,4.5475,4.5239,4.5239,4.6293,4.6158,4.4667,4.5339,4.5377,4.4742,4.4742,4.4871,4.5133,4.5167,4.5298,4.5553,4.5587,4.5586,4.5586,4.5586,4.5624,4.5682,4.5605,4.5624,4.5682,4.5605,4.5586,4.562,4.5742,4.5786,4.5794,4.5875,4.5889,4.5889,4.5899,4.5899,4.5899,4.5899,4.5889,4.5878,4.5878,4.5878,4.5878,4.5878,4.5878,4.5878,4.5878,4.5878,4.5878,4.5878,4.5878,4.5878,4.5878,4.5878,4.5878,4.5878,4.5878,4.5875,4.5899,4.5887,4.5925,4.5986,4.5998,4.6046,4.6176,4.6234,4.5905,4.5053,4.422,4.3728,4.3592,4.2109,4.1269,4.1191,4.1191,4.1191,4.1191,4.1191,4.1191,4.1191,4.1151,4.1063,1.4992,1.6352,1.7947,1.8735,0.0,0.0,0.0,0.0,0.0,3.0655,3.2007,0.0,0.0,3.7017,3.9859,3.9914,4.3035,4.5776,4.6719,4.7236,4.7567,4.7567,4.7286,4.6786,4.5978,4.5645,4.5173,4.4469,4.4121,4.4189,4.4687,4.4544,4.4554,4.4777,4.5432,4.5499,4.4919,4.5379,4.5507,4.5222,4.5011,4.5052,4.5322,4.5381,4.5476,4.5568,4.5586,4.5586,4.5586,4.5586,4.5586,4.5603,4.57,4.5752,4.5796,4.5796,4.5796,4.579,4.584,4.5852,4.5875,4.5987,4.6013,4.6041,4.6112,4.6144,4.6144,4.6144,4.6144,4.6105,4.594,4.5899,4.5899,4.5899,4.5899,4.5899,4.5899,4.5899,4.5899,4.5899,4.5899,4.5899,4.5899,4.5894,4.5898,4.5898,4.5906,4.5928,4.6022,4.6025,4.6075,4.6177,4.6186,4.6218,4.627,4.6284,4.6167,4.5835,4.5499,4.459,4.2969,4.2793,4.2266,4.1211,4.1191,4.1191,4.1191,4.1159,4.114,4.114,4.1069,4.0994,1.5099,1.6685,1.8726,0.0,0.0,0.0,0.0,0.0,0.0,3.3737,3.4923,3.559,3.6627,3.9186,4.1196,4.1297,4.3804,4.5969,4.6617,4.6864,4.6977,4.6977,4.6732,4.6242,4.5419,4.5109,4.4625,4.386,4.3823,4.3918,4.4162,4.428,4.4455,4.4682,4.5052,4.5243,4.5243,4.5457,4.5586,4.5586,4.5381,4.5342,4.5531,4.5586,4.5586,4.5586,4.5586,4.5586,4.5603,4.5654,4.5665,4.5688,4.5802,4.5871,4.5899,4.5899,4.5899,4.591,4.594,4.5949,4.5987,4.6112,4.615,4.6181,4.6273,4.63,4.63,4.63,4.63,4.6269,4.6064,4.6033,4.6033,4.6033,4.6033,4.6033,4.6033,4.6033,4.6033,4.6033,4.6033,4.6033,4.6033,4.6036,4.6027,4.6027,4.6033,4.6049,4.6158,4.6162,4.6189,4.6293,4.6307,4.6308,4.6308,4.6308,4.6074,4.5508,4.5742,4.4961,4.2891,4.3125,4.2637,4.123,4.1175,4.1172,4.1172,4.1088,4.1067,4.1074,4.0985,4.0907,1.5113,1.6376,0.0,0.0,0.0,0.0,0.0,0.0,0.0,4.0081,4.0004,3.8743,3.8801,3.8782,3.9048,3.9886,4.3445,4.6182,4.6437,4.6939,4.7276,4.7276,4.6563,4.5949,4.5622,4.4871,4.4438,4.4493,4.4493,4.4546,4.458,4.4919,4.5096,4.5096,4.5362,4.5531,4.5586,4.5531,4.5531,4.5586,4.5586,4.5586,4.5586,4.5586,4.5586,4.5603,4.5603,4.5603,4.562,4.5742,4.5835,4.5899,4.5899,4.5899,4.591,4.591,4.591,4.592,4.6057,4.6098,4.6112,4.6269,4.63,4.63,4.63,4.63,4.63,4.63,4.63,4.63,4.63,4.63,4.63,4.63,4.63,4.63,4.63,4.63,4.63,4.63,4.63,4.63,4.63,4.63,4.6306,4.63,4.6301,4.6297,4.6303,4.63,4.6293,4.6308,4.6308,4.6308,4.6308,4.6289,4.5547,4.3828,4.4512,4.459,4.3711,4.2851,4.2012,4.1211,4.1135,4.1093,4.1093,4.103,4.101,4.0996,4.0868,4.0803,1.6866,0.0,0.0,0.0,0.0,0.0,0.0,0.0,0.0,0.0,3.9891,4.1167,3.9825,4.1641,4.2978,4.1879,4.3847,4.5573,4.564,4.5829,4.5938,4.5894,4.5734,4.5478,4.5155,4.4933,4.4751,4.458,4.4572,4.4657,4.4872,4.503,4.5201,4.5381,4.5495,4.5586,4.5586,4.5586,4.5586,4.5586,4.5586,4.5586,4.5586,4.5586,4.5651,4.5742,4.5742,4.578,4.5815,4.5852,4.5939,4.6041,4.6041,4.6098,4.6181,4.6181,4.6181,4.6181,4.6236,4.624,4.6245,4.6296,4.63,4.63,4.63,4.63,4.63,4.63,4.6261,4.6248,4.629,4.6265,4.623,4.629,4.63,4.63,4.63,4.63,4.63,4.63,4.63,4.6303,4.6295,4.6309,4.6303,4.6306,4.6303,4.6307,4.6307,4.6306,4.6307,4.6308,4.6308,4.6308,4.6308,4.5742,4.5141,4.4584,4.4217,4.3383,4.1992,4.2187,4.1954,4.1148,4.1049,4.1034,4.1035,4.097,4.0909,4.0868,4.0777,4.0706,1.7635,0.0,0.0,0.0,0.0,3.1782,3.452,0.0,0.0,0.0,4.1036,4.2639,4.2136,4.3266,4.4149,4.3683,4.4588,4.5338,4.5339,4.538,4.538,4.5341,4.538,4.5207,4.4658,4.466,4.4486,4.3992,4.3954,4.404,4.4247,4.4593,4.471,4.4551,4.4895,4.5066,4.5066,4.4759,4.4759,4.5066,4.4787,4.4646,4.4665,4.5359,4.5549,4.5318,4.5318,4.5564,4.5987,4.5987,4.6057,4.6181,4.6181,4.624,4.63,4.63,4.63,4.63,4.63,4.6276,4.6267,4.6267,4.6249,4.6211,4.6211,4.6211,4.6211,4.6211,4.6187,4.6161,4.621,4.6184,4.6175,4.6249,4.6276,4.629,4.623,4.6249,4.6249,4.623,4.621,4.6229,4.6264,4.6261,4.6278,4.6297,4.6307,4.6285,4.625,4.6259,4.6255,4.6209,4.6212,4.6212,4.6212,4.5743,4.5119,4.4385,4.3843,4.283,4.1184,4.1844,4.1876,4.1074,4.0995,4.0946,4.092,4.0855,4.0791,4.0731,4.0679,4.0579,1.7884,0.0,0.0,0.0,0.0,0.0,3.6945,3.958,4.1762,4.2164,4.2661,4.3443,4.4819,4.394,4.3559,4.5149,4.5398,4.5399,4.54,4.54,4.5419,4.54,4.5419,4.5132,4.4384,4.4249,4.3922,4.3171,4.3056,4.3035,4.3104,4.3797,4.3855,4.3124,4.3816,4.4182,4.4182,4.3467,4.3467,4.4196,4.3525,4.3221,4.3292,4.486,4.5195,4.4501,4.4511,4.5043,4.5878,4.5878,4.6006,4.6163,4.6085,4.6105,4.6186,4.6186,4.6189,4.6173,4.6251,4.6249,4.6175,4.6097,4.6081,4.6089,4.6011,4.603,4.6108,4.6103,4.6103,4.6098,4.6092,4.6111,4.6103,4.6175,4.623,4.6246,4.6136,4.6147,4.6167,4.6117,4.6089,4.6124,4.6172,4.6191,4.621,4.6268,4.6288,4.6257,4.6208,4.6195,4.6177,4.6099,4.6096,4.6096,4.6096,4.6037,4.5266,4.3591,4.3432,4.2647,4.1054,4.1693,4.173,4.0996,4.0926,4.0842,4.0783,4.0725,4.0654,4.0559,4.0569,4.0422,0.0,2.2288,0.0,0.0,3.4864,3.9427,4.0491,4.1778,4.1835,3.8677,4.1608,4.4475,4.3501,4.4112,4.4897,4.5341,4.5398,4.5399,4.54,4.5457,4.5457,4.5419,4.5495,4.5473,4.5245,4.4648,4.4222,4.403,4.3434,4.3069,4.3104,4.3258,4.3278,4.3104,4.3278,4.3355,4.3355,4.325,4.3255,4.3443,4.3381,4.3374,4.3447,4.3772,4.386,4.3731,4.3857,4.4031,4.4216,4.4216,4.4629,4.5207,4.4524,4.4686,4.5282,4.5282,4.5253,4.5304,4.5987,4.6189,4.6006,4.5328,4.5553,4.5972,4.5294,4.5567,4.6103,4.6091,4.606,4.6036,4.6088,4.6053,4.6026,4.6038,4.6091,4.6144,4.612,4.6117,4.6119,4.6108,4.6104,4.6108,4.6122,4.6115,4.6123,4.6142,4.6142,4.6144,4.6119,4.6116,4.6131,4.6106,4.6087,4.6087,4.6087,4.5466,4.4614,4.3482,4.2782,4.1932,4.0887,4.1064,4.1071,4.0855,4.0791,4.072,4.064,4.0621,4.0515,4.0281,4.03,4.0157,0.0,0.0,0.0,0.0,0.0,3.8711,4.0889,4.1698,4.1603,4.0203,4.2589,4.4759,4.423,4.4843,4.5438,4.5458,4.5438,4.5458,4.5495,4.5532,4.5531,4.5495,4.5203,4.4816,4.4378,4.3588,4.2931,4.2508,4.2085,4.1854,4.1854,4.2258,4.231,4.1962,4.2309,4.2565,4.2634,4.2233,4.2265,4.2673,4.2383,4.2284,4.2359,4.2753,4.3176,4.3571,4.322,4.3317,4.3693,4.3693,4.3967,4.4338,4.3879,4.396,4.4329,4.4337,4.4295,4.4295,4.4752,4.4868,4.4733,4.4286,4.4694,4.5308,4.4841,4.5288,4.5959,4.5966,4.5933,4.5917,4.5944,4.593,4.5896,4.5896,4.5999,4.6075,4.5985,4.6008,4.6019,4.5963,4.5969,4.5988,4.6046,4.6084,4.6104,4.6104,4.6104,4.6085,4.6065,4.6048,4.6027,4.5969,4.5969,4.5969,4.5969,4.5548,4.491,4.402,4.3556,4.2711,4.1422,4.1277,4.107,4.0764,4.0687,4.0559,4.0399,4.0399,4.0281,4.0004,4.0004,3.9882,0.0,0.0,0.0,0.0,3.4331,0.0,3.9507,4.0295,4.082,4.2413,4.3555,4.4466,4.507,4.5198,4.516,4.512,4.5122,4.5139,4.5208,4.5208,4.5208,4.5208,4.4572,4.3879,4.3223,4.2356,4.1547,4.0829,4.0501,4.0328,4.0328,4.0872,4.093,4.0293,4.1067,4.154,4.1674,4.1102,4.1121,4.1676,4.0929,4.0618,4.0704,4.156,4.2435,4.3212,4.2494,4.258,4.3276,4.3276,4.3339,4.3436,4.33,4.3294,4.3362,4.3363,4.3315,4.328,4.3431,4.3453,4.3357,4.3221,4.3808,4.4581,4.4427,4.5045,4.58,4.58,4.58,4.58,4.58,4.58,4.58,4.58,4.593,4.6007,4.5838,4.5877,4.593,4.5819,4.58,4.5838,4.5949,4.6007,4.6046,4.6046,4.6046,4.6027,4.5969,4.5969,4.593,4.58,4.58,4.58,4.5771,4.5771,4.539,4.4534,4.4341,4.3554,4.1928,4.1498,4.1078,4.0583,4.0515,4.0348,4.0119,4.0119,4.0004,3.9754,3.9754,3.9637,0.0,0.0,0.0,0.0,3.4225,3.5856,0.0,0.0,3.8898,3.984,4.1815,4.3388,4.3499,4.3531,4.3531,4.3594,4.3594,4.3625,4.3679,4.3679,4.3679,4.3679,4.3582,4.3466,4.3369,4.2565,4.2003,4.1906,4.0489,3.9636,3.9636,3.9083,3.8714,3.8617,3.9403,3.9869,3.9932,4.0624,4.0649,4.0005,3.9277,3.8934,3.8957,3.9836,4.067,4.1439,4.1322,4.1377,4.1523,4.1523,4.1913,4.2421,4.1722,4.1827,4.239,4.238,4.2337,4.2388,4.3157,4.3376,4.3189,4.2434,4.3285,4.4465,4.3711,4.4562,4.58,4.58,4.58,4.58,4.58,4.58,4.58,4.58,4.5819,4.5819,4.58,4.58,4.5819,4.58,4.58,4.58,4.5819,4.5819,4.5838,4.5838,4.5838,4.5838,4.5819,4.5819,4.5819,4.58,4.58,4.5752,4.5645,4.5629,4.5161,4.4058,4.335,4.2451,4.134,4.0556,4.0098,4.0003,4.0003,3.9963,3.9861,3.9861,3.975,3.9532,3.9532,3.9408,1.7224,0.0,0.0,0.0,3.0687,3.3059,3.4506,3.5543,3.6625,3.8001,3.9124,4.0451,4.2244,4.3015,4.3199,4.2722,4.2634,4.246,4.2004,4.1927,4.1927,4.1927,4.151,4.1218,4.1218,4.0461,3.9966,3.9966,3.9267,3.8839,3.8839,3.8481,3.8324,3.8358,3.8688,3.8926,3.9039,3.9448,3.9453,3.909,3.8746,3.8607,3.8607,3.8998,3.9364,3.9722,4.0229,4.0156,3.9721,4.0214,4.0303,4.0187,4.0804,4.0931,4.0791,4.1296,4.1441,4.1429,4.1796,4.1912,4.1835,4.1448,4.2144,4.3169,4.3266,4.4156,4.522,4.5664,4.58,4.58,4.58,4.58,4.58,4.58,4.5737,4.5692,4.5692,4.5757,4.58,4.58,4.58,4.58,4.58,4.58,4.5766,4.5692,4.5692,4.5661,4.558,4.558,4.558,4.558,4.558,4.5545,4.5493,4.5419,4.515,4.4666,4.3784,4.2843,4.1898,4.0912,4.0178,3.9698,3.9794,3.9754,3.9614,3.9614,3.9513,3.9272,3.9165,3.9045,0.0,0.0,0.0,2.4581,2.7122,2.9735,0.0,3.2921,3.4043,3.5611,3.6137,3.7097,3.9712,4.1322,4.2026,4.1318,4.1205,4.0971,4.033,4.0232,4.0232,4.0232,3.9677,3.9268,3.9268,3.8723,3.8381,3.8381,3.8167,3.7946,3.7732,3.7518,3.7318,3.7118,3.7344,3.761,3.7943,3.8155,3.8275,3.8268,3.8041,3.793,3.7922,3.8137,3.8104,3.7947,3.9062,3.9138,3.852,3.9182,3.9141,3.8836,4.0137,4.0339,3.999,4.0616,4.0817,4.0778,4.0759,4.0746,4.0746,4.0746,4.1306,4.2137,4.3007,4.3877,4.4747,4.5539,4.5723,4.5673,4.5673,4.5623,4.5571,4.5571,4.5488,4.5454,4.5545,4.5629,4.5692,4.5692,4.5692,4.5692,4.5692,4.5692,4.5661,4.5563,4.5545,4.551,4.54,4.54,4.54,4.5342,4.5342,4.5322,4.5222,4.5118,4.503,4.4981,4.4075,4.3128,4.2238,4.1167,4.0188,3.9324,3.9402,3.9427,3.9401,3.935,3.9219,3.9017,3.8755,3.8621,0.0,0.0,0.0,2.3207,2.4962,0.0,0.0,3.0237,3.1148,3.1999,3.2952,3.3893,3.4817,3.7117,3.884,3.8782,3.8782,3.8762,3.8723,3.8704,3.8704,3.8704,3.8665,3.8645,3.8645,3.8606,3.8587,3.8587,3.7822,3.6983,3.6163,3.5341,3.4502,3.3682,3.4459,3.5281,3.6127,3.695,3.7363,3.7363,3.6523,3.6095,3.6066,3.6909,3.6798,3.6036,3.7819,3.8516,3.8416,3.8443,3.8903,3.9538,3.9642,4.0106,4.0732,4.0713,4.07,4.07,4.0635,4.0621,4.0621,4.0621,4.12,4.2068,4.2937,4.3805,4.4673,4.5484,4.5507,4.5323,4.5323,4.5147,4.4957,4.4957,4.4957,4.502,4.5342,4.5419,4.5419,4.5419,4.5419,4.5419,4.5419,4.5419,4.5419,4.5419,4.5419,4.5419,4.54,4.54,4.5342,4.5222,4.5222,4.5074,4.4751,4.4726,4.461,4.4354,4.3521,4.2623,4.1667,4.0626,3.9663,3.8851,3.8603,3.8676,3.9129,3.8921,3.8851,3.8803,3.8332,3.8135,0.0,0.0,0.0,1.9636,2.154,2.3262,2.4211,2.6018,2.7732,2.8575,2.9926,3.1209,3.2014,3.4775,3.6755,3.6189,3.6091,3.5896,3.5349,3.5252,3.5467,3.6033,3.5603,3.5486,3.6033,3.5584,3.5252,3.5252,3.4979,3.4664,3.4351,3.4047,3.3717,3.3412,3.3693,3.4012,3.4333,3.4647,3.4795,3.4795,3.5002,3.5086,3.5084,3.591,3.6102,3.5766,3.6369,3.6643,3.6707,3.7262,3.7622,3.7906,3.9026,3.9644,3.9972,4.0461,4.0654,4.0621,4.0621,4.0588,4.0574,4.045,4.0611,4.0998,4.1701,4.2144,4.268,4.402,4.4363,4.4376,4.4911,4.4979,4.4867,4.4787,4.4762,4.4781,4.4808,4.4962,4.5082,4.5082,4.5082,4.5123,4.5243,4.5163,4.508,4.5074,4.5007,4.4915,4.4833,4.4808,4.4783,4.4751,4.4751,4.4429,4.3596,4.3427,4.304,4.2236,4.1317,4.067,4.0349,3.9465,3.8852,3.8559,3.8446,3.8478,3.8646,3.8572,3.8478,3.8332,3.8,3.7756,1.5229,0.0,0.0,0.0,1.9105,2.0581,2.12,2.3149,2.5063,2.5941,2.7503,2.8986,2.9806,3.1856,3.3515,3.3788,3.4061,3.4061,3.3476,3.3398,3.3612,3.4198,3.3754,3.3639,3.4207,3.3724,3.3376,3.3376,3.3377,3.3258,3.2973,3.2959,3.2831,3.2534,3.2793,3.2929,3.2922,3.3218,3.3378,3.3374,3.3887,3.4139,3.4151,3.4949,3.5121,3.4824,3.5379,3.563,3.5712,3.6291,3.6646,3.6922,3.8061,3.8717,3.9025,3.9552,3.9937,4.013,3.9827,4.0053,4.0396,3.9974,3.9964,4.0253,4.0954,4.1159,4.1521,4.3194,4.3605,4.3725,4.4516,4.4669,4.4587,4.4493,4.4457,4.4448,4.4335,4.4565,4.4781,4.4781,4.4781,4.4806,4.4934,4.4849,4.4776,4.4764,4.4599,4.4438,4.4327,4.424,4.4181,4.414,4.414,4.3725,4.2674,4.2488,4.1991,4.1001,4.0343,3.9874,3.9601,3.8991,3.8525,3.8186,3.8086,3.8018,3.7931,3.8086,3.8068,3.7862,3.7522,3.7167,0.0,0.0,0.0,0.0,1.7813,1.8306,2.0102,2.1784,2.3228,2.4163,2.5707,2.7153,2.8069,2.8244,2.9064,3.1543,3.2695,3.33,3.33,3.3319,3.3339,3.3358,3.3332,3.3338,3.3357,3.3278,3.3227,3.3227,3.3214,3.2877,3.2107,3.2067,3.1665,3.0829,3.1547,3.1958,3.1958,3.2801,3.3213,3.3219,3.317,3.3169,3.3197,3.3983,3.3855,3.3084,3.4781,3.5534,3.5553,3.5591,3.6074,3.6807,3.6807,3.7328,3.8099,3.8111,3.8584,3.9148,3.8296,3.8958,4.0024,3.9184,3.9317,3.9949,4.0802,4.1048,4.1408,4.3038,4.3316,4.3294,4.4139,4.4154,4.3968,4.3986,4.4005,4.4005,4.4005,4.4248,4.4487,4.4487,4.4487,4.4487,4.4487,4.4487,4.4468,4.4487,4.4192,4.3986,4.3986,4.373,4.3553,4.3406,4.3406,4.3006,4.2028,4.1955,4.1608,4.0769,4.0714,4.0367,3.9549,3.9242,3.8654,3.7685,3.7392,3.7182,3.697,3.7449,3.7541,3.7339,3.6869,3.6335,1.5295,0.0,0.0,0.0,0.0,0.0,1.8269,1.9044,2.0183,2.2896,2.3833,2.4633,2.6136,2.6937,2.7581,2.8305,2.9669,3.0645,3.0645,3.1153,3.1743,3.2378,3.1892,3.1758,3.2339,3.1843,3.1474,3.1417,3.1427,3.1309,3.1093,3.1094,3.0974,3.0742,3.0942,3.1053,3.1053,3.1241,3.1341,3.1342,3.192,3.2199,3.2218,3.3034,3.3241,3.301,3.3448,3.4007,3.4642,3.5265,3.6003,3.6727,3.6727,3.7266,3.8017,3.8036,3.8078,3.8178,3.8544,3.8822,3.9066,3.9274,3.9444,3.9575,3.9619,3.9642,3.9866,4.0996,4.1213,4.1493,4.2891,4.3174,4.328,4.3856,4.4005,4.4005,4.4005,4.3923,4.3923,4.4097,4.4128,4.4188,4.4344,4.4067,4.3873,4.3999,4.366,4.3442,4.3442,4.3373,4.3303,4.325,4.325,4.2577,4.0999,4.0836,4.0185,3.8582,3.851,3.8186,3.7529,3.7435,3.7075,3.6399,3.6333,3.6147,3.5916,3.6481,3.6661,3.6457,3.5881,3.5424,1.5332,1.5338,1.5346,1.5332,0.0,0.0,1.6635,1.7444,1.8779,2.1491,2.2057,2.2584,2.4302,2.4458,2.4559,2.5266,2.6535,2.7803,2.891,2.9461,2.9954,3.0447,3.0038,2.9894,3.0367,2.9967,2.9796,3.0095,3.0114,3.0265,3.0646,3.0661,3.0649,3.0665,3.0627,3.0617,3.0617,3.0588,3.0548,3.0548,3.102,3.1221,3.1229,3.2093,3.2261,3.1954,3.2615,3.2961,3.3119,3.4337,3.5321,3.6059,3.6059,3.6335,3.6712,3.6712,3.6852,3.7108,3.7566,3.8057,3.8527,3.8855,3.9127,3.9298,3.9156,3.9101,3.9287,4.0141,4.0624,4.1152,4.2341,4.2366,4.2371,4.342,4.3406,4.324,4.359,4.3529,4.3529,4.3795,4.373,4.3697,4.3814,4.3597,4.3461,4.3545,4.3232,4.2995,4.2995,4.2592,4.2318,4.2318,4.2318,4.1611,3.9894,3.9795,3.9085,3.7332,3.7017,3.6741,3.6381,3.6381,3.6172,3.5742,3.5742,3.5537,3.5191,3.5742,3.5933,3.5705,3.5224,3.4818,1.5401,1.5391,1.54,1.5401,1.5391,0.0,1.5636,1.6749,1.8252,2.0202,2.0456,2.0827,2.2506,2.1608,2.1085,2.2577,2.3632,2.5174,2.7782,2.8238,2.83,2.8281,2.8248,2.8193,2.8189,2.8126,2.8381,2.909,2.9251,2.9631,3.0404,3.0559,3.0598,3.0598,3.053,3.0491,3.0491,3.049,3.0499,3.0499,3.0428,3.0406,3.0425,3.121,3.1129,3.0444,3.1943,3.2127,3.1469,3.2978,3.4146,3.5024,3.5138,3.5054,3.4908,3.4908,3.5344,3.5949,3.6157,3.7049,3.8145,3.8246,3.8656,3.9101,3.9101,3.9101,3.925,3.9954,4.0696,4.1378,4.1871,4.1507,4.1313,4.2649,4.2449,4.214,4.2941,4.3087,4.3142,4.3373,4.3321,4.3214,4.3214,4.316,4.316,4.316,4.2826,4.2634,4.2634,4.1694,4.1029,4.0971,4.1011,4.0348,3.8744,3.8966,3.843,3.6731,3.6216,3.5932,3.582,3.5803,3.5671,3.5369,3.5261,3.5018,3.4529,3.5128,3.5311,3.5085,3.4675,3.4382,1.5401,1.54,1.5402,1.5398,1.54,0.0,1.7178,1.6671,1.6807,1.9949,1.9482,1.9033,2.0769,2.0827,2.0712,2.1027,2.2361,2.4277,2.6894,2.7851,2.8278,2.8229,2.8212,2.8178,2.8118,2.8106,2.814,2.8255,2.8904,2.936,2.9534,3.0211,3.0588,3.052,3.052,3.051,3.0509,3.0439,3.0428,3.0428,3.0414,3.039,3.041,3.0583,3.0465,3.0188,3.0494,3.0829,3.1184,3.1507,3.2533,3.3976,3.4679,3.4926,3.4908,3.4908,3.4905,3.5061,3.6374,3.6911,3.7236,3.8513,3.9007,3.9101,3.9101,3.9101,3.9064,3.8854,3.8847,3.9063,3.953,3.9551,3.9823,4.1323,4.1538,4.1647,4.2477,4.2422,4.2239,4.2302,4.2808,4.3214,4.3214,4.2995,4.2788,4.2788,4.2356,4.2044,4.2044,4.122,4.0471,4.0158,4.0428,3.9754,3.7543,3.8745,3.8641,3.62,3.6481,3.6265,3.5237,3.5174,3.4941,3.435,3.3903,3.3582,3.3511,3.4399,3.4675,3.4284,3.363,3.3303,1.5408,1.5405,1.5402,1.5402,1.5402,0.0,0.0,1.6027,1.6144,1.8759,1.792,1.7237,1.8974,1.8584,1.8293,1.9159,2.0019,2.1305,2.3456,2.5605,2.693,2.6919,2.6864,2.6835,2.6806,2.6803,2.6966,2.731,2.8161,2.8838,2.9282,2.9718,3.0085,3.0398,3.0364,3.0297,3.019,3.0182,3.0136,3.0136,2.974,2.9535,2.9535,2.9535,2.9508,2.9417,2.9821,3.0127,3.0374,3.077,3.1412,3.2238,3.358,3.4293,3.4545,3.4545,3.4498,3.4573,3.5824,3.6428,3.6856,3.8062,3.8702,3.9007,3.9007,3.8855,3.867,3.8436,3.8176,3.8124,3.8617,3.8473,3.8561,3.9961,3.9993,3.9921,4.074,4.0754,4.0771,4.116,4.1581,4.1948,4.2342,4.1971,4.1724,4.2098,4.1435,4.0911,4.0911,3.9983,3.9074,3.8508,3.8987,3.8518,3.66,3.7405,3.7267,3.5577,3.5509,3.5229,3.4561,3.4545,3.4284,3.3646,3.3319,3.2971,3.2633,3.3077,3.3235,3.3093,3.2703,3.2431,1.5644,1.5526,1.5406,1.5406,1.5406,1.5406,0.0,0.0,0.0,1.7202,1.6382,1.5836,1.7241,1.6343,1.5819,1.7048,1.7671,1.8404,1.9597,2.2578,2.4631,2.4612,2.4569,2.4646,2.4995,2.5302,2.5782,2.6412,2.7252,2.8055,2.8714,2.9072,2.9462,2.9966,3.0087,3.0066,2.9896,2.9899,2.9902,2.9902,2.9238,2.8859,2.8707,2.8707,2.8692,2.8679,2.9342,2.9583,2.9608,3.0263,3.0557,3.0785,3.2542,3.3545,3.3993,3.4141,3.4173,3.4284,3.5157,3.5847,3.6517,3.7479,3.8274,3.891,3.8833,3.8566,3.8227,3.8077,3.7789,3.7613,3.7972,3.763,3.7482,3.8666,3.8443,3.8198,3.8968,3.9143,3.9336,3.9983,3.994,4.0167,4.1367,4.0911,4.0569,4.1182,4.0259,3.9565,3.9703,3.8545,3.758,3.7058,3.7478,3.7177,3.5701,3.6058,3.5906,3.4913,3.4497,3.4246,3.4,3.3882,3.3543,3.2971,3.2703,3.2376,3.186,3.1649,3.1721,3.2028,3.1916,3.1634,1.6558,1.5994,1.5409,1.5409,1.5409,1.5409,1.5409,0.0,1.5467,1.5643,0.0,1.5467,1.5663,0.0,0.0,1.4647,1.6494,1.7792,1.7203,1.9409,2.1074,2.1079,2.1012,2.1588,2.3133,2.4624,2.555,2.5627,2.6392,2.6832,2.6822,2.8233,2.8995,2.8869,2.9563,2.9912,2.9902,2.9902,2.9902,2.9902,2.9807,2.939,2.8707,2.8707,2.8609,2.8422,2.8534,2.8877,2.9427,2.9502,2.9986,3.0764,3.2404,3.3069,3.3213,3.3864,3.4124,3.4228,3.5029,3.5373,3.5705,3.7211,3.8245,3.8815,3.8486,3.8277,3.8062,3.7342,3.7058,3.6917,3.6637,3.6478,3.6634,3.7491,3.7629,3.7767,3.8511,3.8684,3.8701,3.8787,3.8012,3.8201,4.1086,4.0699,4.0016,4.0085,3.8992,3.8333,3.8931,3.759,3.6681,3.6904,3.6718,3.5985,3.4448,3.5826,3.609,3.4315,3.4751,3.4662,3.3777,3.314,3.2516,3.2059,3.1477,3.1203,3.1145,3.0553,3.0881,3.189,3.1174,3.0837,1.85,1.8291,1.7788,1.8236,1.8003,1.7397,1.6383,1.5758,1.5407,1.5407,0.0,0.0,0.0,0.0,0.0,0.0,1.5787,1.6343,1.5949,1.6801,1.8224,2.0269,2.0443,2.1068,2.2772,2.2694,2.2924,2.3856,2.4237,2.459,2.4962,2.6986,2.8245,2.8515,2.9297,2.9698,2.9608,2.9608,2.9608,2.9589,2.9101,2.867,2.8351,2.8351,2.8053,2.755,2.8016,2.8367,2.8602,2.8639,2.9101,2.9913,3.1084,3.2126,3.298,3.3284,3.3667,3.4104,3.443,3.4821,3.5331,3.6234,3.6966,3.7428,3.7244,3.7291,3.736,3.7038,3.6741,3.6533,3.6343,3.6301,3.6387,3.6715,3.6801,3.6844,3.6962,3.7004,3.7035,3.7296,3.6941,3.7144,3.8944,3.8798,3.8724,3.9591,3.8689,3.7887,3.7736,3.6936,3.6071,3.5346,3.5546,3.5283,3.4199,3.4702,3.4613,3.3523,3.3323,3.3084,3.2695,3.2351,3.1946,3.1377,3.1013,3.0674,3.0269,2.9532,2.9393,2.9785,2.9538,2.915,2.0993,2.0561,1.9834,2.0937,2.0063,1.8737,1.7937,1.6707,1.5752,1.5752,1.5575,0.0,0.0,0.0,1.5296,1.5071,0.0,1.5273,1.5002,1.5167,1.625,1.8774,1.9447,2.0173,2.1372,2.0817,2.0855,2.203,2.2087,2.247,2.3419,2.5545,2.7127,2.7955,2.9008,2.9492,2.9407,2.9407,2.9407,2.9388,2.8775,2.8327,2.8086,2.8086,2.777,2.7212,2.7599,2.7837,2.8003,2.8059,2.8389,2.896,2.9817,3.0937,3.2121,3.2656,3.3192,3.3677,3.3873,3.4375,3.496,3.5181,3.5634,3.6059,3.5972,3.6109,3.6338,3.6431,3.622,3.6008,3.6008,3.6008,3.5949,3.5847,3.5847,3.5814,3.5671,3.5633,3.5712,3.5991,3.6014,3.6219,3.7136,3.7286,3.7636,3.8703,3.8041,3.7351,3.7039,3.6434,3.5671,3.4797,3.4762,3.4565,3.4048,3.3642,3.3193,3.2718,3.2099,3.1721,3.1592,3.1492,3.1203,3.0629,3.045,3.0086,2.9373,2.8776,2.8182,2.7604,2.7973,2.7762,2.4031,2.2204,2.0704,2.2567,2.0516,1.8451,2.0013,1.8454,1.6659,1.6659,1.5988,1.5396,1.5396,1.5345,1.5057,1.428,1.4805,0.0,0.0,1.4803,1.5345,1.5448,1.6909,1.7891,1.7968,1.9381,2.0318,2.0376,2.0257,2.0824,2.2269,2.3908,2.5445,2.6898,2.8552,2.9407,2.9407,2.9407,2.9407,2.9407,2.937,2.8924,2.8086,2.8086,2.8047,2.7931,2.7172,2.728,2.7999,2.7999,2.8036,2.8128,2.8941,2.9554,3.0225,3.2052,3.2716,3.282,3.3558,3.4108,3.4467,3.4139,3.4577,3.5186,3.4853,3.4779,3.4844,3.5169,3.5232,3.5232,3.5232,3.5232,3.5132,3.4746,3.4644,3.4762,3.5148,3.5224,3.5224,3.5258,3.4994,3.5169,3.6585,3.6884,3.6916,3.6966,3.6636,3.6562,3.7209,3.6076,3.5477,3.6157,3.4716,3.3726,3.3694,3.3033,3.2422,3.1931,3.1592,3.1188,3.0778,3.0464,3.0144,2.9665,2.9665,2.9212,2.8352,2.8287,2.7458,2.5881,2.6841,2.7098,2.61,2.553,2.4701,2.5917,2.4075,2.1836,2.1338,1.9215,1.722,1.6728,1.6331,1.5913,1.542,1.5283,1.5144,1.4873,1.5089,1.5194,0.0,1.51,1.5293,1.5308,1.5807,1.659,1.7682,1.7278,1.7363,1.8432,1.8425,1.902,2.0502,2.2651,2.4783,2.6842,2.7976,2.8831,2.9388,2.9407,2.9407,2.9407,2.9407,2.9258,2.894,2.8676,2.8272,2.7714,2.7172,2.7186,2.7575,2.7416,2.744,2.7666,2.8306,2.8301,2.826,3.0683,3.1783,3.2148,3.2865,3.31,3.3027,3.2926,3.3248,3.3663,3.3532,3.3876,3.4324,3.4426,3.4456,3.4456,3.4456,3.4318,3.4096,3.3955,3.4159,3.432,3.418,3.4518,3.4771,3.4513,3.4234,3.4196,3.4681,3.4977,3.5696,3.7349,3.7464,3.7174,3.6724,3.588,3.5086,3.4573,3.3599,3.2857,3.2516,3.1762,3.1203,3.0881,3.0464,3.0115,3.0007,2.9898,2.9665,2.9289,2.8894,2.8481,2.7868,2.7056,2.6296,2.5603,2.5487,2.537,2.7963,2.7542,2.695,2.8164,2.6376,2.4217,2.3783,2.1743,1.9815,1.9323,1.8416,1.7472,1.6663,1.604,1.5522,1.5177,1.518,1.5206,0.0,1.5196,1.5226,1.5226,1.5255,1.5699,1.6771,1.5836,1.5594,1.6621,1.6599,1.747,1.9582,2.1741,2.4141,2.6823,2.7994,2.8831,2.9388,2.9407,2.9347,2.9283,2.9283,2.9262,2.9178,2.8855,2.8421,2.79,2.7281,2.7079,2.7204,2.6767,2.6846,2.7259,2.7627,2.7567,2.7504,2.9638,3.0959,3.1809,3.2417,3.247,3.2283,3.2161,3.2277,3.2507,3.2507,3.2869,3.3386,3.3938,3.3886,3.3731,3.3888,3.3556,3.309,3.2883,3.3041,3.315,3.291,3.3452,3.386,3.3528,3.3534,3.3618,3.3857,3.4111,3.4897,3.674,3.7036,3.6842,3.6437,3.5455,3.446,3.3696,3.2752,3.1946,3.1377,3.0866,3.0404,3.0083,2.9789,2.9477,2.9198,2.9135,2.8977,2.8662,2.8106,2.7629,2.7216,2.6188,2.5463,2.5063,2.4611,2.4418]},{"header":{"parameterUnit":"m.s-1","parameterCategory":1,"la1":30.6,"la2":29.2853,"lo1":-89.7004,"lo2":-87.6739,"dy":0.0162,"dx":0.0183,"nx":112,"ny":82,"refTime":"2023-09-07T06:00:00:Z","depth":0,"parameterNumber":3,"parameterNumberName":"V-component_of_WINDS"},"data":[0.0,0.0,0.0,0.0,0.0,0.0,0.0,0.0,0.0,0.0,0.0,0.0,0.0,0.0,0.0,0.0,0.0,0.0,0.0,0.0,0.0,0.0,0.0,0.0,0.0,0.0,0.0,0.0,0.0,0.0,0.0,0.0,0.0,0.0,0.0,0.0,0.0,0.0,0.0,0.0,0.0,0.0,0.0,0.0,0.0,0.0,0.0,0.0,0.0,0.0,0.0,0.0,0.0,0.0,0.0,0.0,0.0,0.0,0.0,0.0,0.0,0.0,0.0,0.0,0.0,0.0,0.0,0.0,0.0,0.0,0.0,0.0,0.0,0.0,0.0,0.0,0.0,0.0,0.0,0.0,0.0,0.0,0.0,0.0,0.0,0.0,0.0,0.0,0.0,0.0,0.0,0.0,0.0,0.0,0.0,0.0,0.0171,0.0464,0.0,0.0,0.0,0.0,0.0,0.0,0.0,0.0,0.0,0.0,0.0,0.0,0.0,0.0,0.0,0.0,0.0,0.0,0.0,0.0,0.0,0.0,0.0,0.0,0.0,0.0,0.0,0.0,0.0,0.0,0.0,0.0,0.0,0.0,0.0,0.0,0.0,0.0,0.0,0.0,0.0,0.0,0.0,0.0,0.0,0.0,0.0,0.0,0.0,0.0,0.0,0.0,0.0,0.0,0.0,0.0,0.0,0.0,0.0,0.0,0.0,0.0,0.0,0.0,0.0,0.0,0.0,0.0,0.0,0.0,0.0,0.0,0.0,0.0,0.0,0.0,0.0,0.0,0.0,0.0,0.0,0.0,0.0,0.0,0.0,0.0,0.0,0.0,0.0,0.0,0.0,0.0,0.0,0.0,0.0,0.0,0.0,0.0,0.0,0.0,0.0,0.0,0.0,0.0,0.0,0.0,0.0,0.0,0.0,0.0,0.0164,0.0475,0.0,0.0,0.0,0.0,0.0,0.0,0.0,0.0,0.0,0.0,0.0,0.0,0.0,0.0,0.0,0.0,0.0,0.0,0.0,0.0,0.0,0.0,0.0,0.0,0.0,0.0,0.0,0.0,0.0,0.0,0.0,0.0,0.0,0.0,0.0,0.0,0.0,0.0,0.0,0.0,0.0,0.0,0.0,0.0,0.0,0.0,0.0,0.0,0.0,0.0,0.0,0.0,0.0,0.0,0.0,0.0,0.0,0.0,0.0,0.0,0.0,0.0,0.0,0.0,0.0,0.0,0.0,0.0,0.0,0.0,0.0,0.0,0.0,0.0,0.0,0.0,0.0,0.0,0.0,0.0,0.0,0.0,0.0,0.0,0.0,0.0,0.0,0.0,0.0,0.0,0.0,0.0,0.0,0.0,0.0,0.0,0.0,0.0,0.0,0.0,0.0,0.0,0.0,0.0,0.0,0.0,0.0,0.0,0.0,0.0,0.0081,0.0401,0.0429,0.0,0.0,0.0,0.0,0.0,0.0,0.0,0.0,0.0,0.0,0.0,0.0,0.0,0.0,0.0,0.0,0.0,0.0,0.0,0.0,0.0,0.0,0.0,0.0,0.0,0.0,0.0,0.0,0.0,0.0,0.0,0.0,0.0,0.0,0.0,0.0,0.0,0.0,0.0,0.0,0.0,0.0,0.0,0.0,0.0,0.0,0.0,0.0,0.0,0.0,0.0,0.0,0.0,0.0,0.0,0.0,0.0,0.0,0.0,0.0,0.0,0.0,0.0,0.0,0.0,0.0,0.0,0.0,0.0,0.0,0.0,0.0,0.0,0.0,0.0,0.0,0.0,0.0,0.0,0.0,0.0,0.0,0.0,0.0,0.0,0.0,0.0,0.0,0.0,0.0,0.0,0.0,0.0,0.0,0.0,0.0,0.0,0.0,0.0,0.0,0.0,0.0,0.0,0.0,0.0,0.0,0.0,0.0,0.0,0.0157,0.0518,0.0516,0.0,0.0,0.0,0.0,0.0,0.0,0.0,0.0,0.0,0.0,0.0,0.0,0.0,0.0,0.0,0.0,0.0,0.0,0.0,0.0,0.0,0.0,0.0,0.0,0.0,0.0,0.0,0.0,0.0,0.0,0.0,0.0,0.0,0.0,0.0,0.0,0.0,0.0,0.0,0.0,0.0,0.0,0.0,0.0,0.0,0.0,0.0,0.0,0.0,0.0,0.0,0.0,0.0,0.0,0.0,0.0,0.0,0.0,0.0,0.0,0.0,0.0,0.0,0.0,0.0,0.0,0.0,0.0,0.0,0.0,0.0,0.0,0.0,0.0,0.0,0.0,0.0,0.0,0.0,0.0,0.0,0.0,0.0,0.0,0.0,0.0,0.0,0.0,0.0,0.0,0.0,0.0,0.0,0.0,0.0,0.0,0.0,0.0,0.0,0.0,0.0,0.0,0.0,0.0,0.0,0.0,0.0,0.0,0.0,0.0361,0.1186,0.0775,0.0,0.0,0.0,0.0,0.0,0.0,0.0,0.0,0.0,0.0,0.0,0.0,0.0,0.0,0.0,0.0,0.0,0.0,0.0,0.0,0.0,0.0,0.0,0.0,0.0,0.0,0.0,0.0,0.0,0.0,0.0,0.0,0.0,0.0,0.0,0.0,0.0,0.0,0.0,0.0,0.0,0.0,0.0,0.0,0.0,0.0,0.0,0.0,0.0,0.0,0.0,0.0,0.0,0.0,0.0,0.0,0.0,0.0,0.0,0.0,0.0,0.0,0.0,0.0,0.0,0.0,0.0,0.0,0.0,0.0,0.0,0.0,0.0,0.0,0.0,0.0,0.0,0.0,0.0,0.0,0.0,0.0,0.0,0.0,0.0,0.0,0.0,0.0,0.0,0.0,0.0,0.0,0.0,0.0,0.0,0.0,0.0,0.0,0.0,0.0,0.0,0.0,0.0,0.0,0.0,0.0,0.0,0.0,0.0,0.0356,0.127,0.0,0.0,0.0,0.0,0.0,0.0,0.0,0.0,0.0,0.0,0.0,0.0,0.0,0.0,0.0,0.0,0.0,0.0,0.0,0.0,0.0,0.0,0.0,0.0,0.0,0.0,0.0,0.0,0.0,0.0,0.0,0.0,0.0,0.0,0.0,0.0,0.0,0.0,0.0,0.0,0.0,0.0,0.0,0.0,0.0,0.0,0.0,0.0,0.0,0.0,0.0,0.0,0.0,0.0,0.0,0.0,0.0,0.0,0.0,0.0,0.0,0.0,0.0,0.0,0.0,0.0,0.0,0.0,0.0,0.0,0.0,0.0,0.0,0.0,0.0,0.0,0.0,0.0,0.0,0.0,0.0,0.0,0.0,0.0,0.0,0.0,0.0,0.0,0.0,0.0,0.0,0.0,0.0,0.0,0.0,0.0,0.0,0.0,0.0,0.0,0.0,0.0,0.0,0.0,0.0,0.0,0.0,0.0,0.0,0.0,0.0271,0.0922,0.0,0.0,0.0,0.0,0.0,0.0,0.0,0.0,0.0,0.0,0.0,0.0,0.0,0.0,0.0,0.0,0.0,0.0,0.0,0.0,0.0,0.0,0.0,0.0,0.0,0.0,0.0,0.0,0.0,0.0,0.0,0.0,0.0,0.0,0.0,0.0,0.0,0.0,0.0,0.0,0.0,0.0,0.0,0.0,0.0,0.0,0.0,0.0,0.0,0.0,0.0,0.0,0.0,0.0,0.0,0.0,0.0,0.0,0.0,0.0,0.0,0.0,0.0,0.0,0.0,0.0,0.0,0.0,0.0,0.0,0.0,0.0,0.0,0.0,0.0,0.0,0.0,0.0,0.0,0.0,0.0,0.0,0.0,0.0,0.0,0.0,0.0,0.0,0.0,0.0,0.0,0.0,0.0,0.0,0.0,0.0,0.0,0.0,0.0,0.0,0.0,0.0,0.0,0.0,0.0,0.0,0.0,0.0,0.0,0.0,0.0123,0.0,0.0,0.0,0.0,0.0,0.0,0.0,0.0,0.0,0.0,0.0,0.0,0.0,0.0,0.0,0.0,0.0,0.0,0.0,0.0,0.0,0.0,0.0,0.0,0.0,0.0,0.0,0.0,0.0,0.0,0.0,0.0,0.0,0.0,0.0,0.0,0.0,0.0,0.0,0.0,0.0,0.0,0.0,0.0,0.0,0.0,0.0,0.0,0.0,0.0,0.0,0.0,0.0,0.0,0.0,0.0,0.0,0.0,0.0,0.0,0.0,0.0,0.0,0.0,0.0,0.0,0.0,0.0,0.0,0.0,0.0,0.0,0.0,0.0,0.0,0.0,0.0,0.0,0.0,0.0,0.0,0.0,0.0,0.0,0.0,0.0,0.0,0.0,0.0,0.0,0.0,0.0,0.0,0.0,0.0,0.0,0.0,0.0,0.0,0.0,0.0,0.0,0.0,0.011,0.0,0.0,0.0,0.0,0.0233,0.0767,0.0692,0.0736,0.1075,0.0,0.0,0.0,0.0,0.0,0.0,0.0,0.0,0.0,0.0,0.0,0.0,0.0,0.0,0.0,0.0,0.0,0.0,0.0,0.0,0.0,0.0,0.0,0.0,0.0,0.0,0.0,0.0,0.0,0.0,0.0,0.0,0.0,0.0,0.0,0.0,0.0,0.0,0.0,0.0,0.0,0.0,0.0,0.0,0.0,0.0,0.0,0.0,0.0,0.0,0.0,0.0,0.0,0.0,0.0,0.0,0.0,0.0,0.0,0.0,0.0,0.0,0.0,0.0,0.0,0.0,0.0,0.0,0.0,0.0,0.0,0.0,0.0,0.0,0.0,0.0,0.0,0.0,0.0,0.0,0.0,0.0,0.0,0.0,0.0,0.0,0.0,0.0,0.0,0.0,0.0,0.0,0.0,0.0,0.0,0.0,0.0,0.0,0.0,0.0,0.0,0.0,0.0974,0.0369,0.0,0.0,0.0306,0.0679,0.1045,0.0968,0.1,0.1153,0.0,0.0,0.0,0.0,0.0,0.0,0.0,0.0,0.0,0.0,0.0,0.0,0.0,0.0,0.0,0.0,0.0,0.0,0.0,0.0,0.0,0.0,0.0,0.0,0.0,0.0,0.0,0.0,0.0,0.0,0.0,0.0,0.0,0.0,0.0,0.0,0.0,0.0,0.0,0.0,0.0,0.0,0.0,0.0,0.0,0.0,0.0,0.0,0.0,0.0,0.0,0.0,0.0,0.0,0.0,0.0,0.0,0.0,0.0,0.0,0.0,0.0,0.0,0.0,0.0,0.0,0.0,0.0,0.0,0.0,0.0,0.0,0.0,0.0,0.0,0.0,0.0,0.0,0.0,0.0,0.0,0.0,0.0,0.0,0.0,0.0,0.0,0.0,0.0,0.0,0.0,0.0,0.0,0.0,0.0,0.0,0.0,0.0,0.0,0.0,0.0,0.0,0.1894,0.0839,0.0135,0.015,0.0754,0.1194,0.1095,0.1038,0.0957,0.0791,0.0,0.0,0.0,0.0,0.0,0.0,0.0,0.0,0.0,0.0,0.0,0.0,0.0,0.0,0.0,0.0,0.0,0.0,0.0,0.0,0.0,0.0,0.0,0.0,0.0,0.0,0.0,0.0,0.0,0.0,0.0,0.0,0.0,0.0,0.0,0.0,0.0,0.0,0.0,0.0,0.0,0.0,0.0,0.0,0.0,0.0,0.0,0.0,0.0,0.0,0.0,0.0,0.0,0.0,0.0,0.0,0.0,0.0,0.0,0.0,0.3649,0.3159,0.0,0.0,0.0,0.0,0.0,0.0,0.0,0.0,0.0,0.0,0.0,0.0,0.0,0.0,0.0,0.0,0.0,0.0,0.0,0.0,0.0,0.0,0.0,0.0,0.0,0.0,0.0,0.0,0.0,0.0,0.0,0.0,0.0,0.0,0.0,0.0,0.0,0.0,0.0,0.0,0.0525,0.0718,0.0877,0.0974,0.0803,0.0789,0.1092,0.1069,0.0976,0.0902,0.0932,0.0,0.0,0.0,0.0,0.0,0.0,0.0,0.0,0.0,0.0,0.0,0.0,0.0,0.0,0.0,0.0,0.0,0.0,0.0,0.0,0.0,0.0,0.0,0.0,0.0,0.0,0.0,0.0,0.0,0.0,0.0,0.0,0.0,0.0,0.0,0.0,0.0,0.0,0.0,0.0,0.0,0.0,0.0,0.0,0.0,0.0,0.0,0.0,0.0,0.0,0.0,0.0,0.0,0.0,0.0,0.0,0.0,0.0,0.0,0.4229,0.3899,0.0,0.0,0.0,0.0,0.0,0.0,0.0,0.0,0.0,0.0,0.0,0.0,0.0,0.0,0.0,0.0,0.0,0.0,0.0,0.0,0.0,0.0,0.0,0.0,0.0,0.0,0.0,0.0,0.0,0.0,0.0,0.0,0.0,0.0,0.0,0.0,0.0,0.0,0.0,0.0,0.0161,0.0656,0.1117,0.1229,0.0926,0.0845,0.1072,0.1062,0.099,0.0944,0.0857,0.0,0.0,0.0,0.0,0.0,0.0,0.0,0.0,0.0,0.0,0.0,0.0,0.0,0.0,0.0,0.0,0.0,0.0,0.0,0.0,0.0,0.0,0.0,0.0,0.0,0.0,0.0,0.0,0.0,0.0,0.0,0.0,0.0,0.0,0.0,0.0,0.0,0.0,0.0,0.0,0.0,0.0,0.0,0.0,0.0,0.0,0.0,0.0,0.0,0.0,0.0,0.0,0.0,0.6094,0.606,0.6142,0.6271,0.6327,0.6346,0.5769,0.5393,0.5232,0.4888,0.0,0.0,0.0,0.0,0.0,0.0,0.0,0.0,0.0,0.0,0.0,0.0,0.0,0.0,0.0,0.0,0.0,0.0,0.0,0.0,0.0,0.0,0.3782,0.399,0.39,0.3687,0.3377,0.0,0.0,0.0,0.0,0.0,0.0,0.0,0.0,0.0,0.0,0.0,0.044,0.0775,0.1092,0.1112,0.1116,0.1113,0.1113,0.1059,0.1013,0.0982,0.0881,0.0822,0.0,0.0,0.0,0.0,0.0,0.0,0.0,0.0,0.0,0.0,0.0,0.0,0.0,0.0,0.0,0.0,0.0,0.0,0.0,0.0,0.0,0.0,0.0,0.0,0.0,0.0,0.0,0.0,0.0,0.0,0.0,0.0,0.6501,0.7036,0.0,0.0,0.0,0.0,0.0,0.0,0.0,0.0,0.0,0.0,0.0,0.0,0.0,0.8912,0.9699,0.9373,0.9353,0.9647,0.9606,0.9461,0.9231,0.9606,0.9971,1.019,0.9693,0.0,0.5377,0.5029,0.0,0.0,0.0,0.0,0.0,0.0,0.0,0.0,0.0,0.0,0.0,0.0,0.0,0.0,0.0,0.0,0.0,0.0,0.0,0.0,0.0,0.0,0.4444,0.4651,0.4648,0.4586,0.4597,0.3663,0.2567,0.1514,0.1926,0.2403,0.0,0.0,0.0,0.0,0.0,0.0,0.1505,0.1217,0.1117,0.1114,0.1097,0.1082,0.1082,0.1028,0.0982,0.0891,0.0909,0.0885,0.0885,0.0834,0.0,0.0,0.0,0.0,0.0,0.0,0.0,0.0,0.0,0.0,0.0,0.0,0.0,0.0,0.0,0.0,0.0,0.0,0.0,0.0,0.0,0.0,0.0,0.0,0.0,0.0,0.0,0.0,0.0,0.6717,0.7508,0.7593,0.7731,0.7454,0.0,0.0,0.0,0.0,0.0,0.0,0.0,0.0,0.0,0.937,0.9562,0.9979,1.0733,1.0635,1.0722,1.0978,1.1032,1.1051,1.0997,1.1282,1.1376,1.1531,1.1345,1.0192,0.8556,0.807,0.7412,0.6755,0.0,0.0,0.0,0.0,0.5048,0.4969,0.5133,0.5071,0.488,0.4945,0.0,0.0,0.0,0.0,0.0,0.0,0.0,0.3775,0.3981,0.4278,0.4667,0.5045,0.5203,0.5262,0.533,0.4884,0.4194,0.3134,0.3264,0.3525,0.3211,0.3213,0.0,0.0,0.0,0.2689,0.2701,0.27,0.2682,0.2656,0.2433,0.2132,0.1706,0.1643,0.1401,0.0945,0.0914,0.0898,0.0898,0.0872,0.0842,0.0,0.0,0.0,0.0,0.0,0.0,0.0,0.0,0.0,0.0,0.0,0.0,0.0,0.0,0.0,0.0,0.0,0.0,0.0,0.0,0.0,0.0,0.0,0.0,0.0,0.0,0.0,0.0,0.7671,0.8393,0.8129,0.8693,0.8691,0.0,0.0,0.0,0.0,0.0,0.0,0.9307,0.979,1.0411,1.122,1.1346,1.1578,1.213,1.2188,1.224,1.2423,1.2494,1.2669,1.2838,1.2895,1.292,1.292,1.292,1.2633,1.2138,1.0768,0.959,0.8531,0.8117,0.7584,0.6852,0.6425,0.6049,0.584,0.6233,0.605,0.5703,0.5888,0.5654,0.5259,0.4998,0.0,0.0,0.0,0.0,0.4376,0.4532,0.4804,0.5104,0.5482,0.5714,0.5902,0.5843,0.5897,0.5742,0.4971,0.4839,0.4625,0.4095,0.4073,0.0,0.4412,0.3721,0.3343,0.3771,0.3833,0.3808,0.3792,0.3455,0.3006,0.2447,0.2192,0.1825,0.1239,0.1028,0.0898,0.0898,0.0898,0.0876,0.0831,0.0,0.0,0.0,0.0,0.0,0.0,0.0,0.0,0.0,0.0,0.0,0.0,0.0,0.0,0.0,0.0,0.0,0.0,0.0,0.0,0.0,0.0,0.0,0.0,0.0,0.0,0.0,0.0,0.0,0.8669,1.0278,0.0,0.0,0.0,0.0,0.9029,0.9735,1.0423,1.096,1.1968,1.2892,1.3701,1.4491,1.4825,1.4867,1.5149,1.5179,1.4963,1.4975,1.4892,1.491,1.5257,1.5371,1.5371,1.5371,1.5353,1.5082,1.1905,1.0783,1.0762,0.9005,0.8719,0.9165,0.7343,0.6727,0.6816,0.6534,0.6364,0.6276,0.6599,0.6537,0.6121,0.5638,0.5504,0.0,0.0,0.5145,0.5391,0.5369,0.5713,0.6014,0.588,0.6158,0.6379,0.6324,0.6523,0.666,0.6322,0.5851,0.5334,0.4702,0.0,0.5408,0.4841,0.4589,0.4433,0.4461,0.3989,0.3654,0.3426,0.3416,0.3343,0.3159,0.2504,0.2068,0.1944,0.1314,0.0898,0.0898,0.0898,0.0896,0.0893,0.0836,0.0,0.0,0.0,0.0,0.0,0.0,0.0,0.0,0.0,0.0,0.0,0.0,0.0,0.0,0.0,0.0,0.0,0.0,0.0,0.0,0.0,0.0,0.0,0.0,0.0,0.0,0.0,0.0,1.0737,1.1836,0.0,1.0797,1.0852,1.0882,1.0689,1.1576,1.2512,1.3387,1.3948,1.4461,1.492,1.5372,1.5529,1.536,1.562,1.5704,1.5608,1.5608,1.5608,1.5614,1.5704,1.5753,1.5753,1.5753,1.5656,1.5457,1.4271,1.3165,1.2124,1.1059,1.0473,1.0206,0.9395,0.8862,0.8356,0.8349,0.7807,0.7091,0.696,0.6698,0.6463,0.5989,0.5898,0.5911,0.5657,0.5789,0.5984,0.6001,0.6157,0.6349,0.64,0.6509,0.6575,0.6536,0.66,0.6588,0.6452,0.6264,0.5949,0.5347,0.5507,0.563,0.5329,0.5312,0.5367,0.537,0.5124,0.4874,0.4824,0.4742,0.4486,0.3862,0.3624,0.3061,0.2125,0.1801,0.1432,0.0956,0.0956,0.0956,0.0956,0.0935,0.089,0.0,0.0,0.0,0.0,0.0,0.0,0.0,0.0,0.0,0.0,0.0,0.0,0.0,0.0,0.0,0.0,0.0,0.0,0.0,0.0,0.0,0.0,0.0,0.0,0.0,1.0287,1.1661,1.2011,1.3157,1.3538,1.256,1.2711,1.2874,1.2874,1.3604,1.4364,1.5077,1.536,1.5584,1.5759,1.6109,1.6127,1.5777,1.6121,1.6157,1.5891,1.5982,1.5976,1.5891,1.5982,1.5976,1.5897,1.5988,1.5879,1.5626,1.5535,1.4771,1.3639,1.2686,1.192,1.1308,1.0881,1.0366,0.9841,0.9962,0.926,0.8255,0.788,0.7386,0.6956,0.6539,0.6536,0.6612,0.6441,0.6529,0.6713,0.6621,0.6649,0.6715,0.6765,0.6762,0.6832,0.6879,0.6854,0.6885,0.6789,0.6628,0.6331,0.5767,0.5864,0.5871,0.5558,0.5661,0.5732,0.5732,0.5647,0.5569,0.5518,0.5467,0.5239,0.4634,0.4247,0.3678,0.2873,0.2247,0.175,0.1357,0.127,0.1136,0.0958,0.1007,0.0908,0.0785,0.0,0.0,0.0,0.0,0.0,0.0,0.0,0.0,0.0,0.0,0.0,0.0,0.0,0.0,0.0,0.0,0.0,0.0,0.0,0.0,0.0,0.0,0.0,0.9937,1.1763,1.3076,1.2506,1.4376,1.5336,1.4546,1.5077,1.5529,1.5627,1.587,1.5916,1.5928,1.6169,1.6308,1.6308,1.6815,1.6845,1.6326,1.6827,1.6688,1.5916,1.6175,1.6163,1.5922,1.6181,1.6151,1.5916,1.6193,1.6151,1.5867,1.5614,1.5505,1.5341,1.3786,1.3046,1.2646,1.1668,1.1272,1.1268,1.117,1.0489,0.9579,0.9393,0.8566,0.758,0.7424,0.738,0.738,0.738,0.7485,0.7503,0.7308,0.7297,0.7322,0.6904,0.7111,0.7417,0.7279,0.729,0.737,0.737,0.6956,0.645,0.6031,0.6122,0.6132,0.5691,0.562,0.0,0.5616,0.561,0.5542,0.5452,0.5504,0.5532,0.5435,0.4467,0.3934,0.416,0.2604,0.1795,0.2096,0.1747,0.1351,0.0903,0.0981,0.0926,0.0788,0.0,0.0,0.0,0.0,0.0,0.0,0.0,0.0,0.0,0.0,0.0,0.0,0.0,0.0,0.0,0.0,0.0,0.0,0.0,0.0,0.0,1.5325,1.6103,1.3822,1.5725,1.6957,1.6003,1.744,1.8306,1.8054,1.7188,1.7137,1.7975,1.7508,1.711,1.7079,1.7159,1.7089,1.6869,1.7236,1.7264,1.6925,1.7067,1.7024,1.6802,1.666,1.6549,1.6483,1.6549,1.6435,1.6181,1.6272,1.6151,1.5885,1.5813,1.5674,1.5463,1.4814,1.4424,1.4103,1.3802,1.309,1.2047,1.0587,0.9805,0.9481,0.8531,0.7973,0.7726,0.758,0.7536,0.7536,0.7536,0.7567,0.76,0.7503,0.7473,0.7546,0.7402,0.7473,0.755,0.7493,0.7478,0.737,0.737,0.7125,0.6834,0.6441,0.6576,0.6582,0.6265,0.622,0.623,0.623,0.604,0.581,0.5555,0.5657,0.5596,0.5223,0.5153,0.4863,0.4303,0.3305,0.2577,0.2097,0.1552,0.1154,0.1027,0.1038,0.0955,0.0,0.0,0.0,0.0,0.0,0.0,0.0,0.0,0.0,0.0,0.0,0.0,0.0,0.0,0.0,0.0,0.0,0.0,0.0,0.0,0.0,0.0,1.8331,1.977,1.9031,1.9806,2.0151,1.9361,2.0168,2.0798,2.0477,1.9682,1.9501,2.0186,1.9693,1.9095,1.8715,1.8617,1.8268,1.7718,1.7834,1.7811,1.7541,1.7654,1.7591,1.7365,1.7147,1.7028,1.6924,1.6928,1.6652,1.629,1.6416,1.6254,1.5891,1.5891,1.5801,1.5638,0.0,0.0,0.0,0.0,1.4043,1.3221,1.195,1.1268,1.076,1.0061,0.9204,0.8464,0.8372,0.8062,0.7689,0.7689,0.7736,0.7784,0.7784,0.7736,0.7689,0.7689,0.7689,0.7672,0.7611,0.7529,0.7448,0.7383,0.7248,0.0,0.6853,0.6826,0.6676,0.638,0.6304,0.6264,0.62,0.604,0.5844,0.5613,0.5718,0.5671,0.5348,0.5369,0.0,0.0,0.0,0.3105,0.2395,0.1557,0.0,0.0,0.0,0.1023,0.105,0.0893,0.0,0.0,0.0677,0.0383,0.0,0.0,0.0,0.0,0.0,0.0,0.0,0.0,0.0,0.0,0.0,0.0,0.0,0.0,0.0,0.0,2.1284,2.299,2.4582,2.3844,2.2898,2.2487,2.2774,2.2844,2.2511,2.2253,2.2253,2.248,2.2058,2.1466,2.0665,2.0345,0.0,0.0,0.0,1.8635,1.8281,1.8519,1.8397,1.7802,1.7704,1.759,1.7397,1.7267,1.6988,1.6539,1.6764,1.6551,1.6041,1.6041,1.5922,1.5861,1.5565,1.5155,1.4684,1.4401,1.4298,1.4292,1.4196,0.0,0.0,1.2538,1.125,0.9682,0.9682,0.8914,0.8053,0.8053,0.8045,0.8038,0.8038,0.7926,0.7807,0.779,0.7797,0.7773,0.7631,0.76,0.756,0.7424,0.7258,0.7139,0.7139,0.6922,0.6661,0.64,0.623,0.6081,0.5945,0.5898,0.5817,0.5657,0.5769,0.0,0.5606,0.5369,0.5284,0.5403,0.4388,0.3451,0.2761,0.1635,0.1289,0.1795,0.1274,0.1072,0.1129,0.0881,0.0711,0.0608,0.0606,0.0414,0.0,0.0,0.0,0.0,0.0,0.0,0.0,0.0,0.0,0.0,0.0,0.0,0.0,0.0,0.0,2.2401,2.4665,2.6636,2.7939,2.7903,2.6698,2.3731,2.4558,2.5344,2.5225,2.4134,2.3901,2.5183,2.3934,2.3197,2.3068,2.2383,2.1972,2.1844,2.1713,2.1215,2.0144,2.02,1.972,1.8603,1.8429,0.0,1.8593,1.8305,1.8165,1.8058,1.7887,1.7272,1.6658,1.6658,1.6306,1.5843,1.5366,1.4992,1.4684,1.4401,1.4298,1.4196,1.3318,1.2829,1.2538,1.1755,1.1353,1.1155,1.1155,1.0462,0.0,0.9566,0.88,0.8038,0.8038,0.7926,0.7784,0.7668,0.7729,0.7773,0.7631,0.76,0.759,0.756,0.7333,0.7139,0.7139,0.7092,0.7037,0.698,0.6848,0.6742,0.6715,0.6495,0.624,0.5973,0.6081,0.6013,0.5623,0.5752,0.5817,0.5722,0.4393,0.3244,0.2541,0.1625,0.1196,0.1323,0.1253,0.1108,0.1095,0.091,0.0562,0.0139,0.0133,0.0066,0.0,0.0,0.0,0.0,0.0,0.0,0.0,0.0,0.0,0.0,0.0,1.7935,1.8348,0.0,2.3162,2.4803,2.66,2.8141,2.914,2.9104,2.8264,2.6234,2.6807,2.7131,2.6973,2.6221,2.6105,2.6814,2.6179,2.5447,2.4803,2.4187,2.3634,2.2998,2.2793,2.2168,2.0923,2.0931,2.0364,1.912,1.8765,1.8725,1.8861,1.8596,1.8269,1.8008,1.7862,1.7369,1.6528,1.6421,1.6047,1.5668,1.5403,1.5143,1.4865,1.4449,1.4298,1.4202,1.3709,1.3511,1.3414,1.2926,1.2594,1.2353,1.2147,1.1496,1.0654,0.9962,0.9279,0.8726,0.8137,0.7984,0.7909,0.7838,0.7875,0.7885,0.7736,0.7648,0.76,0.76,0.735,0.7166,0.7244,0.719,0.7139,0.7139,0.7082,0.701,0.6939,0.6729,0.6498,0.6274,0.6257,0.6139,0.5837,0.5874,0.5881,0.5806,0.4715,0.3776,0.2982,0.2183,0.1603,0.1239,0.1166,0.1159,0.1144,0.1014,0.0869,0.0643,0.0212,0.0,0.0,0.0,0.0,0.0,0.0,0.0,0.0,1.6523,1.7257,1.8238,1.965,2.0915,2.1575,2.3556,2.5573,2.705,2.804,2.8874,2.9589,2.9278,2.8838,2.8443,2.8462,2.8379,2.8031,2.8003,2.8003,2.8003,2.793,2.7443,2.6455,2.596,2.5247,2.4277,2.3877,2.3095,2.1964,2.1851,2.1288,2.0046,1.957,1.9366,1.9419,1.8732,1.8244,1.7972,1.7693,1.7251,1.6505,1.6129,1.587,1.5676,1.5517,1.5342,1.5046,1.4558,1.4377,1.437,1.4316,1.4298,1.4298,1.4298,1.3883,1.3347,1.3155,1.2537,1.1639,1.0587,0.9954,0.9454,0.8538,0.8137,0.8031,0.8001,0.7994,0.7963,0.7838,0.7723,0.7641,0.7641,0.7417,0.7258,0.7356,0.7268,0.7177,0.7146,0.7139,0.7099,0.6987,0.6837,0.6685,0.6532,0.6386,0.624,0.6088,0.5962,0.5891,0.5891,0.5152,0.4418,0.3614,0.2806,0.207,0.1258,0.1184,0.1181,0.1175,0.1181,0.1181,0.1249,0.0517,0.0074,1.3383,1.3394,1.4112,1.479,1.601,1.7798,0.0,2.152,2.2025,2.3584,2.4895,2.5803,2.5894,2.7297,2.8737,2.9644,2.9589,2.9599,3.0066,2.947,2.8838,2.8443,2.8709,2.8902,2.8847,2.8847,2.8847,2.8847,2.8526,2.8471,2.8582,2.7555,2.71,2.7332,2.6635,2.5578,2.4437,2.4445,2.3768,2.2523,2.1509,2.109,2.1226,1.9543,1.8964,1.911,1.8098,1.7501,1.7423,1.6637,1.6199,1.615,1.57,1.5342,1.5071,1.4781,1.4666,1.463,1.4383,1.4298,1.4298,1.4298,1.4388,1.4511,1.4481,1.3771,1.2872,1.2746,1.1244,0.971,0.9454,0.8726,0.8004,0.7868,0.7838,0.7831,0.7814,0.7797,0.7787,0.7787,0.7658,0.7509,0.7394,0.7356,0.7299,0.7163,0.7139,0.7136,0.7119,0.6993,0.6844,0.6692,0.6539,0.639,0.6247,0.622,0.621,0.621,0.5428,0.4575,0.3801,0.2953,0.2102,0.1325,0.1325,0.1234,0.1207,0.1234,0.1233,0.1207,0.0771,0.0304,1.6141,1.6039,1.6404,1.8155,1.9457,2.0906,2.3226,2.4106,2.4831,2.6233,2.7297,2.7985,2.7985,2.8718,2.9434,2.9782,2.9498,2.9369,2.9773,2.9149,2.8489,2.8077,2.8168,2.837,2.8618,2.8645,2.8737,2.8966,2.8618,2.8361,2.8278,2.7792,2.749,2.7426,2.7325,2.6583,2.5216,2.5104,2.4423,2.2982,2.1737,2.1247,2.1364,1.9855,1.9065,1.8818,1.7771,1.7355,1.7342,1.6787,1.6424,1.6311,1.6094,1.5858,1.5704,1.498,1.4612,1.4455,1.434,1.4298,1.4298,1.4298,1.4485,1.469,1.4521,1.3872,1.295,1.2221,1.0906,0.9506,0.8844,0.8333,0.8024,0.796,0.7943,0.7943,0.7943,0.7875,0.7838,0.7926,0.7756,0.7604,0.7624,0.756,0.7451,0.7299,0.7197,0.7139,0.7139,0.7017,0.6834,0.6593,0.6437,0.6325,0.6345,0.6338,0.6338,0.6338,0.5948,0.5395,0.4533,0.3677,0.2898,0.2041,0.1571,0.1251,0.1239,0.1251,0.1251,0.1239,0.1094,0.0622,1.7479,1.7768,1.8515,2.0989,2.2566,2.3904,2.5427,2.6389,2.7242,2.8232,2.8911,2.9314,2.9314,2.9553,2.9745,2.9745,2.9406,2.9204,2.9388,2.8718,2.7985,2.7343,2.7169,2.727,2.7682,2.8022,2.8342,2.8627,2.8489,2.826,2.7957,2.7939,2.7811,2.7517,2.7682,2.7223,2.5909,2.6005,2.5414,2.414,2.289,2.2322,2.2314,2.0473,1.9176,1.8337,1.7609,1.7279,1.7279,1.6955,1.6743,1.6537,1.6324,1.6291,1.6083,1.5209,1.4805,1.4594,1.4377,1.4298,1.4298,1.4298,1.4437,1.4564,1.4358,1.3934,1.3144,1.1996,1.0918,0.9867,0.8737,0.8268,0.8092,0.8052,0.8038,0.8038,0.8038,0.795,0.7909,0.8018,0.7868,0.774,0.7801,0.7726,0.7594,0.74,0.7275,0.7187,0.7146,0.7017,0.6844,0.662,0.6468,0.6366,0.6322,0.6318,0.6302,0.6342,0.6338,0.5944,0.5004,0.4222,0.3365,0.2511,0.1728,0.1335,0.1335,0.1335,0.1257,0.11,0.1257,0.0943,1.5996,1.7474,1.9515,2.219,2.4693,2.6784,2.8003,2.8893,2.9589,3.0039,3.0149,3.0167,3.0167,3.0176,3.0176,3.0176,2.9828,2.9424,2.9048,2.8297,2.7343,2.616,2.5674,2.5601,2.5995,2.7095,2.7792,2.7801,2.8168,2.8388,2.837,2.837,2.837,2.8361,2.7976,2.7572,2.7178,2.7554,2.7545,2.7039,2.5891,2.5309,2.5162,2.1765,1.9424,1.8043,1.7722,1.7582,1.7582,1.7279,1.7179,1.7073,1.6537,1.6169,1.5842,1.5591,1.5469,1.5348,1.4564,1.4298,1.4298,1.4298,1.4304,1.4304,1.4298,1.4298,1.4016,1.2926,1.2008,1.1029,0.985,0.8948,0.8225,0.8075,0.8038,0.8038,0.8038,0.8035,0.8035,0.8038,0.8031,0.798,0.7834,0.7807,0.7706,0.7414,0.7366,0.7312,0.716,0.7017,0.6926,0.6915,0.6776,0.6627,0.6478,0.6464,0.6407,0.6271,0.6338,0.5944,0.5004,0.4222,0.3365,0.2511,0.1728,0.1335,0.1335,0.1335,0.11,0.0628,0.11,0.1257,1.9187,2.1123,2.3192,2.574,2.8051,2.9746,3.0185,3.0983,3.1382,3.0341,2.9342,2.8342,2.7536,2.6729,2.6454,2.726,2.7499,2.7921,2.8847,2.8278,2.7315,2.6105,2.5839,2.55,2.4831,2.5858,2.6903,2.771,2.7893,2.7976,2.7976,2.8242,2.8397,2.8397,2.8507,2.8379,2.7985,2.7838,2.7563,2.7169,2.5655,2.4165,2.2557,2.0995,1.9619,1.831,1.7802,1.7582,1.7582,1.7483,1.7384,1.7179,1.6743,1.648,1.6411,1.5737,1.5499,1.5409,1.4787,1.4455,1.4298,1.4298,1.4298,1.4298,1.4298,1.3806,1.3022,1.195,1.1025,0.9983,0.884,0.8275,0.8102,0.8052,0.8038,0.8038,0.8038,0.8038,0.8038,0.8038,0.8038,0.8024,0.797,0.7963,0.7862,0.7567,0.735,0.72,0.7146,0.7017,0.6929,0.6929,0.6793,0.6678,0.6627,0.6529,0.6451,0.6403,0.6315,0.618,0.5867,0.4533,0.3675,0.3366,0.204,0.1335,0.1335,0.1021,0.0786,0.0628,0.0471,0.0786,2.1424,2.401,2.6506,2.904,3.1319,3.2871,3.2779,3.2923,3.2468,3.0376,2.8604,2.6874,2.5264,2.3984,2.3616,2.4988,2.5197,2.594,2.7856,2.7426,2.6674,2.6032,2.5839,2.55,2.4858,2.55,2.6279,2.7059,2.7517,2.7765,2.7765,2.8297,2.8599,2.8599,2.8847,2.8792,2.8397,2.8122,2.7792,2.738,2.6323,2.4532,2.2002,2.1337,2.0106,1.8464,1.7963,1.7689,1.7582,1.7582,1.7483,1.7279,1.6955,1.6851,1.6642,1.5976,1.5621,1.5294,1.4865,1.4533,1.4298,1.4298,1.4298,1.4298,1.4298,1.3806,1.3022,1.156,1.0681,0.9801,0.8333,0.8038,0.8038,0.8038,0.8038,0.8038,0.8038,0.8038,0.8038,0.8038,0.8038,0.8038,0.8038,0.7994,0.7892,0.7702,0.7417,0.7204,0.7146,0.7061,0.7004,0.7004,0.6915,0.6837,0.6787,0.6692,0.6586,0.6478,0.6386,0.6315,0.6342,0.4691,0.383,0.383,0.2117,0.1335,0.1335,0.0864,0.055,0.0393,0.0157,0.0471,2.294,2.625,2.9446,3.2041,3.4268,3.5755,3.5463,3.4448,3.2803,2.9759,2.7709,2.5701,2.3345,2.1961,2.1748,2.3333,2.3275,2.3868,2.6334,2.6013,2.5647,2.5977,2.5693,2.5592,2.5931,2.5995,2.6023,2.6023,2.7105,2.7774,2.7792,2.8544,2.8984,2.8984,2.8984,2.8801,2.8425,2.8388,2.815,2.7737,2.7719,2.6224,2.355,2.2871,2.1061,1.8477,1.8176,1.7869,1.7582,1.7582,1.7582,1.7582,1.7279,1.6955,1.663,1.6424,1.578,1.5089,1.4841,1.4558,1.4298,1.4298,1.4298,1.4298,1.4298,1.4298,1.3908,1.1853,1.1268,1.0681,0.8627,0.8038,0.8038,0.8038,0.8038,0.8038,0.8038,0.8038,0.8038,0.8038,0.8038,0.8038,0.8038,0.7919,0.7821,0.7814,0.7573,0.7336,0.7173,0.7146,0.7139,0.7139,0.7139,0.7085,0.6953,0.6932,0.6803,0.6515,0.6481,0.6413,0.6355,0.4693,0.383,0.383,0.2117,0.1335,0.1335,0.0864,0.0393,0.0,0.0,0.0471,2.8123,3.0776,3.3132,3.5104,3.6447,3.6735,3.4523,3.3495,3.1653,2.6894,2.4011,2.1525,1.8826,1.8536,1.9288,2.1151,2.3082,2.5161,2.7591,2.7756,2.7435,2.693,2.6774,2.6518,2.6004,2.6509,2.6866,2.6866,2.7426,2.7902,2.8214,2.8709,2.8984,2.8984,2.8984,2.8938,2.8838,2.8232,2.7728,2.7325,2.7031,2.5576,2.3093,2.2649,2.1061,1.8477,1.8176,1.7869,1.7582,1.7582,1.7582,1.7582,1.7279,1.6955,1.663,1.6424,1.5897,1.539,1.5324,1.4859,1.4298,1.4298,1.4298,1.4298,1.4298,1.4298,1.4004,1.2732,1.1755,1.0881,0.9509,0.8627,0.8038,0.8038,0.8038,0.8038,0.8038,0.8038,0.8038,0.8038,0.8038,0.8038,0.8038,0.8007,0.7943,0.7828,0.7746,0.7604,0.7346,0.721,0.7139,0.7139,0.7139,0.7126,0.7088,0.699,0.6895,0.6817,0.66,0.6458,0.642,0.4734,0.383,0.383,0.2117,0.1335,0.1335,0.1178,0.0707,0.0,0.0,0.0157,2.9833,3.2383,3.4612,3.5582,3.6632,3.6492,3.3348,3.1803,2.9349,2.362,2.0771,1.8555,1.617,1.5998,1.6961,1.9385,2.1429,2.3629,2.6417,2.7105,2.7352,2.7426,2.76,2.7536,2.7068,2.7444,2.7783,2.7957,2.8012,2.8141,2.8388,2.8764,2.8984,2.8984,2.8984,2.881,2.8452,2.8177,2.7746,2.7178,2.6949,2.5936,2.3981,2.3447,2.1822,1.9229,1.8916,1.8283,1.7582,1.7582,1.7582,1.7582,1.7483,1.7166,1.6849,1.6636,1.6144,1.5713,1.5499,1.5052,1.4479,1.4479,1.4395,1.4298,1.4298,1.4298,1.41,1.3022,1.2242,1.1658,1.0583,0.9509,0.8726,0.8726,0.8333,0.8038,0.8038,0.8038,0.8038,0.8038,0.8038,0.8038,0.8038,0.8038,0.8011,0.7923,0.7851,0.775,0.7587,0.7377,0.7214,0.7146,0.7139,0.7139,0.7139,0.7068,0.6997,0.6932,0.6766,0.6614,0.6478,0.4795,0.3953,0.4148,0.2275,0.1335,0.1335,0.1335,0.0864,0.0,0.0,0.0,3.0325,3.271,3.4755,3.4945,3.5746,3.5446,3.1847,2.9559,2.6483,2.0333,1.7907,1.636,1.4523,1.4202,1.5175,1.8146,1.9418,2.1145,2.4409,2.5592,2.6536,2.7636,2.8187,2.8471,2.8471,2.8471,2.8618,2.8957,2.8663,2.8471,2.8471,2.8792,2.8984,2.8984,2.8984,2.8645,2.7939,2.8177,2.7957,2.7251,2.703,2.6287,2.5006,2.4234,2.2408,2.0092,1.9693,1.8837,1.7582,1.7582,1.7582,1.7582,1.7582,1.7378,1.7067,1.6736,1.638,1.5866,1.5615,1.5179,1.4763,1.4727,1.4527,1.4298,1.4298,1.4298,1.41,1.3216,1.2829,1.2533,1.1658,1.0587,0.9805,0.9608,0.8924,0.8137,0.8038,0.8038,0.8038,0.8038,0.8038,0.8038,0.8038,0.8038,0.8038,0.8038,0.7926,0.7834,0.7814,0.7573,0.735,0.7217,0.7183,0.717,0.717,0.7153,0.7088,0.6963,0.6939,0.68,0.6515,0.4864,0.417,0.4623,0.2353,0.1257,0.1335,0.1178,0.0786,0.0157,0.0079,0.0,3.3343,3.4603,3.5404,3.6221,3.5703,3.3923,2.9778,2.6877,2.3471,1.7823,1.5528,1.4132,1.2841,1.3288,1.4895,1.8009,1.9641,2.1646,2.4812,2.6243,2.716,2.7701,2.8425,2.8883,2.8883,2.8883,2.8911,2.8975,2.892,2.8883,2.8883,2.8948,2.8984,2.8984,2.8984,2.8911,2.8773,2.8177,2.7801,2.7655,2.5966,2.4538,2.34,2.2266,2.0659,1.8809,1.8755,1.8306,1.7582,1.7582,1.7582,1.7582,1.7384,1.706,1.6736,1.6424,1.6187,1.5895,1.5578,1.5294,1.5004,1.4787,1.4527,1.4298,1.4298,1.4298,1.4298,1.41,1.3414,1.263,1.2533,1.1658,1.0685,0.9805,0.941,0.9118,0.8237,0.8038,0.8038,0.8038,0.8038,0.8038,0.8038,0.8038,0.8038,0.8038,0.8018,0.7953,0.7828,0.7665,0.755,0.7522,0.7407,0.7329,0.7329,0.7214,0.7129,0.7105,0.6993,0.6848,0.6668,0.4907,0.417,0.4623,0.2038,0.0943,0.1335,0.055,0.055,0.1021,0.0314,0.0,3.2554,3.3377,3.4134,3.4522,3.3482,3.1153,2.6411,2.3423,2.0139,1.483,1.3002,1.2246,1.192,1.2561,1.386,1.5987,1.7903,2.0024,2.2575,2.4537,2.6068,2.7315,2.8177,2.8755,2.8966,2.8984,2.8984,2.8984,2.8984,2.8984,2.8984,2.8984,2.8984,2.8984,2.8984,2.8883,2.8682,2.7472,2.6716,2.6521,2.4699,2.3544,2.2966,2.2224,2.0989,1.9456,1.9178,1.8521,1.7582,1.7582,1.7483,1.7378,1.7279,1.6955,1.663,1.6424,1.6217,1.6068,1.559,1.5324,1.5065,1.4805,1.4527,1.4298,1.4298,1.4298,1.4298,1.4298,1.3902,1.3511,1.3511,1.2339,1.1072,1.0583,0.9608,0.8627,0.8137,0.8038,0.8038,0.8038,0.8038,0.8038,0.8038,0.8038,0.8038,0.8038,0.8038,0.8014,0.794,0.7872,0.777,0.7614,0.7536,0.7458,0.738,0.7302,0.7224,0.7146,0.7078,0.6939,0.6709,0.5059,0.414,0.4151,0.1882,0.0864,0.1335,0.0864,0.0629,0.0628,0.0629,0.0471,3.1289,3.2031,3.2754,3.2568,3.1006,2.8232,2.335,2.0352,1.7256,1.2586,1.1143,1.0937,1.1508,1.1837,1.2559,1.4117,1.5782,1.7673,2.0088,2.2373,2.4619,2.6554,2.7737,2.8517,2.8828,2.8938,2.8984,2.8984,2.8984,2.8984,2.8984,2.8984,2.8948,2.8856,2.8856,2.8546,2.7902,2.6548,2.5609,2.4977,2.3368,2.2636,2.2628,2.2012,2.1121,1.988,1.9693,1.8814,1.7589,1.7655,1.7437,1.7179,1.7073,1.6855,1.663,1.6318,1.6217,1.6168,1.5627,1.5282,1.5065,1.4805,1.4527,1.4298,1.4298,1.4298,1.4298,1.4298,1.41,1.4004,1.4004,1.2635,1.117,1.0877,0.941,0.8038,0.8038,0.8038,0.8038,0.8038,0.8038,0.8038,0.8038,0.8038,0.8038,0.8038,0.8038,0.8038,0.8038,0.8038,0.795,0.7719,0.7665,0.7584,0.7434,0.739,0.7305,0.7149,0.7139,0.6934,0.6676,0.5236,0.4138,0.3628,0.1817,0.1027,0.1335,0.1335,0.0943,0.0314,0.0786,0.0629,3.2197,3.2705,3.2607,3.1836,2.9453,2.626,2.2266,1.876,1.5508,1.2273,1.0949,1.0626,1.1449,1.0986,1.1368,1.3991,1.4259,1.5449,1.9062,2.1383,2.3349,2.5289,2.7224,2.8407,2.8443,2.8773,2.8984,2.8984,2.8984,2.8984,2.8984,2.8984,2.8819,2.8462,2.8452,2.7768,2.629,2.568,2.4897,2.3713,2.2116,2.1402,2.1288,2.0242,1.9353,1.8719,1.885,1.8467,1.7602,1.7554,1.7407,1.7179,1.6643,1.6324,1.6324,1.5998,1.5891,1.5819,1.5318,1.5125,1.5065,1.4805,1.4527,1.4298,1.4298,1.4298,1.4298,1.4298,1.3613,1.2829,1.2829,1.2047,1.0974,0.9998,0.8825,0.8038,0.8038,0.8038,0.8038,0.8038,0.8038,0.8038,0.8038,0.8038,0.8038,0.8038,0.8038,0.8038,0.8038,0.8038,0.8028,0.8001,0.7875,0.7733,0.759,0.7451,0.7305,0.7149,0.7139,0.6981,0.6649,0.562,0.4409,0.2994,0.1863,0.1285,0.1335,0.1335,0.1257,0.1178,0.0471,0.0079,2.9307,3.084,3.1885,3.1289,2.8877,2.5615,2.1719,1.7959,1.4512,1.1738,1.0488,1.0078,1.0684,1.0518,1.0674,1.174,1.2129,1.3323,1.6384,1.8536,2.0978,2.41,2.6069,2.7437,2.8306,2.8755,2.8883,2.8645,2.8847,2.8764,2.8278,2.8489,2.8192,2.7308,2.707,2.6269,2.4936,2.3773,2.3021,2.2443,2.0873,2.0162,2.0046,1.9591,1.9045,1.8497,1.8611,1.825,1.7589,1.7603,1.737,1.6955,1.6855,1.6537,1.6105,1.6105,1.5998,1.5813,1.5288,1.5107,1.5034,1.4606,1.399,1.3443,1.4296,1.394,1.3318,1.3318,1.263,1.1755,1.1755,1.1067,1.0071,0.9078,0.8477,0.8177,0.8177,0.8106,0.8038,0.8038,0.8038,0.8038,0.8038,0.8038,0.8038,0.8038,0.8038,0.8038,0.8038,0.8038,0.8038,0.8038,0.7984,0.7851,0.7617,0.7543,0.7404,0.7156,0.7139,0.6987,0.6757,0.537,0.4012,0.2728,0.18,0.1296,0.1284,0.1266,0.1335,0.1257,0.0393,0.0,2.6306,2.8583,3.0518,3.0351,2.7851,2.4512,2.0986,1.709,1.3555,1.1211,1.0039,0.958,1.001,1.0088,1.0137,1.0302,1.0816,1.2004,1.4326,1.6345,1.8733,2.1841,2.3795,2.5307,2.6361,2.7488,2.7903,2.7149,2.7741,2.7768,2.6734,2.6867,2.6723,2.6248,2.5625,2.4614,2.3348,2.2195,2.1387,2.1045,1.9918,1.9366,1.9366,1.9279,1.8965,1.849,1.849,1.8143,1.7589,1.7463,1.708,1.6615,1.6711,1.638,1.5783,1.608,1.6105,1.5825,1.5378,1.4963,1.4529,1.4161,1.3241,1.2483,1.3424,1.3024,1.2242,1.2242,1.156,1.0699,1.0362,0.9887,0.9188,0.8525,0.8333,0.8333,0.8333,0.8214,0.8119,0.816,0.8099,0.8055,0.8099,0.8069,0.8038,0.8038,0.8038,0.8038,0.8038,0.8038,0.8038,0.8038,0.8038,0.7936,0.7685,0.7624,0.7489,0.7224,0.7166,0.7007,0.691,0.5684,0.4502,0.3215,0.1993,0.1311,0.1303,0.1272,0.1178,0.0864,0.0314,0.0,2.3827,2.6478,2.8428,2.8838,2.6035,2.249,1.9893,1.5986,1.2402,1.0654,0.9609,0.9141,0.9524,0.9602,0.9738,1.0215,1.0645,1.1582,1.3542,1.5477,1.7142,1.8258,2.0393,2.1787,2.1778,2.435,2.5535,2.4351,2.5294,2.5535,2.4351,2.3913,2.4187,2.5343,2.4302,2.2874,2.1303,2.1181,2.0615,1.9372,1.9366,1.9366,1.9359,1.9065,1.8771,1.849,1.849,1.8143,1.7609,1.7358,1.6825,1.6245,1.6001,1.5728,1.5535,1.5795,1.5891,1.5849,1.559,1.4591,1.3556,1.355,1.252,1.1311,1.1516,1.1434,1.1175,1.1175,1.0489,0.9454,0.853,0.8371,0.8306,0.8448,0.8479,0.8479,0.8479,0.8367,0.8309,0.8452,0.8238,0.8089,0.8241,0.814,0.8038,0.8038,0.8038,0.8038,0.8038,0.8038,0.8038,0.8038,0.8038,0.7977,0.7821,0.7682,0.7533,0.7377,0.7224,0.7054,0.6792,0.6996,0.631,0.4688,0.2551,0.1333,0.1303,0.1272,0.0864,0.0,0.0,0.0,1.7975,1.9995,2.1409,2.1258,1.9382,1.7088,1.5111,1.2475,1.0105,0.8967,0.8305,0.8209,0.9168,0.9078,0.9147,1.0021,1.0358,1.0835,1.1879,1.3999,1.6086,1.7686,2.0908,2.3087,2.334,2.4228,2.4488,2.3897,2.4447,2.4374,2.3438,2.2729,2.2566,2.2914,2.2345,2.1276,1.9931,1.9931,1.9822,1.9366,1.9158,1.9065,1.9052,1.8764,1.8464,1.8183,1.7965,1.7633,1.7285,1.6938,1.6548,1.6031,1.6106,1.5768,1.524,1.5517,1.5554,1.5209,1.4213,1.3562,1.3068,1.2213,1.1081,1.0109,1.0169,1.0143,0.9998,0.9217,0.8726,0.8468,0.833,0.8343,0.8452,0.8604,0.8638,0.8638,0.8638,0.852,0.8428,0.8472,0.8404,0.8326,0.8279,0.8231,0.8163,0.8055,0.8038,0.8038,0.8038,0.8038,0.8038,0.8038,0.8038,0.7977,0.7824,0.777,0.7638,0.7387,0.7326,0.7251,0.6969,0.6263,0.5536,0.5053,0.261,0.1374,0.1365,0.0738,0.0239,0.0,0.0,0.0,0.0,1.5597,1.7093,1.7158,1.5762,1.3981,1.2622,1.0481,0.8633,0.7904,0.7438,0.7416,0.8359,0.8388,0.8538,0.9355,0.9742,1.0162,1.0793,1.2618,1.4597,1.675,1.9447,2.1347,2.18,2.265,2.2836,2.2052,2.269,2.2567,2.1466,2.0952,2.0658,2.0544,2.0587,2.0162,1.9366,1.9366,1.9312,1.9199,1.9011,1.8865,1.8751,1.8457,1.8223,1.7928,1.7482,1.7179,0.0,1.6469,1.595,1.5617,1.53,1.4861,1.4346,1.423,1.4066,1.3846,1.2967,1.2349,1.1754,1.1028,0.9958,0.9019,0.9019,0.9019,0.8825,0.8237,0.8038,0.8075,0.8231,0.8377,0.852,0.8672,0.8754,0.8798,0.8798,0.8676,0.8584,0.8645,0.8516,0.8391,0.8357,0.8258,0.815,0.8055,0.8038,0.8038,0.8038,0.8038,0.8038,0.8038,0.8038,0.8001,0.7906,0.7794,0.7675,0.7546,0.7289,0.7182,0.7241,0.6388,0.5922,0.5925,0.2637,0.087,0.087,0.0252,0.0,0.0,0.0,0.0,0.0,1.2698,1.462,1.5432,1.4154,1.248,1.167,0.9588,0.0,0.7363,0.6932,0.6805,0.7329,0.762,0.7978,0.8493,0.8997,0.957,1.0227,1.1431,1.3142,1.5487,1.6617,1.7428,1.8062,1.9888,2.0544,1.9421,2.0336,2.0437,1.8905,1.8911,1.8791,1.8504,1.9018,1.9305,1.9305,1.9305,1.9165,1.8891,1.8871,1.8724,1.845,1.815,1.8003,1.7949,1.7095,1.6756,1.6626,1.5732,1.5169,1.4769,1.3796,1.3223,1.2925,1.2225,1.199,1.1986,1.1868,1.1017,0.9953,0.9851,0.9048,0.8038,0.8038,0.8038,0.8038,0.8038,0.8038,0.8075,0.8241,0.8377,0.8509,0.8672,0.8811,0.8906,0.8906,0.8804,0.8754,0.8896,0.8587,0.834,0.8462,0.8245,0.8052,0.8041,0.8038,0.8038,0.8038,0.8038,0.8038,0.8038,0.8038,0.8038,0.8038,0.7787,0.7682,0.7804,0.7139,0.6979,0.7309,0.7005,0.6939,0.7135,0.2467,0.0,0.0,0.0,0.0,0.0,0.0,0.0,0.6772,0.0,0.8051,0.826,0.7908,0.7488,0.0,0.6763,0.6299,0.0,0.0,0.6377,0.7581,0.7305,0.7395,0.8877,0.9428,0.9666,0.9649,1.2054,1.4246,1.5673,1.7184,1.8151,1.8049,1.868,1.9027,1.8698,1.9124,1.9231,1.8611,1.8804,1.8791,1.8504,1.8624,1.8698,1.8698,1.8698,1.8664,1.8591,1.8364,1.8217,1.8143,1.7836,1.7569,1.7355,1.6905,1.6226,1.5377,1.4677,1.3888,1.3018,1.2546,1.2215,1.1904,1.16,1.1562,1.1438,1.048,1.0004,0.9569,0.8781,0.8265,0.8038,0.8038,0.8038,0.8038,0.8038,0.8038,0.8099,0.8364,0.8377,0.8387,0.8648,0.8648,0.8587,0.8587,0.8652,0.872,0.8757,0.8679,0.8581,0.8496,0.8333,0.8177,0.8058,0.8038,0.8038,0.8038,0.8038,0.8038,0.8038,0.8038,0.8038,0.8038,0.7977,0.7805,0.753,0.723,0.7089,0.7031,0.5345,0.5297,0.7045,0.2413,0.0,0.0,0.0,0.0,0.0,0.0,0.0,0.5599,0.573,0.5902,0.5942,0.5942,0.5942,0.6007,0.0,0.0,0.0,0.0,0.0,0.6873,0.6768,0.696,0.8171,0.9074,0.9886,1.0608,1.275,1.4603,1.5691,1.7041,1.7976,1.8223,1.8397,1.849,1.849,1.8637,1.8597,1.8303,1.8437,1.8384,1.8083,1.8076,1.821,1.849,1.849,1.8424,1.8283,1.8123,1.7969,1.7822,1.6989,1.6561,1.6401,1.5215,1.4389,1.3766,1.3041,1.2449,1.1921,1.1205,1.0852,1.0706,1.0117,0.9854,0.9738,0.9053,0.8821,0.8726,0.8237,0.8038,0.8038,0.8038,0.8038,0.8038,0.8038,0.8038,0.8075,0.8238,0.8275,0.8313,0.8472,0.8492,0.8482,0.8482,0.8547,0.8604,0.8604,0.8554,0.8482,0.8397,0.8262,0.8136,0.8052,0.8038,0.8038,0.8038,0.8038,0.8038,0.8038,0.8038,0.7939,0.7842,0.7842,0.771,0.7534,0.7083,0.6842,0.6945,0.455,0.3496,0.3866,0.1347,0.0,0.0,0.0,0.0,0.0,0.0,0.0,0.5498,0.569,0.593,0.5983,0.6031,0.6101,0.6236,0.0,0.0,0.0,0.0,0.0,0.0,0.6449,0.0,0.7551,0.8894,1.0498,1.2378,1.3601,1.4716,1.5712,1.6647,1.7495,1.8217,1.833,1.835,1.835,1.835,1.8243,1.7989,1.7976,1.7836,1.7522,1.7562,1.7782,1.8217,1.8263,1.8136,1.7842,1.7842,1.7596,1.7226,1.6037,1.539,1.5118,1.3254,1.2284,1.2069,1.1387,1.1047,1.0909,0.985,0.9481,0.9493,0.8428,0.8075,0.8072,0.8048,0.8038,0.8038,0.8038,0.8038,0.8038,0.8038,0.8038,0.8038,0.8038,0.8038,0.8045,0.8069,0.8153,0.8241,0.8265,0.8343,0.8414,0.8414,0.8431,0.8452,0.8452,0.8353,0.8272,0.8272,0.8143,0.8038,0.8038,0.8038,0.8038,0.8038,0.8038,0.7939,0.7939,0.7942,0.7842,0.765,0.7547,0.755,0.7553,0.6813,0.647,0.6747,0.3934,0.1704,0.0,0.0,0.0,0.0,0.0,0.0,0.0,0.0,-0.0346,0.541,0.5501,0.5564,0.5595,0.5795,0.6025,0.6025,0.0,0.0,0.0,0.0,0.0,0.0,0.7301,0.8076,0.8997,1.0738,1.2459,1.3784,1.4905,1.5631,1.5805,1.6827,1.7475,1.7368,1.7575,1.7722,1.7722,1.7722,1.7702,1.7655,1.7655,1.7522,1.7228,1.7455,1.7388,1.6981,1.7228,1.7208,1.6914,1.6914,1.6475,1.5515,1.5143,1.4286,1.3184,1.2615,1.1883,1.0887,1.0536,0.9933,0.9272,0.8834,0.8633,0.8636,0.8392,0.8235,0.8214,0.8085,0.8038,0.8038,0.8038,0.8038,0.8038,0.8038,0.8038,0.8038,0.8038,0.8038,0.8069,0.8201,0.8153,0.8109,0.8238,0.8187,0.8106,0.8106,0.8211,0.8303,0.8303,0.8286,0.8272,0.8272,0.8143,0.8038,0.8038,0.8038,0.8038,0.8038,0.8038,0.7942,0.7646,0.7643,0.765,0.7556,0.726,0.7166,0.7278,0.6902,0.6429,0.5882,0.2364,0.0269,0.0,0.0,0.0,0.0,0.0,0.0,0.0,0.0,-0.1768,0.473,0.5046,0.5318,0.5245,0.5418,0.5658,0.5726,0.0,0.0,0.0,0.0,0.0,0.0,0.0,0.8355,1.0429,1.2233,1.3769,1.4952,1.5491,1.5945,1.6266,1.678,1.7121,1.7148,1.7268,1.7281,1.7121,1.7108,1.7108,1.7108,1.7108,1.7048,1.6914,1.6407,1.5858,1.545,1.4867,1.5046,1.5897,1.5777,1.5166,1.405,1.309,1.2264,1.1673,1.0662,0.9929,0.9438,0.9133,0.8831,0.8564,0.8275,0.8296,0.835,0.8201,0.8147,0.8136,0.8065,0.8038,0.7939,0.7338,0.7138,0.7036,0.6431,0.6229,0.6229,0.6229,0.7132,0.8055,0.8126,0.8092,0.8058,0.813,0.8092,0.8038,0.8038,0.8096,0.8147,0.8147,0.8147,0.8147,0.8147,0.8089,0.8038,0.8038,0.8038,0.7839,0.7238,0.7138,0.7039,0.6742,0.6642,0.6851,0.7272,0.615,0.5316,0.507,0.602,0.6285,0.5765,0.2018,0.0,0.0,0.0,0.0,0.0,0.0,0.0,0.0,0.0,-0.2056,0.421,0.4554,0.4891,0.4714,0.0,0.5487,0.5787,0.0,0.0,0.0,0.0,0.0,0.0,0.7616,0.8884,1.1337,1.3134,1.4482,1.5121,1.5557,1.6006,1.6443,1.6436,1.659,1.7128,1.7088,1.6947,1.6727,1.6647,1.6633,1.67,1.6334,1.6089,1.6089,1.5022,1.4188,1.3773,1.295,1.3147,1.4389,1.4171,1.3562,1.2547,1.1176,1.051,1.0201,0.8877,0.8333,0.8333,0.8038,0.8109,0.8204,0.8085,0.8113,0.8201,0.8082,0.8038,0.7939,0.7739,0.764,0.7437,0.6334,0.6032,0.5832,0.5024,0.4824,0.4824,0.4824,0.6027,0.7235,0.7235,0.7235,0.7235,0.7235,0.7235,0.7235,0.7235,0.7235,0.7235,0.7235,0.7235,0.7235,0.7235,0.7235,0.7235,0.7235,0.7235,0.7036,0.6337,0.6237,0.6137,0.5639,0.5536,0.5847,0.6882,0.5553,0.4403,0.3929,0.4501,0.4724,0.4392,0.1569,0.0,0.0,0.0,0.0,0.0,0.0,0.0,-0.0,-0.0899,-0.2697,0.421,0.4145,0.4032,0.3861,0.474,0.0,0.6804,0.6796,0.0,0.7703,0.0,0.0,0.0,0.9124,1.0313,1.1426,1.3297,1.4359,1.3656,1.4914,1.5864,1.5907,1.5688,1.5962,1.7038,1.6901,1.6727,1.6707,1.646,1.642,1.6693,1.5326,1.4481,1.4481,1.3713,1.2909,1.2073,1.2574,1.2584,1.2093,1.2093,1.1605,1.0627,1.022,0.9525,0.8546,0.8141,0.8038,0.8038,0.8038,0.8045,0.8055,0.8041,0.8045,0.8055,0.8041,0.8038,0.7839,0.6836,0.6537,0.6334,0.5227,0.4924,0.4924,0.4824,0.4824,0.4824,0.4824,0.4924,0.5024,0.5024,0.5024,0.5024,0.5024,0.5024,0.5024,0.5024,0.5024,0.5024,0.5024,0.5024,0.5024,0.5024,0.5024,0.5024,0.5024,0.5024,0.5227,0.5839,0.5939,0.5639,0.4935,0.4429,0.4738,0.6284,0.6292,0.6247,0.6131,0.2608,0.0477,0.038,0.0184,0.0,0.0,0.0,0.0,0.0,0.0,0.0,-0.009,-0.36,-0.4497,0.3565,0.3926,0.4309,0.4196,0.0,0.0,0.0,0.0,0.0,0.743,0.7906,0.0,0.0,0.9832,1.0773,1.1728,1.2952,1.3668,1.3507,1.4104,1.4429,1.4429,1.4344,1.464,1.5607,1.5494,1.5665,1.6075,1.6059,1.5757,1.5278,1.4473,1.3728,1.3051,1.1855,1.1028,1.0681,1.0164,0.9673,0.9509,1.0288,1.0194,0.9118,0.8924,0.8531,0.8137,0.8038,0.8038,0.8038,0.8038,0.8038,0.7939,0.7238,0.6634,0.6029,0.6029,0.6029,0.5927,0.5527,0.5427,0.5227,0.4124,0.3823,0.3725,0.3022,0.2822,0.2822,0.2822,0.2822,0.3123,0.4423,0.4824,0.4824,0.4824,0.4824,0.4824,0.4824,0.4824,0.4824,0.4824,0.4824,0.4824,0.4824,0.5229,0.5534,0.5534,0.5129,0.4929,0.5142,0.4939,0.4234,0.2925,0.2017,0.1715,0.2324,0.2426,0.242,0.2402,0.0893,0.0,0.0,0.0,0.0,0.0,0.0,0.0,-0.0,-0.2427,-0.3509,-0.3509,-0.3864,-0.4218,0.3175,0.3699,0.4237,0.0,0.0,0.0,0.0,0.0,0.0,0.7634,0.8143,0.8709,0.9472,0.9952,1.0367,1.1066,1.2045,1.2641,1.2491,1.2777,1.3028,1.3028,1.296,1.326,1.4103,1.4115,1.4285,1.4675,1.4663,1.4376,1.3607,1.3011,1.2328,1.1556,1.0194,0.941,0.941,0.8528,0.8038,0.8038,0.8924,0.9019,0.8233,0.8038,0.8038,0.8038,0.8038,0.8038,0.7939,0.764,0.7335,0.693,0.6132,0.5429,0.4824,0.4824,0.4824,0.4724,0.4423,0.4323,0.4124,0.3022,0.2722,0.2521,0.1818,0.1617,0.1617,0.1617,0.1617,0.1919,0.3423,0.3825,0.3825,0.3825,0.3825,0.3825,0.3825,0.3825,0.3825,0.3825,0.3825,0.3825,0.3825,0.423,0.4533,0.4331,0.3825,0.3624,0.3734,0.343,0.2724,0.1212,0.0404,0.0,0.0,0.0,0.0,0.0,0.0,0.0,0.0,0.0,0.0,0.0,-0.1168,-0.1798,-0.1798,-0.3866,-0.5133,-0.5681,-0.4489,-0.4661,0.3109,0.3369,0.0,0.0,0.0,0.0,0.0,0.0,0.0,0.8519,0.9052,0.9301,0.9226,0.9221,0.9285,0.9392,1.0631,1.1194,1.0083,1.1053,1.1897,1.1897,1.1609,1.1883,1.3082,1.2867,1.2533,1.2339,1.2339,1.2145,1.1945,1.0681,0.9998,0.9998,0.892,0.8233,0.8038,0.8233,0.8233,0.8038,0.8038,0.8038,0.8038,0.8038,0.8038,0.7939,0.7939,0.7939,0.7839,0.6836,0.5729,0.4824,0.4824,0.4824,0.4724,0.4724,0.4724,0.4624,0.3524,0.3224,0.3022,0.1919,0.1617,0.1617,0.1617,0.1617,0.1617,0.1617,0.1617,0.1617,0.1617,0.1617,0.1617,0.1617,0.1617,0.1617,0.1617,0.1617,0.1617,0.1617,0.1617,0.1617,0.1617,0.1617,0.1415,0.0909,0.0808,0.101,0.1516,0.1617,0.1212,0.0101,0.0,0.0,0.0,0.0,-0.0,-0.0096,-0.0097,-0.0,-0.0,-0.0,-0.0092,-0.009,-0.378,-0.5684,-0.5684,-0.386,-0.3859,-0.567,-0.6017,-0.6189,0.3508,0.0,0.0,0.0,0.0,0.0,0.0,0.0,0.0,0.0,0.8661,0.9221,0.9561,0.9518,0.9626,0.9958,1.0123,1.0103,0.9701,0.9846,1.0079,1.028,0.9825,1.0082,1.1363,1.1203,1.1365,1.1945,1.2047,1.1653,1.0877,1.0293,0.9608,0.8924,0.8432,0.8038,0.8038,0.8038,0.8038,0.8038,0.8038,0.8038,0.8038,0.8038,0.7537,0.6836,0.6836,0.6434,0.5727,0.5427,0.4626,0.3725,0.3725,0.3224,0.2521,0.2521,0.2521,0.2521,0.2221,0.212,0.2019,0.1718,0.1617,0.1617,0.1617,0.1617,0.1617,0.1617,0.0908,0.0404,0.1313,0.0606,0.0,0.1313,0.1617,0.1617,0.1617,0.1617,0.1617,0.1617,0.1617,0.1516,0.1111,0.1314,0.1516,0.1415,0.0707,0.0303,0.0404,0.0505,0.0303,0.0,0.0,0.0,0.0,0.0,-0.1182,-0.3803,-0.3966,-0.2843,-0.0092,-0.258,-0.404,-0.4053,-0.3862,-0.4403,-0.5676,-0.5121,-0.5295,-0.6017,-0.6094,-0.6174,0.3548,0.0,0.0,0.0,0.0,0.5676,0.6009,0.0,0.0,0.0,0.8723,0.9258,0.9631,0.9592,0.9485,0.9784,0.9579,0.943,0.9327,0.913,0.913,0.9225,0.9027,0.9095,0.99,0.9799,0.9862,1.0359,1.035,1.0066,0.9304,0.9174,0.8792,0.8056,0.8017,0.7946,0.7946,0.7892,0.7892,0.7946,0.7495,0.7271,0.7274,0.7387,0.6807,0.5765,0.5765,0.5191,0.4124,0.4124,0.3524,0.2521,0.2521,0.212,0.1617,0.1617,0.1617,0.1617,0.1617,0.1111,0.0505,0.0505,0.0303,0.0,0.0,0.0,0.0,0.0,-0.0605,-0.1007,-0.0202,-0.0806,-0.1209,0.0202,0.1111,0.1313,0.0202,0.0202,0.0303,0.0101,0.0202,0.0403,0.0707,0.0908,0.101,0.101,0.0404,-0.0606,-0.2323,-0.2526,-0.2222,-0.1412,-0.1311,-0.1311,-0.1311,-0.1298,-0.2266,-0.4469,-0.5286,-0.4691,-0.2339,-0.3753,-0.4956,-0.5681,-0.458,-0.4665,-0.5933,-0.5833,-0.6005,-0.6269,-0.6352,-0.6609,0.3395,0.0,0.0,0.0,0.0,0.0,0.5028,0.689,0.8687,0.8866,0.8971,0.9234,0.9527,0.934,0.9159,0.9186,0.9236,0.9133,0.8825,0.8825,0.8726,0.8825,0.8726,0.8671,0.8627,0.8501,0.8339,0.8001,0.798,0.7879,0.76,0.7723,0.7733,0.7604,0.7726,0.779,0.779,0.7567,0.7567,0.7594,0.6602,0.5978,0.5892,0.6105,0.5649,0.4677,0.458,0.3941,0.3007,0.3007,0.2512,0.1612,0.1609,0.161,0.1512,0.1512,0.1411,0.131,0.1312,0.0202,-0.1209,-0.1207,-0.171,-0.2415,-0.2411,-0.2412,-0.2416,-0.2517,-0.2517,-0.2618,-0.2718,-0.2719,-0.2517,-0.1814,-0.0101,0.0605,-0.1813,-0.2015,-0.2016,-0.2619,-0.2415,-0.1611,-0.0101,-0.0101,-0.0302,-0.0303,-0.0303,-0.1716,-0.5571,-0.6287,-0.567,-0.3729,-0.3527,-0.3527,-0.3527,-0.3522,-0.3364,-0.3239,-0.4757,-0.5709,-0.5679,-0.4106,-0.3926,-0.567,-0.5752,-0.5922,-0.6186,-0.6177,-0.6257,-0.6605,-0.6789,-0.7401,0.0,0.4282,0.0,0.0,0.6304,0.6863,0.6413,0.6898,0.7377,0.7168,0.8371,0.9453,0.9246,0.9376,0.9441,0.9225,0.9236,0.9133,0.8825,0.863,0.8528,0.8726,0.8432,0.8223,0.8386,0.8174,0.7897,0.7863,0.7756,0.7691,0.76,0.7628,0.7631,0.76,0.7631,0.7645,0.7645,0.685,0.6561,0.6493,0.5519,0.4559,0.3801,0.4697,0.461,0.3922,0.2778,0.2115,0.193,0.193,0.1851,0.1579,0.1555,0.1365,0.0988,0.0988,0.0197,-0.089,-0.0903,-0.1411,-0.2109,-0.1979,-0.2188,-0.2409,-0.2275,-0.2288,-0.2517,-0.3324,-0.3726,-0.423,-0.5251,-0.5553,-0.5448,-0.5347,-0.3324,-0.1611,-0.1711,-0.2619,-0.3731,-0.5253,-0.5457,-0.5253,-0.4949,-0.3528,-0.2518,-0.2519,-0.2519,-0.2822,-0.3731,-0.5356,-0.6176,-0.5763,-0.5761,-0.5761,-0.5761,-0.5683,-0.5577,-0.5339,-0.5727,-0.5893,-0.5746,-0.5315,-0.5407,-0.6106,-0.6005,-0.6086,-0.6346,-0.6343,-0.6871,-0.783,-0.7834,-0.8444,0.0,0.0,0.0,0.0,0.0,0.6045,0.5292,0.5582,0.5847,0.5561,0.665,0.7892,0.8497,0.8514,0.8524,0.8733,0.8832,0.8733,0.8432,0.8336,0.8233,0.8432,0.8072,0.7902,0.8025,0.7784,0.757,0.7495,0.7421,0.738,0.738,0.7451,0.727,0.674,0.6796,0.6551,0.6087,0.556,0.547,0.5808,0.4642,0.3421,0.2313,0.2896,0.3019,0.2665,0.1887,0.1418,0.124,0.124,0.1247,0.1258,0.1532,0.0671,-0.0774,-0.1839,-0.2321,-0.2321,-0.3424,-0.3925,-0.411,-0.4069,-0.4107,-0.4263,-0.4219,-0.4261,-0.4425,-0.4933,-0.5233,-0.5536,-0.6253,-0.6353,-0.645,-0.645,-0.5343,-0.4234,-0.3922,-0.4531,-0.5345,-0.6255,-0.6358,-0.6361,-0.6369,-0.5454,-0.4744,-0.4744,-0.4744,-0.4742,-0.474,-0.5756,-0.6366,-0.6358,-0.6358,-0.6358,-0.6358,-0.6401,-0.6312,-0.6187,-0.6121,-0.6098,-0.6006,-0.6445,-0.6505,-0.6183,-0.6171,-0.6605,-0.7305,-0.7305,-0.783,-0.9052,-0.9052,-0.9575,0.0,0.0,0.0,0.0,0.4825,0.0,0.3978,0.4146,0.4561,0.4364,0.5059,0.5953,0.734,0.7159,0.7153,0.7753,0.7855,0.7756,0.7464,0.7464,0.7464,0.7464,0.7359,0.7244,0.7136,0.6993,0.6859,0.6649,0.6596,0.6568,0.6568,0.6748,0.6391,0.5484,0.5589,0.5285,0.4656,0.432,0.4504,0.5302,0.3671,0.2306,0.1244,0.1361,0.1482,0.1603,0.1484,0.1208,0.0661,0.0661,0.0284,-0.0284,0.0189,-0.0756,-0.2557,-0.4845,-0.4744,-0.3691,-0.5429,-0.601,-0.5997,-0.5978,-0.6157,-0.6265,-0.6244,-0.6331,-0.6437,-0.6437,-0.6437,-0.6437,-0.6437,-0.6437,-0.6437,-0.6437,-0.6353,-0.6364,-0.6442,-0.6448,-0.6353,-0.6439,-0.6437,-0.6442,-0.6356,-0.6364,-0.6369,-0.6369,-0.6369,-0.6366,-0.6358,-0.6358,-0.6353,-0.6437,-0.6437,-0.6437,-0.6637,-0.6637,-0.6682,-0.6854,-0.6825,-0.6801,-0.6828,-0.7598,-0.7613,-0.67,-0.6871,-0.7478,-0.8528,-0.8528,-0.9052,-1.0096,-1.0096,-1.0621,0.0,0.0,0.0,0.0,0.5881,0.5839,0.0,0.0,0.4174,0.4539,0.5134,0.5616,0.5823,0.5731,0.5731,0.5546,0.5546,0.5453,0.517,0.517,0.517,0.517,0.5158,0.5145,0.5133,0.4944,0.4878,0.4867,0.4703,0.4604,0.4604,0.4626,0.4582,0.44,0.4402,0.4631,0.508,0.4001,0.3735,0.447,0.2144,0.0935,0.0765,0.0782,0.1065,0.1447,0.1443,0.0903,0.0091,0.0091,-0.183,-0.4833,-0.4754,-0.3935,-0.3057,-0.5016,-0.5668,-0.558,-0.5873,-0.6,-0.607,-0.5964,-0.6083,-0.6249,-0.6143,-0.6263,-0.6437,-0.6437,-0.6437,-0.6437,-0.6437,-0.6437,-0.6437,-0.6437,-0.6439,-0.6439,-0.6437,-0.6437,-0.6439,-0.6437,-0.6437,-0.6437,-0.6439,-0.6439,-0.6442,-0.6442,-0.6442,-0.6442,-0.6439,-0.6439,-0.6439,-0.6437,-0.6437,-0.6634,-0.7332,-0.7431,-0.7861,-0.8964,-0.8721,-0.883,-0.9165,-0.927,-0.9257,-0.9144,-0.9144,-0.9318,-0.9662,-0.9662,-1.0188,-1.1149,-1.1149,-1.158,0.3309,0.0,0.0,0.0,0.5135,0.5015,0.4237,0.3579,0.3124,0.2824,0.2993,0.3539,0.5,0.4616,0.435,0.4773,0.4858,0.4838,0.4693,0.4684,0.4684,0.4684,0.4546,0.4514,0.4514,0.4431,0.4289,0.4289,0.4214,0.4168,0.4168,0.4214,0.4028,0.3693,0.3725,0.3491,0.3072,0.224,0.2154,0.2648,0.1353,0.0674,0.0674,0.0681,0.0945,0.1387,0.1405,-0.0175,-0.2865,-0.3077,-0.3437,-0.4047,-0.5191,-0.5116,-0.4467,-0.5345,-0.5732,-0.5822,-0.5874,-0.589,-0.588,-0.5825,-0.5923,-0.6067,-0.6081,-0.6206,-0.6355,-0.6418,-0.6437,-0.6437,-0.6437,-0.6437,-0.6437,-0.6437,-0.6734,-0.7033,-0.7033,-0.6736,-0.6437,-0.6437,-0.6437,-0.6437,-0.6437,-0.6437,-0.6534,-0.7033,-0.7033,-0.7232,-0.773,-0.773,-0.773,-0.773,-0.773,-0.7928,-0.8226,-0.852,-0.8981,-0.9494,-0.9507,-0.9694,-0.9962,-1.0295,-1.0484,-1.0544,-1.0014,-1.0096,-1.0707,-1.0707,-1.1144,-1.21,-1.2443,-1.2875,0.0,0.0,0.0,0.4224,0.4174,0.3981,0.0,0.288,0.2306,0.1944,0.1578,0.1944,0.4086,0.3434,0.2939,0.3706,0.3877,0.3855,0.3795,0.3785,0.3785,0.3785,0.3646,0.3608,0.3608,0.3558,0.3442,0.3442,0.3423,0.3487,0.3467,0.3447,0.3265,0.284,0.2693,0.2218,0.1408,0.0833,0.0668,0.1002,0.0664,0.0083,-0.0745,-0.0749,-0.0333,0.0414,-0.0,-0.1794,-0.4389,-0.5245,-0.4633,-0.3398,-0.5017,-0.5579,-0.5531,-0.5708,-0.5827,-0.5822,-0.5819,-0.5908,-0.5908,-0.5908,-0.5989,-0.611,-0.6236,-0.6362,-0.6488,-0.6603,-0.6833,-0.703,-0.703,-0.7226,-0.7422,-0.7422,-0.7918,-0.8219,-0.7928,-0.7431,-0.7033,-0.7033,-0.7033,-0.7033,-0.7033,-0.7033,-0.7232,-0.7829,-0.7928,-0.8127,-0.8722,-0.8825,-0.8825,-0.9019,-0.9019,-0.9118,-0.9509,-0.9899,-1.0293,-1.0592,-1.0683,-1.0853,-1.1022,-1.161,-1.1904,-1.1929,-1.1391,-1.1305,-1.1671,-1.1843,-1.2272,-1.296,-1.3724,-1.4153,0.0,0.0,0.0,0.3417,0.3564,0.0,0.0,0.2845,0.252,0.3293,0.2232,0.148,0.2435,0.1945,0.1441,0.1439,0.1439,0.1438,0.1437,0.1436,0.1436,0.1436,0.1435,0.1434,0.1434,0.1432,0.1432,0.1432,0.1486,0.1453,0.1421,0.1466,0.1431,0.1397,0.0978,0.0924,0.1341,0.0484,0.0082,0.0082,0.008,-0.1655,-0.4668,-0.4695,-0.3786,-0.2362,-0.3975,-0.3878,-0.2771,-0.438,-0.5122,-0.5381,-0.5483,-0.5547,-0.5725,-0.5994,-0.6083,-0.6083,-0.6254,-0.6343,-0.6343,-0.6343,-0.6433,-0.6569,-0.6705,-0.684,-0.6976,-0.7102,-0.7922,-0.8707,-0.8707,-0.9391,-1.0173,-1.0173,-1.0173,-0.9981,-0.8916,-0.8726,-0.8726,-0.8726,-0.8726,-0.8726,-0.8726,-0.8726,-0.8726,-0.8726,-0.8726,-0.8726,-0.8825,-0.8825,-0.9019,-0.9509,-0.9509,-1.0096,-1.1365,-1.1463,-1.2058,-1.3244,-1.3098,-1.3031,-1.3338,-1.3692,-1.3851,-1.3568,-1.4146,-1.3886,-1.2619,-1.3307,-1.3568,-1.3646,-1.481,-1.5311,0.0,0.0,0.0,0.3242,0.2931,0.2702,0.2651,0.1991,0.1514,0.181,0.1437,0.1158,0.1538,0.1442,0.1284,0.1264,0.126,0.1254,0.1234,0.1231,0.1239,0.1258,0.1243,0.1239,0.1258,0.1243,0.1231,0.1231,0.1221,0.1286,0.1275,0.104,0.0957,0.1313,0.1103,0.0891,0.0449,-0.1664,-0.2738,-0.2738,-0.1988,-0.2223,-0.3455,-0.4807,-0.4993,-0.4392,-0.5192,-0.5068,-0.4426,-0.5154,-0.5539,-0.575,-0.592,-0.6013,-0.6063,-0.6228,-0.6257,-0.6343,-0.6343,-0.6428,-0.6517,-0.7132,-0.7344,-0.7506,-0.82,-0.8479,-0.8586,-0.8956,-0.9227,-0.9635,-0.9751,-1.0075,-1.0565,-1.1063,-1.1161,-1.1165,-1.138,-1.0587,-0.9788,-0.9788,-0.9788,-0.9694,-0.941,-0.96,-0.9891,-1.0096,-1.0391,-1.0783,-1.1282,-1.138,-1.1477,-1.1678,-1.1678,-1.1905,-1.2707,-1.307,-1.3467,-1.4235,-1.4327,-1.4402,-1.4487,-1.4462,-1.443,-1.4321,-1.4566,-1.4482,-1.3971,-1.423,-1.4482,-1.481,-1.5643,-1.6221,0.248,0.0,0.0,0.0,0.2261,0.1846,0.1715,0.1264,0.0875,0.0906,0.096,0.1012,0.1041,0.1112,0.117,0.118,0.1189,0.1189,0.1169,0.1166,0.1174,0.1194,0.1031,0.0954,0.0896,0.0662,0.0437,0.0437,0.0364,0.0508,0.1007,0.0791,0.0215,-0.0568,-0.0072,-0.0144,-0.0718,-0.2614,-0.3803,-0.432,-0.3636,-0.3287,-0.3364,-0.4912,-0.5484,-0.536,-0.5604,-0.5643,-0.5497,-0.5586,-0.5722,-0.5848,-0.6028,-0.6132,-0.6181,-0.6353,-0.6415,-0.6446,-0.6486,-0.6792,-0.7214,-0.777,-0.8222,-0.8648,-0.9455,-0.9692,-0.9777,-1.0171,-1.0469,-1.0801,-1.1099,-1.1448,-1.1843,-1.2339,-1.2538,-1.264,-1.3238,-1.215,-1.1165,-1.1165,-1.1165,-1.1068,-1.0788,-1.0974,-1.1268,-1.1473,-1.195,-1.2533,-1.313,-1.342,-1.3613,-1.3811,-1.3811,-1.3891,-1.4279,-1.4526,-1.4767,-1.4923,-1.5184,-1.5207,-1.5102,-1.5163,-1.5175,-1.5235,-1.5484,-1.565,-1.5809,-1.5484,-1.5477,-1.5974,-1.6804,-1.7529,0.0,0.0,0.0,0.0,0.1441,0.112,0.079,0.0761,0.0811,0.0897,0.0898,0.0889,0.098,0.0986,0.1015,0.1102,0.1142,0.1163,0.1163,0.1164,0.1164,0.1165,0.0727,0.0364,0.0364,-0.0436,-0.1015,-0.1015,-0.1378,-0.0933,0.035,0.049,-0.0967,-0.4196,-0.2899,-0.2165,-0.2165,-0.215,-0.2906,-0.43,-0.4662,-0.4809,-0.4887,-0.5306,-0.5362,-0.524,-0.5509,-0.5628,-0.5631,-0.5637,-0.5714,-0.583,-0.583,-0.5912,-0.6034,-0.6207,-0.6457,-0.6639,-0.6753,-0.7573,-0.8507,-0.8418,-0.9077,-0.996,-1.0173,-1.0234,-1.0324,-1.0731,-1.1606,-1.2414,-1.2657,-1.3499,-1.4286,-1.4292,-1.4298,-1.4298,-1.4298,-1.3528,-1.2861,-1.2861,-1.2861,-1.2861,-1.2861,-1.2861,-1.2856,-1.2861,-1.3511,-1.3974,-1.3974,-1.4632,-1.521,-1.5798,-1.5798,-1.5866,-1.6028,-1.6,-1.5868,-1.5548,-1.5527,-1.5395,-1.5182,-1.5855,-1.6308,-1.6484,-1.7139,-1.7635,-1.8031,-1.6968,-1.6714,-1.7115,-1.8282,-1.932,0.1709,0.0,0.0,0.0,0.0,0.0,0.1077,0.0831,0.0705,0.08,0.0832,0.086,0.0913,0.0941,0.0963,0.0927,0.1036,0.107,0.107,0.1088,0.097,0.0565,0.0417,0.0069,-0.0564,-0.0903,-0.1374,-0.2059,-0.2198,-0.2464,-0.2925,-0.1902,-0.2234,-0.4252,-0.3936,-0.3675,-0.3675,-0.3905,-0.4196,-0.4614,-0.4842,-0.4956,-0.4959,-0.5306,-0.5488,-0.545,-0.5672,-0.5767,-0.5875,-0.5822,-0.6025,-0.6311,-0.6311,-0.6404,-0.6533,-0.6536,-0.6971,-0.7594,-0.7754,-0.8429,-0.9379,-1.0157,-1.0661,-1.1068,-1.183,-1.2025,-1.2093,-1.2338,-1.2698,-1.2983,-1.3421,-1.382,-1.4063,-1.425,-1.4298,-1.4298,-1.4298,-1.4484,-1.4484,-1.401,-1.3913,-1.3721,-1.3346,-1.4106,-1.4573,-1.419,-1.514,-1.5812,-1.5812,-1.6001,-1.619,-1.6386,-1.6386,-1.645,-1.6461,-1.6499,-1.644,-1.6377,-1.6347,-1.6703,-1.7401,-1.7556,-1.8083,-1.8948,-1.9116,-1.9423,-1.9806,-1.8789,-1.8479,-1.8877,-1.9991,-2.0867,0.1341,0.1274,0.1174,0.1341,0.0,0.0,0.0908,0.0762,0.0615,0.075,0.077,0.0789,0.0849,0.0854,0.075,0.0606,0.0637,0.0728,0.0946,0.0836,0.0654,0.0332,-0.0197,-0.0718,-0.1193,-0.1767,-0.228,-0.2898,-0.3099,-0.3515,-0.4239,-0.3493,-0.3424,-0.4241,-0.4372,-0.4439,-0.4439,-0.464,-0.477,-0.477,-0.4913,-0.5015,-0.5086,-0.537,-0.5544,-0.5491,-0.5678,-0.596,-0.6288,-0.6364,-0.6626,-0.6928,-0.6928,-0.7145,-0.7552,-0.7552,-0.7833,-0.8312,-0.8587,-0.9312,-1.0233,-1.0958,-1.1497,-1.2015,-1.2534,-1.2705,-1.2765,-1.3043,-1.32,-1.347,-1.4167,-1.4278,-1.4383,-1.5057,-1.5158,-1.51,-1.5222,-1.5629,-1.5629,-1.4867,-1.5057,-1.5153,-1.4873,-1.5439,-1.5818,-1.5527,-1.6379,-1.7044,-1.7044,-1.7208,-1.7313,-1.7313,-1.7313,-1.7236,-1.6934,-1.751,-1.7709,-1.7408,-1.7755,-1.8318,-1.8939,-1.8939,-1.9335,-2.0119,-2.0119,-2.0518,-2.1145,-2.0119,-1.9816,-2.0304,-2.1165,-2.1863,0.0942,0.0773,0.0571,0.0942,0.0773,0.0,0.0512,0.0548,0.0598,0.0705,0.0714,0.0727,0.0786,0.0755,0.0598,0.0246,0.0155,0.033,0.0788,0.0493,0.0185,0.0123,-0.0863,-0.1663,-0.1724,-0.277,-0.3485,-0.3636,-0.3916,-0.4164,-0.4273,-0.4295,-0.43,-0.43,-0.4495,-0.4625,-0.4625,-0.4761,-0.4831,-0.4831,-0.5024,-0.5156,-0.516,-0.5433,-0.5559,-0.5505,-0.5776,-0.6172,-0.6761,-0.7085,-0.7414,-0.7604,-0.7629,-0.8093,-0.8703,-0.8703,-0.8812,-0.9047,-0.9183,-1.0014,-1.1028,-1.1238,-1.1911,-1.2705,-1.2705,-1.2705,-1.2753,-1.3175,-1.342,-1.3845,-1.493,-1.4903,-1.5037,-1.6371,-1.6401,-1.6281,-1.6699,-1.6864,-1.6669,-1.6001,-1.6197,-1.6588,-1.6588,-1.6676,-1.6676,-1.6676,-1.7412,-1.7878,-1.7878,-1.8237,-1.8482,-1.8564,-1.8474,-1.8282,-1.7657,-1.8795,-1.9265,-1.8514,-1.946,-2.002,-2.006,-2.0051,-2.0285,-2.073,-2.0874,-2.1354,-2.2317,-2.1211,-2.0904,-2.1395,-2.209,-2.2542,0.0538,0.0571,0.0504,0.0605,0.0571,0.0,0.0562,0.0546,0.055,0.0697,0.0638,0.0623,0.0725,0.0727,0.0678,0.0597,0.0342,0.0053,-0.0117,-0.0182,-0.0432,-0.0862,-0.1293,-0.1909,-0.2646,-0.314,-0.3518,-0.3845,-0.3998,-0.4126,-0.4151,-0.4246,-0.4367,-0.4561,-0.4561,-0.4628,-0.4764,-0.4957,-0.5024,-0.5024,-0.5226,-0.5359,-0.5362,-0.5393,-0.5715,-0.621,-0.6273,-0.6764,-0.7487,-0.7564,-0.781,-0.8157,-0.8406,-0.8546,-0.8703,-0.8703,-0.9108,-0.9806,-1.0259,-1.0933,-1.174,-1.2236,-1.2486,-1.2705,-1.2705,-1.2705,-1.2881,-1.3854,-1.4331,-1.4702,-1.5871,-1.608,-1.6191,-1.7011,-1.7206,-1.7251,-1.7594,-1.8226,-1.8696,-1.8503,-1.7404,-1.6588,-1.6588,-1.7044,-1.7505,-1.7505,-1.8527,-1.9271,-1.9271,-1.9331,-1.963,-2.0132,-1.9718,-1.9497,-1.9752,-2.0277,-2.0223,-1.9655,-2.0118,-2.0622,-2.1068,-2.1135,-2.1517,-2.2521,-2.3084,-2.3514,-2.3683,-2.2446,-2.209,-2.2692,-2.3548,-2.3975,0.0269,0.0403,0.0504,0.0504,0.0504,0.0,0.0,0.0525,0.0528,0.0614,0.0587,0.0564,0.0621,0.0608,0.0519,0.0209,-0.0,-0.0372,-0.0973,-0.1006,-0.1117,-0.1352,-0.1937,-0.2525,-0.2995,-0.335,-0.361,-0.3838,-0.3958,-0.4053,-0.4115,-0.4243,-0.4563,-0.5087,-0.5286,-0.5547,-0.6005,-0.6141,-0.6268,-0.6268,-0.6254,-0.6278,-0.6278,-0.6278,-0.6407,-0.6724,-0.6885,-0.7372,-0.8139,-0.8245,-0.8638,-0.9092,-0.9076,-0.943,-0.9906,-0.9906,-1.0137,-1.057,-1.0952,-1.1573,-1.2153,-1.2551,-1.2856,-1.3052,-1.3052,-1.3379,-1.3789,-1.4371,-1.4942,-1.5597,-1.6691,-1.6828,-1.6967,-1.8001,-1.812,-1.8088,-1.8459,-1.8896,-1.9229,-1.9412,-1.8731,-1.824,-1.8411,-1.8577,-1.8795,-1.8964,-1.9653,-2.0064,-2.0064,-2.0263,-2.0449,-2.0475,-2.0404,-2.0373,-2.0184,-2.0948,-2.1192,-2.0644,-2.1336,-2.1907,-2.2231,-2.222,-2.2585,-2.3559,-2.3986,-2.4397,-2.4815,-2.4253,-2.4036,-2.4264,-2.4755,-2.511,-0.0,0.0169,0.0336,0.0336,0.0336,0.0336,0.0,0.0,0.0,0.0413,0.0393,0.0346,0.0414,0.0392,0.0207,-0.0298,-0.0424,-0.0723,-0.1413,-0.1628,-0.1668,-0.1667,-0.242,-0.2972,-0.3014,-0.3387,-0.3623,-0.3771,-0.383,-0.4005,-0.4227,-0.4475,-0.4996,-0.5825,-0.6121,-0.6597,-0.7246,-0.7316,-0.7386,-0.7386,-0.7222,-0.7129,-0.7091,-0.7091,-0.7154,-0.7284,-0.7452,-0.7996,-0.87,-0.8893,-0.9342,-0.9854,-0.9794,-1.0256,-1.1045,-1.1093,-1.1186,-1.1222,-1.1508,-1.1907,-1.2307,-1.2631,-1.3085,-1.3398,-1.3561,-1.4132,-1.4866,-1.5191,-1.5846,-1.6648,-1.7606,-1.7647,-1.7778,-1.8963,-1.9063,-1.8941,-1.9323,-1.941,-1.9505,-1.9826,-1.9913,-2.0027,-2.0288,-2.0064,-2.0007,-2.0309,-2.0624,-2.0816,-2.0889,-2.1147,-2.1154,-2.0966,-2.1096,-2.1034,-2.0508,-2.1559,-2.2111,-2.1711,-2.2617,-2.3099,-2.315,-2.3287,-2.3706,-2.4397,-2.4755,-2.5181,-2.58,-2.6089,-2.6032,-2.5591,-2.573,-2.6077,-0.0397,-0.0279,-0.0202,-0.0202,-0.0202,-0.0202,-0.0202,0.0,-0.0202,-0.0205,0.0,-0.0202,-0.0205,0.0,0.0,-0.0224,-0.0576,-0.0855,-0.0902,-0.157,-0.2029,-0.1983,-0.2255,-0.2555,-0.2789,-0.3296,-0.3591,-0.3602,-0.3768,-0.413,-0.479,-0.5105,-0.5702,-0.6665,-0.6961,-0.7181,-0.7386,-0.7386,-0.7386,-0.7386,-0.7363,-0.726,-0.7091,-0.7091,-0.7399,-0.8016,-0.798,-0.8554,-0.942,-0.9444,-0.9598,-0.9922,-1.0373,-1.0665,-1.0791,-1.1249,-1.1335,-1.1453,-1.1891,-1.2093,-1.2207,-1.2813,-1.3169,-1.3555,-1.4294,-1.4789,-1.5282,-1.6919,-1.7577,-1.8006,-1.8869,-1.9091,-1.9172,-1.9725,-1.9798,-1.987,-2.0261,-2.0352,-2.0361,-2.0407,-2.0532,-2.0634,-2.0373,-2.0403,-2.0499,-2.0535,-2.1061,-2.1688,-2.2138,-2.1922,-2.204,-2.2948,-2.2281,-2.1944,-2.2585,-2.3044,-2.3103,-2.2821,-2.3329,-2.36,-2.3542,-2.4299,-2.5063,-2.5615,-2.6296,-2.665,-2.6718,-2.751,-2.7082,-2.5824,-2.6625,-2.7043,-0.0767,-0.0599,-0.0427,-0.0478,-0.0432,-0.0418,-0.0357,-0.0344,-0.0303,-0.0303,0.0,0.0,0.0,0.0,0.0,0.0,-0.0655,-0.0892,-0.122,-0.1581,-0.1875,-0.2041,-0.242,-0.2774,-0.2998,-0.3139,-0.3324,-0.3565,-0.3785,-0.417,-0.4852,-0.549,-0.6327,-0.7374,-0.7782,-0.8166,-0.863,-0.863,-0.863,-0.8624,-0.8482,-0.8357,-0.8264,-0.8264,-0.831,-0.8489,-0.8766,-0.908,-0.9432,-0.9444,-0.9666,-1.0009,-1.0325,-1.0594,-1.0875,-1.1137,-1.1346,-1.1577,-1.1771,-1.2075,-1.2511,-1.3457,-1.4282,-1.5027,-1.5427,-1.6118,-1.6927,-1.7666,-1.8318,-1.8816,-1.9222,-1.9301,-1.9347,-1.9522,-1.9567,-1.9694,-2.0173,-2.0301,-2.0529,-2.1101,-2.1328,-2.1445,-2.1476,-2.1617,-2.1909,-2.2399,-2.279,-2.299,-2.3012,-2.3192,-2.3313,-2.3174,-2.2974,-2.2913,-2.2959,-2.3297,-2.3567,-2.3801,-2.4545,-2.4931,-2.4862,-2.5276,-2.5755,-2.6445,-2.6841,-2.7258,-2.7736,-2.8519,-2.8634,-2.8141,-2.84,-2.8771,-0.1606,-0.1348,-0.1083,-0.0914,-0.0788,-0.0695,-0.0666,-0.062,-0.055,-0.055,-0.0578,0.0,0.0,0.0,-0.0701,-0.0889,0.0,-0.1101,-0.1511,-0.1628,-0.178,-0.2056,-0.2517,-0.2835,-0.3004,-0.3018,-0.3163,-0.3489,-0.3746,-0.4266,-0.5085,-0.5956,-0.6889,-0.8016,-0.8524,-0.9017,-0.9484,-0.9484,-0.9484,-0.9478,-0.928,-0.9204,-0.9126,-0.9126,-0.9023,-0.8907,-0.9168,-0.9382,-0.9438,-0.9456,-0.9637,-0.9901,-1.0049,-1.0577,-1.1217,-1.1165,-1.1348,-1.1678,-1.1829,-1.2342,-1.3071,-1.4125,-1.5126,-1.596,-1.6204,-1.6934,-1.7723,-1.8065,-1.8655,-1.9146,-1.9146,-1.9146,-1.9215,-1.9362,-1.9362,-1.9547,-2.0285,-2.0469,-2.0722,-2.1519,-2.1746,-2.2086,-2.2646,-2.2737,-2.2951,-2.3601,-2.4002,-2.414,-2.3939,-2.4115,-2.4061,-2.3471,-2.3558,-2.3534,-2.3183,-2.3666,-2.4227,-2.4767,-2.5533,-2.6032,-2.6158,-2.6308,-2.665,-2.7338,-2.7537,-2.7934,-2.8739,-2.9282,-2.9827,-3.0389,-2.9997,-3.0165,-0.3164,-0.2825,-0.2542,-0.1776,-0.1435,-0.129,-0.1356,-0.125,-0.1165,-0.1165,-0.1223,-0.1279,-0.1279,-0.141,-0.1549,-0.1469,-0.1523,0.0,0.0,-0.1719,-0.1952,-0.2068,-0.2339,-0.2514,-0.2525,-0.2983,-0.3309,-0.3318,-0.3663,-0.4426,-0.5707,-0.6462,-0.7417,-0.861,-0.9208,-0.9484,-0.9484,-0.9484,-0.9484,-0.9484,-0.9472,-0.9328,-0.9126,-0.9126,-0.9181,-0.9346,-0.9092,-0.926,-0.9572,-0.9572,-0.9585,-0.9617,-0.9895,-1.0684,-1.1678,-1.1587,-1.1585,-1.1703,-1.2131,-1.3007,-1.4013,-1.4844,-1.5304,-1.5666,-1.6531,-1.6775,-1.7089,-1.8308,-1.8733,-1.8733,-1.8733,-1.8733,-1.8877,-1.9459,-1.9601,-1.9868,-2.0911,-2.1165,-2.1165,-2.1185,-2.1655,-2.2405,-2.3307,-2.3384,-2.3405,-2.3437,-2.402,-2.4661,-2.5098,-2.4334,-2.3929,-2.4388,-2.3971,-2.3615,-2.3593,-2.4443,-2.5217,-2.5742,-2.6158,-2.6637,-2.7111,-2.755,-2.7987,-2.8522,-2.8522,-2.8958,-2.9747,-2.9808,-3.0495,-3.1819,-3.1013,-3.0763,-0.4134,-0.3987,-0.3857,-0.3642,-0.3276,-0.2923,-0.2667,-0.2487,-0.2229,-0.1721,-0.1933,-0.213,-0.1825,-0.1978,-0.2128,-0.209,-0.1953,-0.1899,0.0,-0.2021,-0.2047,-0.2083,-0.2186,-0.2368,-0.2722,-0.2775,-0.2983,-0.3541,-0.3874,-0.461,-0.5734,-0.6602,-0.7518,-0.8657,-0.9022,-0.9298,-0.9478,-0.9484,-0.9484,-0.9484,-0.9484,-0.9436,-0.9403,-0.9944,-1.0151,-1.0087,-1.0635,-1.0709,-1.0516,-1.0869,-1.0809,-1.0551,-1.1221,-1.165,-1.1851,-1.2009,-1.252,-1.3234,-1.3697,-1.4392,-1.5225,-1.5441,-1.6127,-1.6876,-1.7178,-1.7447,-1.7773,-1.8209,-1.832,-1.832,-1.832,-1.8536,-1.89,-1.9113,-1.9623,-2.0317,-2.1151,-2.1569,-2.1939,-2.2306,-2.2767,-2.3174,-2.3503,-2.4039,-2.4648,-2.5311,-2.5628,-2.5909,-2.6074,-2.5475,-2.5142,-2.535,-2.4862,-2.4647,-2.5063,-2.5951,-2.665,-2.7082,-2.755,-2.796,-2.8105,-2.8249,-2.8522,-2.8908,-2.9275,-2.9623,-3.0147,-3.0852,-3.1477,-3.2043,-3.2185,-3.2327,-0.588,-0.5791,-0.5667,-0.5475,-0.4948,-0.4379,-0.414,-0.3785,-0.336,-0.2845,-0.2958,-0.3041,-0.2788,-0.272,-0.2737,-0.2779,-0.254,-0.2374,0.0,-0.2441,-0.2377,-0.2377,-0.2314,-0.2381,-0.2731,-0.2757,-0.2996,-0.3533,-0.3985,-0.4681,-0.5754,-0.6647,-0.7612,-0.8651,-0.9028,-0.9298,-0.9478,-0.9484,-0.9606,-0.9798,-0.9798,-0.9862,-1.0047,-1.0717,-1.0981,-1.092,-1.151,-1.1634,-1.1338,-1.1569,-1.1534,-1.1361,-1.1941,-1.2274,-1.2462,-1.2504,-1.3141,-1.4079,-1.4773,-1.5401,-1.5833,-1.6123,-1.6713,-1.7284,-1.7284,-1.7477,-1.7752,-1.8045,-1.8018,-1.7935,-1.8304,-1.8505,-1.8817,-1.9177,-1.9755,-2.0514,-2.1474,-2.2037,-2.2518,-2.3043,-2.3481,-2.3869,-2.4039,-2.4557,-2.5238,-2.6086,-2.6174,-2.6279,-2.6473,-2.5997,-2.5733,-2.5739,-2.5588,-2.5755,-2.6445,-2.7069,-2.7617,-2.8052,-2.8392,-2.8716,-2.8944,-2.9008,-2.9358,-3.0072,-3.014,-3.0551,-3.1309,-3.1769,-3.2155,-3.2516,-3.2958,-3.315]}]]